GFSNGP_sfc_30mbdewp_015.txt.gz
Dewpoint
26 24 23 22 22 22 21 21 21 21 26 28 33 34 35 35 35 36 36 35 35 34 32 30 30 30 27 24 27 35 34 34 34 36 33 33 34 32 34 26 22 20 20 21
25 28 26 25 27 26 23 23 22 24 25 34 34 35 34 36 36 35 34 34 34 34 31 30 26 23 22 24 25 32 30 29 36 35 35 35 35 36 31 23 20 19 20 22
21 28 31 26 26 25 24 25 24 22 29 35 34 34 36 36 35 34 34 33 33 32 31 24 23 23 20 20 21 21 20 32 36 37 36 36 36 35 24 20 19 19 22 23
21 27 11 28 28 27 27 27 28 34 35 35 34 36 36 35 33 33 33 32 31 31 23 22 21 19 18 19 18 18 29 30 34 34 35 35 36 32 21 19 19 22 23 25
21 24 23 27 27 27 27 29 36 36 36 36 35 35 34 33 33 31 30 29 24 20 19 18 18 17 18 18 17 20 30 31 33 34 34 34 33 24 23 20 23 24 26 25
28 19 9 27 30 31 31 26 38 38 37 36 35 30 33 31 30 29 22 21 18 16 15 17 17 17 17 17 19 28 31 32 34 34 35 34 34 31 22 22 26 26 26 26
29 25 26 32 31 31 25 25 39 38 38 37 34 35 36 33 24 22 21 17 15 14 15 17 17 17 17 19 24 28 30 30 30 32 34 33 31 26 22 23 26 24 22 23
30 26 21 32 30 27 32 39 39 38 39 39 39 39 37 24 22 21 17 14 14 16 17 17 18 20 22 23 26 28 27 28 28 28 28 27 23 20 22 23 22 21 19 18
29 26 30 33 32 37 39 39 40 39 40 39 37 38 26 23 22 19 15 16 16 17 17 18 21 23 25 25 28 28 27 26 26 26 25 23 20 20 21 22 21 21 19 17
33 34 34 33 39 41 41 40 40 40 40 37 35 25 24 20 18 17 17 18 18 18 18 21 22 26 26 26 28 27 27 26 26 26 26 24 21 22 22 21 20 19 18 17
32 34 35 40 40 40 39 39 39 37 37 28 24 22 18 18 18 18 17 18 19 20 21 23 27 27 27 26 28 27 27 27 26 26 24 24 22 21 22 20 19 19 18 17
29 36 36 40 40 40 40 40 38 35 26 25 19 17 17 16 18 19 20 21 22 23 24 27 28 28 29 27 28 27 25 26 25 25 26 25 24 24 24 22 21 20 18 17
35 41 41 41 39 40 39 39 34 26 25 17 18 17 17 19 21 22 23 23 25 26 27 28 28 28 29 29 27 27 26 26 25 26 26 25 23 22 20 23 25 24 22 21
42 40 38 39 38 37 34 29 27 23 19 18 17 19 22 22 23 23 24 26 27 29 29 28 28 27 30 30 28 26 25 25 25 24 25 24 22 21 23 24 23 22 23 24
40 40 39 39 38 34 29 21 17 19 18 19 21 24 24 25 25 25 26 27 29 28 27 28 30 28 29 29 29 26 25 25 24 22 24 23 23 25 24 23 23 21 21 22
39 39 39 38 36 25 18 19 20 20 21 22 23 24 27 27 27 27 28 29 28 28 28 28 30 31 30 29 29 25 25 24 22 21 21 22 26 24 22 24 24 22 21 20
37 37 37 29 19 19 20 22 23 23 23 24 24 27 27 28 28 28 28 28 28 28 28 29 30 32 31 29 30 26 25 24 24 24 24 23 25 24 25 22 22 22 22 21
33 27 23 20 20 22 24 25 25 25 24 26 27 26 28 28 28 28 28 28 27 27 27 28 30 32 32 29 28 25 22 21 21 22 25 24 25 25 22 22 24 24 24 21
21 21 22 24 24 23 23 23 26 28 27 27 28 28 28 29 29 29 27 26 25 25 26 29 31 33 32 31 27 24 21 21 22 21 22 24 26 26 23 22 24 23 23 21
22 22 21 20 20 21 21 25 27 28 28 28 28 28 29 28 28 27 26 25 26 27 28 30 33 32 31 31 26 23 21 20 23 23 21 24 25 26 25 25 23 23 24 24
19 22 22 22 24 26 28 28 28 28 28 30 31 30 30 29 28 27 26 26 26 27 31 33 32 31 31 30 26 24 22 21 21 23 24 24 25 26 26 24 24 22 23 24
24 23 22 23 24 25 27 29 30 30 31 31 29 29 29 28 27 27 29 28 28 32 30 31 31 31 32 31 30 27 24 23 25 25 22 24 25 24 25 25 23 22 22 24
26 26 25 25 24 26 29 30 30 30 30 30 29 30 28 28 28 28 28 28 29 30 29 31 32 32 32 32 29 27 26 26 25 24 22 21 21 22 23 23 23 22 23 22
29 26 25 26 27 27 27 28 29 30 30 30 31 31 29 28 28 29 31 31 29 29 29 31 32 32 31 31 30 29 26 25 25 25 25 26 25 25 25 25 25 25 23 23
24 25 26 26 27 27 29 30 30 30 29 30 30 30 29 29 30 30 31 31 31 31 31 31 32 32 31 31 30 28 27 26 26 26 27 27 27 26 25 25 26 27 26 25
27 27 27 28 28 28 28 28 29 29 29 30 29 28 28 28 30 30 30 31 31 32 31 31 31 32 31 31 30 29 28 28 28 28 28 27 25 24 24 25 26 26 26 26
27 28 29 29 29 30 30 31 31 31 31 30 29 28 29 30 27 28 30 31 30 30 31 31 32 31 31 31 31 30 29 29 29 29 28 27 26 25 25 25 26 26 26 25

GFSNGP_sfc_30mbdewp_018.txt.gz
Dewpoint
25 26 24 23 22 22 22 23 22 22 25 29 33 34 35 36 35 35 34 34 34 33 33 31 29 26 23 23 24 27 25 30 35 35 35 34 35 36 36 34 35 27 21 22
21 29 29 20 27 27 25 23 24 24 31 34 35 36 36 36 35 34 33 33 33 32 31 31 25 21 20 20 20 22 27 33 34 35 35 35 36 36 37 36 26 21 22 24
12 28 28 22 26 25 25 26 25 22 30 34 34 35 35 35 34 33 32 32 31 31 30 23 20 18 17 18 19 21 31 32 34 34 34 35 36 37 35 32 26 22 23 23
16 19 7 26 28 27 26 32 34 34 34 34 35 36 35 34 32 32 32 31 28 25 20 20 18 17 18 18 19 26 30 31 32 33 33 34 35 35 33 27 26 23 25 25
13 18 18 26 28 27 24 26 36 35 36 35 36 34 33 32 32 31 29 24 21 18 18 17 17 17 17 19 21 30 30 31 32 33 32 34 33 33 33 30 23 26 25 24
27 11 2 17 30 31 30 25 37 37 37 36 34 31 31 33 32 26 22 19 15 14 17 16 16 18 19 21 26 28 30 31 30 33 34 33 33 31 32 23 26 25 24 23
25 19 21 25 31 31 24 18 39 38 38 36 33 33 35 36 24 22 18 15 15 16 17 17 18 21 22 24 26 28 28 29 29 29 29 29 30 28 23 26 24 22 19 21
28 24 14 30 32 27 27 38 39 38 38 37 38 38 38 28 22 19 14 16 17 17 18 19 21 23 24 25 27 28 27 27 27 26 26 24 21 23 24 23 21 20 17 17
27 22 27 33 30 32 38 38 39 38 39 39 36 36 32 23 19 17 17 17 18 18 19 21 23 25 25 25 27 28 27 27 26 26 26 24 21 22 22 22 20 19 19 17
31 30 32 33 38 39 40 40 40 40 40 38 36 32 22 19 18 18 17 18 19 21 22 23 25 27 27 27 27 27 27 26 26 25 25 25 22 23 21 20 20 20 19 18
32 33 38 39 40 40 40 40 38 39 37 36 28 19 18 17 17 19 19 21 22 23 25 25 28 28 28 29 27 27 27 26 25 25 25 24 22 22 22 21 20 20 19 18
26 31 32 35 40 40 39 39 38 37 27 20 18 17 17 18 20 21 22 23 24 26 26 28 28 28 29 29 28 27 26 25 25 25 25 24 23 22 23 23 23 22 21 18
35 37 40 40 40 41 40 39 39 28 20 17 18 17 19 20 22 23 22 23 26 26 28 29 27 28 29 30 30 31 28 26 26 25 26 24 22 21 19 23 25 24 24 22
41 40 39 39 38 40 40 36 24 20 19 18 19 22 23 23 24 24 23 26 27 28 29 28 28 29 30 30 29 29 27 26 25 25 24 24 21 21 22 23 21 21 22 24
40 40 39 40 37 35 30 21 19 19 20 21 23 23 23 24 24 25 26 27 28 29 28 28 28 28 29 31 28 28 28 25 24 23 22 23 22 24 24 21 22 23 20 22
40 39 39 37 36 28 21 22 20 21 22 22 21 22 25 27 27 27 28 28 28 27 27 27 27 27 30 32 29 29 27 25 23 21 21 22 22 25 24 23 23 21 20 20
38 38 38 30 24 24 22 23 23 22 23 22 23 25 27 26 27 28 28 28 27 27 26 26 27 29 30 32 31 29 27 24 23 24 24 24 22 23 24 24 21 21 22 22
36 36 30 28 26 25 24 24 23 24 24 24 26 25 25 26 27 27 28 27 27 26 25 26 27 29 32 33 32 30 25 23 22 22 21 21 23 23 24 22 21 21 22 23
31 30 27 24 22 19 16 16 20 25 27 27 26 26 27 27 28 28 27 27 25 24 25 26 28 30 32 32 32 30 27 22 21 21 22 20 20 24 25 24 21 23 22 22
24 28 24 20 20 19 19 22 25 26 27 27 26 27 28 28 27 27 27 26 26 25 26 27 31 29 31 31 30 29 26 21 21 20 21 21 20 22 25 24 24 22 20 22
21 22 20 21 22 24 25 27 27 27 27 28 29 29 28 28 28 27 26 26 27 26 27 31 30 29 32 31 31 28 26 21 20 19 20 20 21 22 24 25 24 23 22 20
24 22 23 23 23 24 25 26 28 28 28 30 30 29 27 27 27 25 25 26 28 29 29 29 29 30 31 31 31 28 27 26 24 22 21 21 22 21 22 23 24 24 22 20
25 27 27 25 24 25 27 28 28 27 28 28 28 28 28 29 28 27 26 28 28 29 30 30 29 30 31 31 31 30 29 28 26 25 24 24 22 20 20 20 22 22 21 22
26 24 25 26 26 26 26 26 28 28 28 29 28 28 29 28 27 27 27 28 29 29 30 30 30 30 31 31 30 30 30 28 28 27 25 25 24 24 24 23 24 25 24 23
26 26 26 26 26 26 27 28 29 29 29 29 29 29 30 29 29 29 27 27 29 29 30 31 31 31 31 31 31 29 29 29 27 27 26 25 25 26 26 26 24 25 25 26
27 26 27 27 28 28 28 29 29 30 30 29 28 30 30 31 30 28 26 27 29 30 29 27 27 28 30 31 30 30 30 29 28 27 27 27 27 27 27 25 24 24 25 26
27 27 28 28 29 28 29 30 30 30 29 29 29 30 30 29 30 28 28 29 28 27 26 26 28 27 28 29 30 29 30 30 30 29 28 28 28 27 26 25 24 24 25 26

GFSNGP_sfc_30mbdewp_021.txt.gz
Dewpoint
26 26 24 22 21 24 25 24 20 21 23 24 32 33 34 36 36 34 34 32 32 32 32 32 28 22 21 21 21 24 24 30 32 33 34 35 34 35 36 37 36 34 30 23
25 29 28 22 21 23 23 23 25 24 26 34 35 36 36 35 35 34 32 31 31 31 31 27 21 18 18 18 19 22 28 31 34 34 35 34 35 36 36 36 29 31 25 24
9 27 25 15 21 26 25 25 24 23 27 34 34 35 36 35 34 33 31 30 30 31 27 22 19 18 16 17 20 21 29 31 32 32 32 32 34 35 35 34 34 26 24 24
14 16 5 14 27 27 25 27 31 31 33 34 35 36 36 35 34 32 30 30 29 23 20 20 18 16 17 18 19 21 30 31 32 32 32 32 34 33 31 29 28 24 25 24
13 13 14 16 26 27 26 24 34 32 34 34 36 34 34 34 32 31 31 27 21 17 18 17 16 17 18 19 21 29 29 30 30 31 32 32 33 32 32 32 26 25 24 24
23 9 1 7 30 31 28 24 35 35 35 35 34 32 33 33 32 32 24 18 14 15 17 17 17 19 20 22 26 27 29 28 29 29 29 29 30 31 31 24 26 24 22 22
20 15 17 21 31 30 23 14 37 37 36 36 34 34 34 34 33 24 16 15 16 17 17 18 20 22 22 24 25 27 28 28 28 27 26 26 26 26 24 25 23 21 19 21
25 21 13 27 31 27 27 31 37 38 38 37 35 36 38 31 22 16 15 16 18 17 19 20 22 23 24 24 25 27 28 27 27 26 26 23 21 24 24 22 21 19 16 17
24 19 26 31 31 32 33 34 39 38 39 38 38 37 37 23 18 17 17 17 18 19 21 23 24 25 25 26 27 27 28 27 26 26 25 24 21 22 22 21 20 19 19 18
28 26 29 30 32 37 38 38 39 39 39 39 35 37 27 19 18 17 17 19 20 22 23 24 26 27 28 28 28 28 27 27 26 25 25 25 22 23 21 20 19 20 19 19
31 32 34 37 37 38 40 40 39 40 39 36 38 29 19 18 18 18 20 22 22 23 25 25 28 28 28 28 29 27 27 27 26 25 25 23 22 22 22 21 20 20 20 18
23 28 31 31 38 40 40 39 38 38 35 32 22 19 18 18 20 21 22 22 23 25 25 27 29 27 27 29 29 29 29 29 29 27 25 24 23 23 23 24 24 25 24 18
30 34 34 38 40 40 39 39 39 29 22 18 18 18 19 20 22 23 23 23 25 25 27 29 28 27 29 29 29 29 28 29 29 28 26 24 23 22 20 20 24 24 24 24
39 40 39 39 39 41 40 35 25 21 20 20 20 22 22 22 24 23 23 25 27 28 28 28 28 27 28 29 29 29 28 29 29 26 26 26 24 22 21 22 21 21 22 23
40 40 39 40 40 37 25 21 21 23 23 21 23 22 23 22 23 25 26 27 28 28 27 27 25 25 27 28 30 30 29 29 27 25 23 24 22 21 22 22 20 22 21 21
40 39 39 37 27 23 25 28 29 23 22 22 22 22 24 27 27 27 28 28 28 27 26 25 25 26 27 29 31 31 30 30 27 24 22 22 23 22 23 24 22 21 20 19
38 38 33 28 29 32 33 32 26 25 24 22 21 24 26 25 26 27 27 28 27 26 26 26 25 26 28 29 31 31 31 30 27 24 23 24 24 24 24 23 23 20 19 20
36 33 33 33 33 31 25 26 25 24 23 24 25 25 24 24 25 26 27 26 26 26 26 25 26 27 29 30 31 31 30 28 27 26 24 22 21 22 23 23 23 21 19 20
34 33 32 28 26 25 20 18 20 24 26 26 25 25 25 26 26 27 27 26 25 25 26 25 26 29 30 28 28 30 29 28 26 24 22 20 19 19 20 22 23 22 21 21
32 31 26 24 23 22 22 23 25 25 26 26 25 26 27 27 26 26 26 26 26 27 27 27 26 29 29 28 30 30 29 27 24 23 20 19 19 19 19 22 23 22 22 20
26 24 22 23 23 24 25 26 26 25 26 26 27 28 28 28 27 26 26 26 26 27 27 27 28 29 29 29 30 30 29 26 23 22 21 20 19 18 18 20 23 23 21 21
23 24 24 24 24 24 25 26 27 27 27 27 27 29 29 28 27 26 25 26 27 27 27 28 29 29 29 30 30 30 30 27 25 25 24 22 22 21 21 21 21 23 23 23
27 28 25 24 24 25 26 26 26 26 26 27 27 27 27 27 27 27 27 27 26 27 27 28 28 29 29 30 30 29 29 29 28 26 25 25 24 23 23 23 21 21 23 22
23 24 25 26 26 26 24 25 27 28 28 28 29 28 28 28 29 27 27 27 26 26 26 27 29 28 28 29 29 30 29 28 28 28 27 27 26 26 25 24 23 23 23 22
26 26 26 26 26 26 27 28 28 28 29 30 29 28 27 29 28 28 29 28 27 27 28 29 26 26 25 26 28 29 28 28 29 29 28 27 26 26 25 26 26 26 25 25
27 27 27 28 28 28 28 28 28 28 29 29 28 27 27 28 29 30 29 28 27 28 28 27 27 27 26 26 26 26 25 27 29 29 29 28 28 27 27 27 27 26 25 25
27 27 27 26 27 27 27 27 27 28 29 27 27 28 28 29 29 29 29 28 26 25 25 24 19 17 17 17 17 17 19 22 25 28 29 29 29 28 28 27 27 26 25 24

GFSNGP_sfc_30mbdewp_024.txt.gz
Dewpoint
26 27 24 20 20 25 23 22 18 19 21 22 30 32 34 36 36 35 34 33 32 32 32 31 29 23 21 20 21 23 21 28 31 34 34 33 33 33 35 36 36 33 27 24
25 29 27 23 21 22 24 24 25 25 23 27 33 35 35 35 35 34 33 32 31 32 31 29 24 19 18 18 18 22 22 30 33 32 31 31 32 33 35 35 32 34 28 25
12 25 22 14 19 22 23 25 22 18 22 34 34 34 35 35 35 34 33 31 29 30 28 23 19 18 16 17 19 20 23 30 31 31 31 31 32 33 33 33 33 29 24 24
12 15 5 12 26 27 24 25 26 28 28 32 33 36 36 36 35 34 32 30 31 29 21 21 18 17 17 18 19 20 28 29 30 30 31 31 31 32 32 29 29 25 25 24
11 13 12 11 19 25 26 22 30 29 32 34 35 35 35 36 35 34 32 31 28 21 19 19 17 17 18 19 21 27 27 29 30 30 29 28 28 29 31 30 29 25 24 22
19 8 2 7 25 30 27 22 28 33 33 34 34 32 33 35 34 32 31 25 18 16 17 16 17 19 19 20 23 25 27 28 28 29 27 26 26 26 30 26 25 24 21 21
17 14 15 18 30 29 19 13 32 34 34 35 33 34 34 35 33 32 24 16 15 17 17 18 20 21 21 23 24 25 27 28 28 27 26 26 23 24 24 25 23 21 20 21
23 21 13 25 31 26 26 28 33 35 35 35 35 35 35 34 30 20 15 17 18 18 19 21 23 23 23 24 25 27 27 27 27 26 26 25 23 24 25 23 21 19 17 17
23 18 24 28 31 32 32 30 35 36 37 37 36 36 36 25 19 19 16 17 18 19 21 23 25 25 25 26 28 28 28 27 27 27 26 25 23 22 22 21 20 19 19 18
26 24 27 30 30 32 35 34 37 39 38 38 37 38 29 24 24 18 17 18 20 21 22 24 25 27 28 27 27 28 27 27 27 26 26 25 24 22 22 21 20 20 20 19
29 29 31 32 35 34 35 39 38 40 40 39 37 33 29 22 18 18 19 21 22 22 24 24 26 28 27 27 29 28 27 27 27 27 29 25 22 22 22 22 21 20 20 20
22 25 28 28 32 39 39 39 40 40 38 34 34 25 23 23 19 20 21 22 22 24 25 25 28 28 28 29 29 29 29 29 29 29 29 27 24 23 24 24 24 25 25 21
28 33 33 34 38 39 39 39 39 35 29 25 22 26 25 20 21 23 22 22 24 25 26 28 28 27 27 27 28 28 29 29 29 29 28 27 25 24 22 21 24 25 25 25
37 39 37 39 37 40 40 34 25 22 22 24 29 25 21 21 24 23 23 25 26 27 27 28 27 26 26 26 27 28 30 30 29 29 28 27 27 25 24 21 20 20 21 23
39 40 39 39 39 30 24 22 25 30 31 31 25 23 22 21 21 25 26 27 27 27 27 26 25 25 26 26 27 29 30 30 30 29 27 25 24 24 23 21 21 21 20 21
40 39 37 30 24 28 31 33 33 32 28 27 24 23 23 26 27 26 27 28 27 25 25 25 25 25 26 27 28 29 31 31 30 28 26 24 24 23 23 22 23 22 20 19
38 32 30 33 33 33 33 33 32 30 30 26 23 23 26 25 25 25 26 27 26 25 25 25 25 26 26 28 29 30 30 30 29 28 26 25 23 22 23 23 23 23 20 17
34 34 34 33 32 31 32 33 32 27 23 25 26 26 25 24 24 25 25 26 25 25 25 26 26 26 27 28 29 28 28 29 28 27 26 25 25 22 21 22 22 22 21 20
33 33 33 33 32 30 26 20 19 24 26 27 26 25 25 25 25 26 26 26 25 24 25 26 26 26 26 28 27 28 29 29 28 27 25 25 22 20 18 18 19 20 21 21
31 30 28 25 24 24 24 25 27 26 27 26 25 26 26 27 27 26 25 25 26 27 27 26 26 27 27 28 29 28 29 29 28 26 23 22 21 20 18 18 18 19 21 21
25 23 23 23 23 25 25 25 25 25 27 26 26 27 27 28 28 27 25 26 27 26 26 26 27 27 28 29 29 29 29 29 28 25 23 22 21 20 19 18 18 19 21 22
24 26 25 24 23 24 25 26 26 26 26 25 25 24 26 28 28 27 26 26 28 27 26 26 26 27 27 27 29 29 28 28 29 27 24 23 24 23 22 22 22 22 22 22
28 26 24 24 24 25 26 25 25 25 26 27 27 27 27 27 27 26 25 26 26 26 25 25 25 26 26 26 26 28 28 28 27 28 27 27 26 25 25 24 24 24 24 24
25 26 26 27 26 26 27 28 28 28 27 27 28 28 28 27 26 27 28 28 27 28 26 25 26 26 24 25 25 26 27 28 28 27 28 28 27 27 26 26 25 25 25 25
27 27 28 27 27 27 27 27 26 26 27 28 29 28 28 26 26 27 29 28 29 27 26 27 27 26 26 25 24 22 22 23 24 24 27 28 28 28 27 26 26 26 25 25
27 26 26 26 26 25 24 24 23 24 24 23 24 25 26 26 26 27 29 29 28 27 26 25 20 16 15 14 14 15 15 16 18 19 21 24 27 27 27 27 27 27 26 27
24 22 21 21 21 20 18 19 19 20 21 22 23 25 26 26 27 28 29 28 27 24 22 17 14 14 13 12 11 11 13 13 12 12 12 13 14 18 26 28 28 28 28 26

GFSNGP_sfc_30mbdewp_027.txt.gz
Dewpoint
25 26 25 20 22 26 23 21 15 15 19 20 23 31 34 36 37 36 35 34 33 33 32 32 32 28 24 23 23 24 24 24 30 34 34 32 31 32 33 35 35 33 30 27
24 28 27 23 22 22 26 25 23 23 22 26 28 33 34 36 36 35 34 33 31 32 33 32 30 25 22 21 21 23 23 24 32 34 32 31 32 33 33 34 33 32 30 28
14 24 21 15 19 22 23 24 24 20 21 31 31 32 33 35 36 35 34 33 31 32 31 30 25 22 20 19 21 22 23 27 31 32 30 31 31 30 29 33 32 30 27 25
14 16 3 11 26 25 23 23 24 24 26 30 32 35 36 36 36 36 35 33 31 31 29 25 21 20 19 19 20 21 24 29 30 30 30 30 29 27 28 32 30 30 27 25
11 14 12 9 15 21 24 15 26 26 28 33 35 36 35 37 37 36 35 33 31 31 23 22 19 18 19 20 21 26 27 28 29 30 29 28 27 26 27 29 31 27 25 23
18 7 2 7 18 30 28 20 26 29 31 33 35 28 26 37 37 36 35 32 26 20 20 18 19 20 20 21 23 24 26 27 29 29 29 27 27 26 25 29 27 25 23 21
18 15 16 19 24 29 16 12 26 33 33 35 32 32 34 37 36 34 29 21 18 18 18 19 21 22 22 23 24 25 27 28 28 29 28 27 26 24 24 25 26 25 23 22
22 19 12 24 30 23 24 29 29 35 34 34 34 35 35 35 33 25 18 18 19 19 20 22 24 24 23 24 26 27 28 28 28 28 27 26 26 24 24 25 24 23 22 22
23 18 24 26 31 32 32 30 31 35 36 37 36 36 34 29 21 18 19 18 19 19 22 24 25 25 24 26 28 27 27 28 27 28 27 26 25 24 23 23 23 23 22 22
25 24 26 28 29 30 32 32 34 36 37 38 37 37 27 22 21 21 22 19 20 22 21 23 25 27 29 28 27 28 28 28 27 27 27 28 27 24 22 23 23 22 23 22
28 28 29 29 32 33 34 35 36 38 39 39 38 33 25 26 23 21 21 22 22 21 23 24 25 28 28 28 29 28 28 28 29 28 28 28 28 24 23 24 24 24 23 23
23 26 27 28 31 36 37 38 39 40 38 37 33 26 23 25 27 22 22 23 22 24 25 24 27 28 28 28 28 28 27 28 28 29 29 29 28 26 24 24 24 24 25 25
30 34 33 34 36 39 39 40 40 36 31 27 27 32 33 30 24 24 23 23 23 24 26 27 27 27 27 27 27 27 27 28 29 29 29 28 28 27 26 26 24 24 26 26
38 38 37 38 38 38 31 27 27 28 31 33 33 30 26 24 26 25 22 24 26 27 27 27 27 25 26 26 27 27 28 29 30 30 30 29 29 28 27 26 25 24 24 23
39 40 39 31 26 25 28 32 33 32 33 31 28 26 24 23 22 24 29 29 28 27 27 26 25 24 26 27 26 27 27 29 29 30 30 29 29 28 27 26 26 23 23 22
32 29 31 32 33 33 33 31 31 31 32 31 29 25 24 27 29 30 28 28 27 26 25 25 24 25 27 27 26 28 28 29 29 28 29 28 28 27 26 26 25 24 23 23
34 32 32 31 32 32 32 33 33 32 32 31 28 26 28 29 27 26 27 28 27 27 26 25 25 27 27 27 27 27 27 27 27 29 29 27 27 27 26 25 24 24 23 25
34 33 33 33 32 32 33 33 33 31 29 28 28 27 27 27 26 25 25 26 25 26 26 26 27 27 27 27 28 28 28 27 27 27 28 28 27 26 27 25 23 23 23 24
34 34 34 33 33 32 31 26 24 27 29 28 28 27 26 26 25 26 26 25 26 26 26 27 27 27 27 28 28 29 29 29 28 27 28 28 27 26 26 25 24 23 22 23
31 30 29 26 26 26 27 28 28 27 27 27 26 26 26 26 27 28 27 26 27 28 28 28 28 27 27 28 28 29 29 29 28 27 27 27 26 25 25 24 24 23 23 23
24 23 24 24 24 25 25 26 25 26 26 25 26 26 26 27 28 29 27 26 27 28 28 27 27 27 28 28 28 27 27 27 27 28 28 27 26 25 24 25 25 24 23 23
27 27 24 24 24 25 26 26 26 26 26 26 26 25 25 27 27 27 27 27 27 27 27 28 27 27 27 26 25 25 26 27 28 28 28 27 26 26 26 26 25 25 25 26
26 25 25 26 26 26 27 27 26 26 25 26 26 27 27 27 27 26 26 27 27 28 28 28 29 26 27 27 27 25 25 26 26 27 27 27 27 27 27 26 27 27 27 27
27 27 27 27 26 26 25 25 24 25 25 25 26 25 25 26 25 26 27 28 27 27 28 29 28 27 25 27 26 25 24 23 22 22 22 23 25 27 28 27 27 27 27 27
27 27 26 25 23 22 21 19 20 20 20 19 21 23 24 24 26 25 26 26 28 27 28 28 26 23 22 19 19 17 17 17 17 17 18 18 20 22 24 27 28 27 27 28
23 22 22 21 19 17 15 15 15 16 15 16 17 18 19 20 23 23 24 26 27 27 28 25 20 18 17 15 15 14 14 13 13 12 12 12 13 13 14 15 19 25 28 29
19 17 17 16 15 14 12 12 12 12 13 15 15 15 16 17 18 20 21 22 23 25 21 17 15 14 13 12 12 11 11 10 8 8 9 9 9 10 11 13 15 21 26 29

GFSNGP_sfc_30mbdewp_030.txt.gz
Dewpoint
24 25 24 21 22 24 20 19 17 8 14 8 16 20 25 32 36 37 38 38 37 36 34 32 31 31 29 27 26 23 20 21 22 26 30 29 29 28 28 29 30 29 29 31
26 27 25 23 22 21 23 21 22 18 17 19 22 26 29 34 36 37 37 37 36 35 33 30 30 30 27 25 22 21 21 22 22 27 29 28 28 27 27 27 28 29 29 27
20 24 23 20 23 21 20 23 22 18 18 22 25 28 29 32 35 35 36 36 35 33 32 30 30 28 25 22 21 21 21 21 24 28 27 26 25 25 25 26 28 28 28 29
23 19 10 13 22 22 21 21 20 21 19 22 25 31 33 33 33 36 36 36 35 33 31 30 27 24 21 19 19 21 20 22 25 26 25 24 25 26 26 26 26 27 27 27
23 17 13 5 16 18 22 15 20 20 21 26 33 34 32 35 36 36 37 37 36 33 30 26 22 21 18 19 20 19 20 22 23 25 25 24 25 26 27 25 25 26 27 26
22 17 12 16 23 29 28 17 21 27 28 29 33 27 19 34 37 37 38 37 33 30 25 22 20 19 20 19 19 19 21 22 24 25 25 24 26 27 26 25 24 25 25 26
26 25 22 21 21 30 18 17 27 31 31 33 32 26 35 36 38 38 37 33 27 22 19 19 22 23 20 19 19 19 24 25 25 24 24 25 27 26 25 24 24 26 26 25
28 24 19 24 30 24 28 31 31 31 34 35 34 38 36 37 37 36 31 23 19 22 26 27 23 22 18 15 19 24 26 25 23 24 25 25 26 26 25 24 25 26 29 27
27 24 27 28 30 32 34 33 33 34 33 37 37 36 36 35 34 28 21 19 25 27 27 24 23 21 17 18 25 26 24 24 24 26 26 26 25 25 25 24 23 24 23 23
27 24 27 29 30 30 30 31 32 33 34 35 36 37 35 31 26 22 21 26 30 26 22 21 21 22 23 25 25 25 25 25 25 26 25 25 24 25 25 24 24 23 22 21
30 28 28 29 31 32 34 36 37 37 38 39 39 38 33 27 25 27 26 24 22 22 20 19 21 23 25 26 26 25 25 25 26 26 26 24 24 25 25 25 24 24 23 23
29 31 31 31 34 37 38 38 40 40 39 39 39 33 28 29 27 26 25 24 22 22 22 22 25 25 25 26 25 25 26 26 26 26 25 25 25 25 27 25 25 24 25 24
36 38 38 39 40 40 38 36 36 35 33 30 29 30 31 28 28 27 25 24 23 23 26 26 25 27 25 26 27 27 26 26 26 26 26 25 25 26 26 27 26 26 27 26
39 40 39 36 34 32 33 34 35 35 34 33 33 33 32 31 30 29 28 24 25 26 28 29 27 24 25 26 27 27 27 26 26 26 28 29 30 29 28 28 26 27 28 25
34 37 34 32 33 33 33 34 33 32 33 33 33 30 28 26 25 25 27 30 31 30 27 26 24 23 24 26 27 26 26 26 27 30 30 28 29 29 29 29 27 26 26 26
35 35 34 33 32 33 33 33 32 32 34 32 29 27 26 27 27 28 29 28 28 25 26 27 27 26 27 27 26 26 26 27 27 25 26 26 28 29 28 28 28 27 25 23
34 31 31 31 31 32 33 33 33 32 31 29 30 29 27 29 29 28 27 28 30 30 30 30 29 26 27 28 27 27 27 26 26 26 26 25 26 27 26 27 28 27 25 27
34 33 32 33 33 33 33 32 32 32 30 29 30 30 29 29 28 28 29 30 29 29 29 30 30 29 28 28 28 29 30 30 30 30 30 27 26 27 29 28 28 28 26 25
34 32 32 31 31 30 28 24 26 28 29 30 29 28 28 28 28 28 30 29 29 30 27 29 29 29 28 28 29 31 32 31 29 29 28 27 27 28 28 29 28 28 28 25
28 27 26 26 27 28 28 28 29 28 28 28 28 29 28 29 30 30 30 29 30 29 29 29 29 29 30 29 28 29 30 29 28 29 29 29 29 29 28 28 28 28 29 29
25 26 26 26 26 28 28 28 29 28 29 28 28 28 28 29 29 29 29 28 28 30 29 28 29 29 28 29 29 28 28 28 27 27 28 29 29 28 27 28 28 28 28 28
28 26 26 27 28 28 29 27 27 27 26 26 26 27 26 25 25 25 26 27 28 28 28 28 29 29 30 30 30 30 28 26 26 27 28 28 28 28 27 28 27 28 28 29
26 27 28 28 28 28 28 24 24 24 24 23 23 22 22 23 22 23 22 23 25 26 27 28 29 29 30 29 30 30 29 27 27 27 26 26 26 26 26 27 28 28 28 28
28 28 27 27 25 22 19 17 17 19 19 19 19 20 19 19 20 19 21 24 24 25 26 28 29 30 29 28 29 28 25 23 22 21 20 20 21 21 21 23 24 26 28 29
26 25 23 21 19 17 15 14 13 14 13 13 14 15 16 16 17 18 21 22 23 23 24 26 27 25 26 25 23 22 21 20 18 17 17 17 17 17 17 18 18 19 21 24
21 20 19 17 16 14 13 11 11 12 11 12 13 14 15 16 16 17 18 18 19 19 19 20 18 18 19 17 17 17 17 16 14 13 13 13 13 13 14 14 14 16 18 21
16 15 15 14 12 11 11 10 11 11 12 13 12 13 14 14 15 14 14 14 14 14 15 14 14 12 12 12 12 12 12 12 10 8 9 9 10 10 10 11 12 14 16 18

GFSNGP_sfc_30mbdewp_033.txt.gz
Dewpoint
22 24 22 20 18 20 18 17 14 15 7 3 7 12 16 20 26 29 35 38 39 40 40 39 37 35 32 31 33 29 31 22 21 24 25 25 27 28 27 26 27 27 26 27
28 26 24 22 21 18 17 16 14 13 13 14 19 16 20 22 26 28 33 37 38 39 39 38 36 34 31 31 30 31 26 22 23 22 23 25 26 27 25 24 25 26 26 27
18 23 23 21 24 21 18 17 18 17 17 14 20 21 22 23 28 29 32 35 37 38 38 37 34 33 31 31 31 25 21 22 22 21 24 24 24 23 23 24 26 26 26 27
23 22 12 11 18 17 19 18 16 15 15 15 17 25 27 28 27 29 31 33 36 37 37 36 34 32 30 28 24 22 22 21 19 22 23 23 22 22 24 25 25 25 26 28
26 16 13 11 10 15 16 13 17 17 17 18 25 30 28 30 28 28 29 33 36 37 36 34 32 29 26 25 20 22 21 19 19 20 21 22 22 22 24 25 25 25 25 28
24 23 18 22 21 24 24 16 21 20 20 21 25 24 24 30 30 32 34 35 36 37 35 32 28 25 23 23 25 22 18 19 20 20 22 22 22 23 25 25 24 23 23 24
27 27 25 22 22 27 18 24 27 26 25 26 26 30 36 34 33 34 35 36 37 34 31 27 25 27 31 28 23 19 18 21 21 22 22 22 23 24 25 24 24 26 28 27
32 31 21 23 26 22 30 26 26 29 28 32 33 33 37 35 35 36 36 35 32 28 24 26 33 31 27 20 15 21 24 23 22 20 20 22 24 25 25 24 25 26 29 29
27 26 27 25 24 27 29 30 30 30 31 32 32 33 33 35 35 35 33 26 24 27 32 33 30 26 18 17 26 24 22 22 22 23 24 25 24 24 23 24 24 26 26 30
27 22 23 25 27 29 30 31 33 34 34 35 35 36 36 36 33 29 24 25 33 34 32 29 23 20 21 23 24 24 23 23 23 24 24 25 25 24 22 25 27 26 27 27
29 27 27 27 32 35 37 38 38 38 39 40 39 38 38 32 27 26 29 29 30 30 27 23 21 22 23 24 26 23 22 24 25 26 26 25 24 23 24 26 28 28 29 28
30 33 35 34 38 40 39 38 38 39 38 35 36 33 30 29 29 33 32 29 29 31 28 23 23 26 26 24 24 25 25 25 27 27 26 26 25 24 26 26 27 26 25 26
37 39 39 39 35 35 35 36 35 34 33 32 32 31 32 33 34 34 33 30 28 25 26 27 28 24 26 26 27 27 26 26 26 26 26 25 26 27 27 27 28 27 26 26
38 39 39 34 34 36 35 35 35 35 35 34 33 32 32 32 31 31 29 26 25 25 25 26 29 28 25 24 25 27 27 27 27 26 26 27 27 27 28 29 29 29 30 28
35 35 35 35 34 34 35 34 32 31 32 32 31 31 30 29 28 27 26 28 29 29 28 25 22 21 21 24 26 27 27 27 28 29 30 28 28 28 28 28 28 28 29 29
36 34 34 34 34 33 32 32 32 34 33 30 27 27 26 27 26 25 25 25 27 25 24 28 29 28 28 26 26 26 26 27 27 28 28 28 29 27 28 28 28 28 28 28
33 32 33 33 32 32 32 32 31 28 28 30 29 29 28 29 28 25 26 28 31 32 32 32 32 30 30 29 26 26 28 29 29 29 30 30 30 30 28 28 28 27 28 30
34 32 32 32 33 32 30 30 30 28 27 29 31 31 30 30 29 29 31 32 32 32 32 31 31 30 29 28 28 29 30 30 31 32 31 32 30 30 29 27 27 27 28 29
32 30 30 29 28 27 24 26 28 28 31 31 29 28 31 31 31 31 31 30 30 30 26 29 29 29 27 28 29 29 30 32 32 32 31 30 29 30 29 29 29 29 28 28
27 26 25 25 28 27 27 29 30 27 29 29 30 30 29 29 30 30 29 27 28 27 29 29 28 27 28 28 28 29 29 31 31 30 29 27 27 28 30 30 30 28 29 29
25 25 26 26 28 30 30 31 30 27 27 28 26 25 25 26 27 25 23 21 21 25 26 24 24 24 26 29 30 30 32 31 30 28 28 27 28 28 29 29 30 29 29 29
27 27 30 30 28 28 28 26 26 26 25 24 25 24 23 19 20 21 22 20 22 23 23 24 24 25 26 27 28 30 29 30 30 30 27 27 28 27 27 28 28 28 29 29
27 29 30 29 29 28 25 21 23 23 22 21 20 19 18 17 16 16 17 17 19 21 22 23 25 25 25 27 28 30 29 29 30 28 25 24 23 24 24 23 24 25 25 26
28 28 28 27 24 21 17 16 15 16 17 15 16 18 16 16 16 16 17 18 18 20 21 22 22 18 20 24 24 25 25 25 24 23 22 21 20 20 20 20 19 19 20 20
27 25 23 21 19 17 15 13 11 11 12 12 14 14 15 15 15 16 17 18 16 16 17 17 16 14 18 19 18 18 19 18 17 17 17 18 17 16 16 16 16 16 18 19
24 22 19 17 15 13 13 10 12 13 12 13 13 14 15 15 15 15 14 16 14 14 15 16 15 13 13 13 13 13 14 14 12 12 13 13 13 13 12 11 12 14 15 17
17 17 16 16 13 11 12 12 13 13 13 15 12 13 13 13 14 13 13 14 14 14 13 13 13 11 9 10 10 10 10 10 10 9 9 9 10 8 8 8 9 11 12 15

GFSNGP_sfc_30mbdewp_036.txt.gz
Dewpoint
17 20 23 23 20 18 16 19 19 20 14 12 12 17 16 18 22 25 27 35 36 38 42 43 43 42 40 36 34 35 34 30 30 28 26 27 27 29 30 29 28 28 28 29
26 26 24 23 20 21 19 16 15 14 13 14 17 22 21 20 20 22 25 28 36 38 40 42 42 40 38 35 35 32 33 31 28 26 24 25 27 29 29 28 27 28 28 28
26 25 22 17 22 23 21 18 17 15 19 18 16 16 21 22 23 26 28 29 34 37 39 40 41 39 37 34 32 34 30 29 25 24 23 25 25 25 25 25 28 28 29 29
26 24 13 14 18 15 17 15 14 14 17 17 24 25 24 24 26 27 29 29 30 34 38 39 39 37 35 32 34 29 26 26 25 21 23 24 25 25 25 26 28 28 28 28
26 21 17 17 13 15 15 15 18 18 19 18 20 25 27 27 28 27 28 28 31 34 37 38 36 33 32 30 26 26 25 24 21 21 24 27 25 24 26 26 27 28 27 27
27 24 16 24 21 22 21 18 24 24 23 23 23 24 31 33 31 31 31 32 33 35 37 36 32 31 27 25 26 26 26 25 23 24 25 24 24 25 26 27 27 27 27 28
29 28 28 23 23 25 20 28 27 29 28 28 30 33 36 36 34 33 34 36 36 35 32 30 31 30 31 33 33 31 26 26 28 30 26 24 24 25 25 26 27 28 28 28
34 33 24 23 25 23 32 29 29 29 30 32 33 33 34 34 35 35 34 34 31 32 33 33 33 32 32 29 24 28 28 28 26 26 24 22 25 26 27 27 27 28 29 29
32 31 30 24 25 26 29 29 31 33 33 34 35 35 35 36 36 34 28 29 32 33 33 32 32 29 26 24 26 25 27 28 26 26 25 25 26 26 27 26 26 27 28 29
28 22 24 25 27 32 35 36 36 37 38 39 39 39 38 35 30 30 32 33 33 32 31 29 27 25 26 26 28 28 28 27 25 25 26 27 27 26 26 27 26 27 28 29
27 28 30 35 38 40 39 40 39 39 37 35 37 33 29 29 30 31 31 30 30 29 29 27 27 27 25 25 28 28 25 25 26 27 28 28 27 26 26 26 27 27 28 29
34 36 37 38 37 37 36 36 35 34 32 31 31 32 32 32 31 31 32 32 32 31 29 27 24 25 27 27 25 25 26 27 28 29 29 28 28 27 27 27 26 26 27 27
38 39 40 37 37 37 36 35 35 34 34 33 33 33 33 33 33 33 33 32 30 27 24 25 26 26 25 28 28 28 28 28 28 28 28 28 27 28 26 27 29 29 28 28
38 39 36 37 36 36 35 35 34 33 32 32 32 33 33 32 32 31 29 26 26 25 25 26 27 28 29 29 27 27 28 28 28 28 29 30 28 28 28 28 27 27 29 29
36 37 36 35 35 35 34 32 30 31 32 31 31 30 29 27 26 26 27 25 26 25 23 23 26 26 27 30 28 27 28 29 29 30 31 31 30 30 29 28 28 28 28 28
35 35 35 34 33 33 31 32 32 32 31 29 29 28 25 25 24 25 24 30 30 29 30 30 30 32 31 31 30 29 28 28 28 30 31 32 30 29 29 29 28 28 28 28
34 34 33 32 31 31 32 32 31 30 27 28 30 31 30 29 27 29 30 32 33 30 31 32 31 32 32 30 28 28 29 29 29 30 31 31 31 31 30 31 29 29 27 29
35 34 33 32 32 31 30 29 28 29 30 31 30 30 30 29 30 30 30 29 29 28 30 31 28 28 29 29 28 28 29 29 29 29 30 31 30 30 29 28 28 29 27 28
32 32 32 32 30 27 26 28 30 31 30 30 30 29 29 28 26 26 26 25 25 24 26 28 26 24 23 24 25 26 27 28 29 30 30 29 29 29 27 27 27 28 30 30
29 28 27 28 29 29 30 31 30 30 29 27 27 25 24 22 26 26 25 24 22 23 21 22 22 21 22 24 25 24 24 25 27 28 30 29 29 28 28 27 27 29 30 30
25 27 28 29 29 30 30 29 27 25 25 26 24 23 22 22 21 20 20 19 21 20 21 21 20 24 22 21 20 22 24 24 25 27 27 28 29 28 28 27 27 28 28 29
27 29 29 29 29 28 26 25 25 24 24 22 22 20 19 16 18 18 17 19 19 20 19 19 23 17 15 17 22 24 23 24 27 28 28 28 27 25 25 24 23 23 23 24
29 30 31 30 29 26 22 20 25 21 19 18 19 18 17 17 17 17 17 18 18 18 17 18 18 14 13 18 18 19 18 19 19 20 21 22 22 21 21 21 20 19 19 19
30 29 28 27 24 21 18 16 15 17 15 15 17 18 16 17 18 18 18 17 17 17 16 18 17 13 13 14 14 14 14 15 13 14 15 17 17 17 17 16 15 16 16 17
28 27 25 23 20 18 16 12 13 14 14 15 16 16 16 17 17 17 16 17 16 16 16 15 15 13 12 12 12 12 11 12 11 10 11 11 12 12 12 12 12 12 13 13
26 23 19 17 15 14 14 12 14 15 14 15 15 16 17 18 17 15 15 15 15 14 14 13 13 14 12 10 10 10 9 9 9 8 9 8 9 9 9 9 9 9 10 10
19 19 18 18 13 12 14 15 15 14 15 17 14 15 16 16 16 14 13 13 13 13 12 12 12 12 11 9 9 8 8 7 7 7 6 6 7 6 7 7 8 8 9 11

GFSNGP_sfc_30mbdewp_039.txt.gz
Dewpoint
19 23 25 23 23 24 19 22 18 19 20 20 19 19 21 25 26 25 30 37 40 40 42 44 45 45 45 42 38 34 34 33 32 33 33 33 33 31 31 29 28 28 28 30
25 27 25 22 24 23 22 22 20 20 20 20 22 22 21 21 22 25 28 30 39 44 44 45 45 45 43 38 36 34 32 32 34 35 35 29 29 29 29 29 28 28 29 29
25 24 21 20 21 21 23 24 22 18 21 25 23 23 24 25 27 27 29 29 33 38 43 44 44 43 39 36 35 35 32 32 32 30 28 28 27 26 26 25 27 28 28 30
25 24 17 20 18 17 17 19 19 19 20 24 24 29 29 28 27 28 28 30 31 33 39 41 41 37 35 35 35 30 30 31 32 31 27 27 26 27 27 28 27 29 28 28
23 19 22 19 18 18 17 21 24 24 24 26 26 29 34 34 32 31 31 32 34 38 36 34 33 34 31 29 28 28 28 26 27 28 28 28 27 28 28 26 27 28 29 27
32 20 13 22 20 23 21 23 28 28 28 30 32 30 34 34 34 36 33 32 31 31 31 30 31 32 33 32 31 29 29 29 30 29 28 28 31 29 28 28 27 28 28 28
25 19 24 28 24 25 15 25 30 30 31 31 30 35 37 35 36 32 32 33 33 32 32 33 32 31 32 29 28 29 30 30 28 30 30 31 29 28 26 26 26 26 28 28
33 28 20 24 25 21 32 31 31 32 34 34 36 38 37 35 29 31 33 32 32 32 31 31 30 29 28 27 28 27 28 29 29 30 29 28 26 26 27 27 26 27 28 29
32 30 33 27 30 36 36 36 37 38 40 40 39 39 31 32 33 33 33 33 33 31 28 26 24 25 26 28 26 27 28 29 29 28 27 27 26 26 27 26 26 26 27 27
28 31 29 38 39 39 40 39 36 34 36 36 31 31 31 31 31 31 30 30 30 28 28 27 27 27 27 28 28 28 28 28 28 27 26 27 28 28 27 26 26 27 26 26
28 38 39 38 39 38 37 35 33 32 32 31 32 32 32 31 30 30 29 30 30 30 29 28 28 27 26 27 28 28 28 28 26 27 27 28 29 28 27 27 26 25 26 26
32 38 37 36 37 36 35 34 33 33 32 33 32 31 31 30 31 32 33 32 31 30 29 27 26 26 26 27 27 27 26 26 26 27 28 28 28 28 29 28 28 27 28 28
39 38 37 36 36 36 35 35 34 34 33 33 33 33 33 33 33 32 31 31 30 27 26 25 26 27 27 28 28 27 26 26 27 28 27 27 28 28 27 27 27 28 29 29
39 37 36 36 35 35 35 34 33 32 33 33 33 32 32 31 31 31 28 27 27 27 27 27 26 26 27 29 30 29 28 28 28 28 28 28 28 28 28 27 27 26 28 28
37 37 36 35 34 33 32 32 32 32 32 31 31 30 30 28 26 28 30 29 28 28 29 29 29 30 32 32 31 31 30 29 29 29 29 29 30 30 31 31 29 27 27 27
36 35 34 33 33 32 32 32 31 30 30 29 28 28 28 29 28 30 31 31 28 27 28 28 30 30 30 30 28 28 28 28 27 28 28 29 30 32 31 30 29 29 28 28
34 33 33 32 31 32 32 32 29 29 29 28 27 28 29 30 29 28 26 25 26 26 27 30 26 24 25 23 22 23 24 25 26 25 26 28 28 28 30 30 29 30 27 27
35 34 33 32 32 30 29 30 29 29 28 28 28 28 27 23 24 24 24 25 24 24 23 24 22 22 22 23 24 24 24 22 22 22 23 24 26 27 29 27 28 27 26 27
34 33 33 31 30 29 29 29 29 28 28 28 26 26 25 24 26 25 24 23 20 19 21 21 20 22 21 19 17 16 18 19 22 23 23 24 25 27 28 27 27 26 26 27
31 31 30 30 30 30 30 30 28 24 25 24 21 17 18 20 18 18 18 20 20 20 18 18 21 16 13 13 16 19 21 21 21 21 21 25 25 26 26 27 27 26 27 26
29 29 29 29 29 28 27 26 25 23 23 20 16 15 17 17 17 17 19 18 20 16 16 19 16 12 10 14 17 17 16 17 15 15 17 18 21 21 22 22 21 21 20 20
29 28 29 29 27 26 25 23 22 19 20 19 15 16 16 17 17 17 17 17 18 16 15 18 16 11 11 13 14 13 12 13 10 11 12 14 15 16 17 16 16 16 16 16
29 29 29 27 25 22 23 20 18 15 17 16 15 16 15 18 18 16 15 17 16 16 15 17 15 11 10 11 11 11 10 11 9 8 9 10 11 12 11 11 11 12 12 13
30 29 27 26 21 20 16 19 19 15 16 18 17 15 17 16 16 16 17 16 15 14 14 14 13 12 10 9 10 9 8 8 7 7 7 7 8 8 8 8 8 10 10 10
28 27 24 22 19 17 14 15 17 16 16 18 16 15 18 18 14 15 14 14 14 13 13 12 12 12 9 8 8 8 8 7 6 6 5 4 5 4 5 6 6 8 8 9
24 19 18 17 17 15 15 17 17 15 16 16 14 10 14 17 15 13 12 12 12 12 10 10 9 9 10 8 7 7 7 5 3 6 3 2 3 2 3 4 5 5 6 8
21 19 16 15 16 16 16 17 14 14 16 13 10 10 17 15 13 11 9 8 10 10 9 10 8 6 5 8 5 6 4 1 1 4 -0 -1 -1 -1 1 2 3 3 4 4

GFSNGP_sfc_30mbdewp_042.txt.gz
Dewpoint
21 23 25 24 24 25 22 22 19 17 20 19 20 21 21 23 26 35 39 41 42 41 41 44 45 47 46 43 41 39 37 36 37 35 34 34 34 32 32 30 29 28 29 29
21 27 24 23 23 23 23 22 24 22 21 24 23 24 24 24 26 28 30 39 41 41 42 44 46 46 46 43 40 38 37 36 37 36 32 30 30 31 31 30 29 28 26 29
19 24 22 20 21 21 22 24 23 20 22 25 25 25 25 28 29 29 30 32 39 43 44 46 46 47 44 39 38 36 35 36 33 31 30 31 30 29 28 27 27 26 29 29
23 22 20 23 23 22 21 21 22 23 25 28 30 32 31 30 30 30 32 36 38 40 41 42 39 39 38 37 34 33 34 33 30 30 30 31 32 30 32 29 28 28 28 29
24 21 23 22 17 18 18 23 25 26 28 29 33 34 33 36 35 35 34 32 32 32 32 33 34 33 30 29 29 29 29 30 32 31 32 33 35 35 33 31 28 28 29 29
29 21 19 21 22 24 25 23 29 29 31 29 31 30 34 35 33 32 32 32 32 32 32 32 31 31 31 30 30 31 33 34 34 35 36 35 33 31 30 30 28 28 27 28
26 22 17 24 24 26 14 17 30 31 31 31 32 35 34 33 33 32 32 32 31 30 29 30 30 30 29 30 31 32 33 35 37 34 32 31 30 29 27 27 27 26 27 28
28 20 18 30 25 20 26 33 33 34 36 39 35 31 32 33 32 32 31 31 30 30 29 29 28 28 28 30 31 33 34 31 30 29 29 28 28 27 27 27 27 27 26 26
28 25 32 32 31 34 36 36 39 39 40 39 32 32 33 33 33 32 31 29 26 25 26 27 27 28 29 29 28 28 28 28 28 28 28 28 27 26 26 27 27 26 26 26
32 35 37 39 40 40 38 36 36 37 36 33 32 32 31 31 30 30 30 29 29 28 28 27 27 28 27 28 29 28 27 27 28 28 26 27 27 27 28 27 26 26 26 25
37 38 38 38 37 34 33 33 33 33 33 32 32 31 30 30 30 30 30 30 30 29 28 27 27 26 27 27 27 26 27 27 27 26 26 26 27 28 28 28 27 27 26 26
31 37 35 37 36 35 34 33 33 32 32 32 31 30 31 31 32 32 31 30 29 28 26 26 26 27 27 28 29 28 27 27 27 27 26 26 27 27 28 28 29 29 29 27
37 38 37 36 35 35 34 34 33 32 32 32 32 32 32 31 31 31 29 27 26 26 26 26 26 28 30 31 31 30 29 29 28 28 28 27 27 27 27 28 29 29 29 28
37 36 35 36 34 34 34 33 33 33 33 32 32 31 31 31 29 28 27 27 27 28 29 30 30 30 31 31 30 28 28 28 28 27 27 28 28 28 29 29 28 29 30 31
37 37 36 34 32 32 32 32 31 31 31 30 30 29 27 29 29 29 29 29 27 27 28 28 27 26 25 25 22 21 24 25 25 25 26 25 26 27 26 28 29 28 30 29
35 34 33 32 31 32 31 30 29 28 28 28 28 29 29 30 27 24 24 25 25 26 27 24 21 21 24 24 24 24 24 24 24 23 22 21 22 22 23 23 26 28 28 27
33 32 32 31 31 31 30 31 30 27 27 26 27 28 25 23 22 23 24 25 24 23 22 19 19 23 24 19 15 15 16 17 18 20 21 22 20 22 23 23 24 25 28 29
34 33 32 32 32 31 30 29 28 27 27 28 26 23 23 22 22 24 23 19 19 20 19 19 21 16 14 13 16 18 18 19 19 20 19 20 19 22 24 24 26 26 26 26
34 33 33 32 31 30 28 27 27 28 27 25 22 23 22 20 20 21 20 18 18 16 15 20 17 12 10 13 17 18 16 16 15 13 15 15 16 19 19 18 21 24 25 24
32 32 31 31 30 27 26 26 27 25 22 18 18 19 17 17 16 18 19 18 14 14 17 17 13 10 9 11 14 13 12 13 10 10 11 11 13 13 14 14 15 15 16 16
30 30 29 29 29 29 25 24 22 21 17 15 16 16 16 17 17 17 17 16 16 15 15 16 14 11 9 10 11 10 9 10 7 7 8 8 9 10 10 10 10 11 12 13
29 29 28 27 27 25 24 22 22 20 16 15 15 15 17 17 17 16 15 15 15 14 16 16 14 9 9 9 10 9 8 7 6 5 6 5 6 6 6 7 7 8 9 10
29 28 27 25 23 22 21 18 19 18 15 15 15 15 18 18 15 12 12 16 16 14 15 13 12 9 8 7 7 7 6 5 5 5 4 3 4 4 4 4 5 6 7 7
30 28 26 23 22 20 17 17 17 18 16 16 15 15 17 16 15 17 16 14 12 12 11 11 10 10 7 7 6 5 5 3 1 4 2 1 2 2 1 2 3 4 4 5
28 27 22 20 18 17 20 19 18 19 19 16 14 15 18 16 13 14 12 11 12 10 9 9 8 7 7 5 5 4 3 0 -0 2 -2 -2 -2 -1 -1 0 0 2 2 3
25 22 20 18 17 18 18 17 16 17 15 13 10 12 16 15 12 10 8 9 10 9 9 7 6 2 3 6 4 4 1 -2 -0 -0 -3 -4 -4 -4 -3 -2 -2 -1 0 1
18 17 17 17 17 18 17 14 13 15 13 9 8 11 15 12 8 7 4 5 8 7 6 5 5 2 1 4 4 4 -1 -2 -1 -2 -5 -6 -6 -6 -5 -3 -2 -2 -1 -0

GFSNGP_sfc_30mbdewp_045.txt.gz
Dewpoint
23 21 24 23 24 27 23 23 20 20 22 23 22 20 21 22 28 36 41 44 44 44 44 47 48 48 47 46 43 41 40 40 39 37 36 35 34 33 33 31 30 30 29 30
22 26 25 24 24 24 25 23 23 23 22 24 24 26 26 27 29 32 36 40 41 43 43 43 46 47 46 43 43 42 41 39 37 36 34 34 34 32 30 30 29 31 34 30
19 24 22 21 23 23 23 24 23 20 21 24 25 26 28 29 30 31 33 36 39 44 45 45 47 46 43 41 40 39 38 37 34 33 33 33 33 34 34 36 37 36 32 30
19 22 16 21 26 23 22 22 22 23 24 27 29 32 33 33 32 35 35 35 35 37 39 40 40 39 38 37 36 34 32 32 33 33 33 33 34 37 37 37 35 30 29 28
21 21 22 23 22 21 18 21 25 26 30 33 34 33 34 33 33 32 32 32 32 32 32 31 32 32 31 31 31 32 32 32 33 35 35 37 37 38 37 33 30 28 28 29
24 22 22 24 24 23 25 19 27 29 30 32 32 25 32 33 32 32 32 32 32 31 30 30 30 31 31 31 32 31 32 33 34 36 39 38 37 32 31 30 29 28 27 27
26 24 24 24 25 25 15 14 28 31 31 31 29 32 34 32 32 31 31 29 29 29 29 30 31 31 31 33 34 35 38 40 39 36 33 32 30 29 28 27 27 27 27 27
26 24 25 26 26 19 22 32 32 33 35 34 34 33 32 32 31 30 29 29 29 29 29 29 30 31 32 33 35 35 32 30 29 29 28 28 27 27 27 27 26 26 26 26
29 28 29 34 29 33 33 32 35 37 37 34 33 33 32 32 31 29 27 26 26 27 27 28 28 28 27 28 28 28 28 27 27 28 28 28 27 26 26 26 26 26 26 26
30 34 36 38 37 37 38 37 39 40 34 34 33 33 32 31 30 29 28 27 28 27 27 27 27 27 28 28 28 27 26 27 27 27 27 27 27 26 26 26 26 26 26 26
35 37 38 37 35 35 35 35 35 34 34 33 32 31 30 30 29 30 30 29 29 28 27 26 27 27 28 29 29 28 28 28 28 28 27 27 27 27 27 28 28 27 27 27
30 36 33 36 35 35 34 33 33 33 32 31 31 30 30 31 31 30 29 28 26 26 26 26 29 30 30 31 29 28 27 27 27 27 27 26 26 26 27 28 29 29 29 29
32 39 37 36 35 34 33 33 32 31 31 31 31 32 31 30 29 27 27 26 26 27 29 29 28 26 26 27 26 23 23 26 25 24 25 25 25 24 22 22 24 27 29 30
37 36 34 34 33 34 33 33 32 32 32 32 31 31 30 28 27 27 27 28 29 28 28 27 24 21 23 24 23 23 24 24 23 23 23 23 22 21 22 21 21 21 23 27
36 37 35 34 33 32 32 32 31 31 30 30 30 28 28 27 26 26 26 27 28 27 24 20 19 22 24 21 19 19 18 17 18 19 20 20 21 21 19 20 21 22 22 23
34 33 33 32 31 31 31 30 29 28 28 28 29 29 28 24 23 25 26 26 25 21 18 19 22 21 19 14 15 16 17 18 18 19 19 20 18 17 18 19 18 22 22 22
32 31 31 31 31 30 29 28 28 27 28 28 29 25 21 23 24 24 23 22 20 19 19 21 17 14 12 12 15 17 17 17 16 16 15 15 15 15 17 19 16 15 16 21
35 33 32 31 30 30 29 28 27 27 27 27 23 21 20 21 22 22 20 19 17 17 19 17 14 11 10 12 14 15 13 14 12 11 12 12 12 13 14 13 13 13 14 14
34 33 33 31 31 30 28 27 26 27 24 22 22 21 20 22 22 19 18 15 13 14 17 15 13 10 8 11 13 11 11 11 7 8 9 9 9 8 10 9 9 10 11 12
34 33 32 30 29 28 27 27 26 25 23 22 19 18 17 18 19 18 15 14 13 14 16 14 11 9 7 8 11 9 9 9 6 5 6 6 5 6 6 6 6 6 8 9
31 30 28 27 26 26 27 25 22 18 19 19 17 16 17 18 18 17 17 16 14 15 16 13 12 10 7 9 9 7 6 5 5 4 3 3 2 3 3 3 3 4 5 6
30 29 28 25 24 23 23 21 18 17 16 15 16 16 16 16 15 15 15 14 15 14 16 15 12 8 7 8 8 6 5 3 2 3 2 1 -0 1 0 1 1 2 3 4
29 29 28 27 23 22 22 19 17 15 15 15 16 16 17 18 16 14 14 16 15 13 14 12 10 7 7 6 5 4 2 -1 -1 1 -2 -3 -3 -2 -2 -2 -1 -0 1 1
28 28 27 25 21 18 17 19 17 16 16 16 15 17 17 15 15 16 15 13 11 11 10 9 9 7 6 4 4 2 0 -3 -2 -1 -4 -5 -6 -5 -5 -5 -4 -3 -1 -1
28 25 23 20 18 18 18 19 18 17 17 16 17 18 17 15 13 13 11 11 11 9 9 6 5 2 5 2 2 2 -1 -4 -2 -2 -5 -7 -8 -8 -8 -7 -6 -5 -4 -3
25 23 20 19 20 20 18 18 19 18 13 10 13 14 14 13 11 9 7 9 8 8 7 5 2 -1 0 3 2 1 -1 -3 -2 -3 -6 -8 -9 -9 -10 -9 -7 -6 -5 -4
21 21 20 18 17 16 16 16 16 15 12 9 10 12 12 10 7 5 3 6 6 5 5 3 3 1 -1 -0 1 1 0 -3 -4 -5 -8 -10 -11 -11 -12 -11 -9 -8 -7 -5

GFSNGP_sfc_30mbdewp_048.txt.gz
Dewpoint
22 21 23 23 25 26 25 24 22 22 22 22 23 22 22 23 30 33 38 43 45 46 46 49 50 50 48 48 46 45 44 42 42 41 39 37 35 35 36 35 32 31 33 37
22 25 25 24 24 27 25 24 24 23 22 24 25 27 27 29 34 37 39 40 43 43 43 45 48 48 46 45 43 43 42 40 38 37 36 35 33 32 32 32 34 38 39 38
20 25 23 21 23 23 23 25 24 22 23 24 25 26 28 30 33 36 37 38 40 40 42 45 46 44 43 41 41 39 38 36 35 34 33 33 33 34 36 38 40 39 38 37
20 22 18 21 26 25 24 24 24 23 24 24 27 33 33 34 35 33 33 34 35 36 37 38 38 37 37 36 35 34 34 33 33 34 35 36 37 38 39 39 38 37 34 31
20 20 21 21 22 22 20 18 24 23 28 30 34 33 32 32 32 32 32 32 31 31 31 31 32 33 33 32 33 32 32 34 36 36 37 37 38 38 39 38 35 31 29 29
23 19 17 20 24 24 22 17 26 28 31 32 33 22 31 32 32 31 31 31 30 30 31 31 32 32 31 31 32 33 34 35 37 39 40 39 38 36 32 30 29 29 27 27
22 21 24 27 24 24 17 17 27 31 32 32 29 29 33 32 31 30 29 30 30 30 30 31 32 34 34 35 35 38 39 38 34 33 32 31 30 29 28 27 27 26 26 27
26 25 25 26 25 20 22 27 29 32 33 33 33 32 31 30 29 29 28 29 29 29 30 31 32 33 33 33 33 31 30 28 28 28 28 28 27 27 27 26 26 25 25 26
29 27 30 29 26 28 29 30 32 33 35 34 33 32 31 29 28 27 27 27 28 28 28 28 28 28 28 28 28 27 27 27 28 28 28 27 27 27 27 26 26 25 26 26
29 31 33 37 37 37 36 34 37 36 34 34 33 32 30 28 27 26 27 27 27 27 27 27 28 29 29 29 28 28 28 27 27 25 25 25 26 26 26 26 26 26 26 26
31 36 37 37 36 35 36 37 36 34 34 33 32 31 29 28 28 28 28 28 27 27 27 29 30 30 29 27 26 25 24 25 25 24 24 24 24 24 24 25 26 25 25 26
24 31 29 31 35 36 36 35 34 33 32 32 31 30 29 29 29 29 27 27 26 27 29 27 25 24 25 24 23 22 23 24 24 23 23 22 22 21 21 21 22 22 23 23
30 37 36 35 35 34 34 33 33 32 31 31 30 31 30 29 27 27 26 26 28 28 26 23 21 23 24 24 23 22 21 21 20 20 20 21 20 20 19 18 18 18 19 20
37 35 34 34 34 33 33 32 32 31 31 31 31 29 28 26 26 26 27 28 28 26 23 20 22 23 20 18 19 17 17 18 18 19 19 20 20 20 17 16 16 17 17 18
36 36 35 34 33 32 32 31 31 30 30 29 28 27 26 26 25 26 27 27 23 19 19 21 21 19 16 15 14 16 16 17 18 18 19 18 16 15 16 16 17 16 15 14
34 33 33 32 32 31 31 30 30 29 29 28 27 27 24 24 25 26 26 25 19 18 20 18 15 13 12 14 15 16 15 16 14 14 14 14 13 13 13 13 12 12 12 12
32 31 31 31 31 30 30 30 29 29 29 28 27 23 24 24 24 22 20 19 19 20 18 15 12 11 10 12 14 14 13 13 10 11 11 11 10 11 10 11 9 9 9 10
34 33 33 31 30 29 29 29 29 29 28 25 22 23 23 22 22 21 18 18 19 18 16 14 11 9 8 11 11 10 11 9 8 8 8 8 7 7 8 7 6 6 6 7
33 33 32 31 30 29 28 28 28 27 24 21 21 21 22 22 20 19 16 14 15 16 15 12 12 8 6 11 8 9 9 6 5 5 4 4 3 3 5 4 4 3 3 4
33 32 32 30 29 27 27 27 25 24 23 20 20 20 21 20 18 15 14 13 13 15 15 12 10 8 6 8 7 7 5 4 4 2 2 1 -1 -1 1 0 1 1 1 2
31 30 29 28 27 27 26 25 24 22 20 19 18 18 19 18 17 15 15 14 13 15 15 12 10 9 7 8 8 4 2 0 2 1 -1 -3 -4 -4 -2 -3 -3 -2 -1 -0
29 28 27 27 26 25 25 22 21 21 19 18 18 18 18 17 16 15 15 15 14 15 14 13 11 7 7 7 6 4 2 -1 -1 -0 -3 -5 -6 -7 -6 -5 -5 -4 -3 -3
27 27 27 26 25 22 19 19 19 18 16 16 16 17 17 16 15 14 13 15 14 14 13 11 9 6 5 5 3 2 -0 -3 -3 -2 -4 -6 -8 -8 -8 -8 -7 -6 -6 -5
28 27 25 24 22 19 15 16 15 17 17 17 17 17 17 15 15 15 15 13 11 11 9 8 8 6 4 3 2 1 -1 -5 -4 -5 -5 -7 -9 -10 -10 -10 -10 -9 -8 -7
26 26 25 24 23 21 17 17 17 17 17 18 18 18 17 15 12 13 11 10 10 9 8 6 4 1 2 1 1 -0 -1 -5 -4 -5 -6 -8 -10 -11 -12 -12 -12 -11 -9 -9
25 23 23 24 22 20 19 18 18 17 14 12 14 14 13 12 11 9 9 9 8 7 7 4 1 -2 -3 1 0 -1 -1 -2 -4 -5 -7 -9 -12 -12 -13 -13 -13 -12 -11 -10
21 20 19 17 18 18 18 18 17 15 14 12 12 13 11 9 7 5 4 5 5 4 3 2 1 1 -2 -2 -2 -2 -2 -3 -6 -6 -9 -12 -14 -14 -15 -15 -15 -14 -12 -11

GFSNGP_sfc_30mbdewp_051.txt.gz
Dewpoint
19 18 22 21 23 28 26 25 23 23 23 24 24 24 24 26 32 36 41 43 45 46 48 51 52 52 51 50 49 49 47 45 45 44 41 40 38 38 39 38 38 36 35 35
21 24 23 21 24 26 27 25 25 24 23 25 25 26 27 32 38 39 41 42 43 44 45 48 49 48 47 46 45 45 44 41 39 38 36 35 35 34 33 37 36 37 38 39
20 25 23 22 24 25 26 27 26 23 25 26 25 26 30 34 37 37 38 39 40 41 42 44 44 44 43 42 41 39 38 36 35 34 33 34 36 38 38 38 39 39 40 40
21 23 19 22 26 25 24 24 25 25 24 25 27 32 33 35 35 34 35 36 36 37 38 39 39 39 38 37 36 35 34 34 35 36 37 39 39 39 40 40 39 39 38 38
21 21 22 21 22 23 21 19 23 24 25 29 33 33 32 33 33 33 33 33 33 34 35 35 35 35 35 34 34 34 36 37 38 38 39 39 39 39 39 38 37 35 33 31
23 20 19 22 23 25 22 18 23 24 27 31 33 27 31 32 32 32 32 32 32 33 34 33 33 33 33 34 35 35 37 39 40 39 37 35 35 33 32 31 29 29 28 29
23 21 22 25 25 24 19 21 24 28 31 33 30 31 34 32 31 31 31 31 32 32 32 33 34 35 35 36 38 37 34 32 30 29 29 29 29 29 28 27 28 28 28 28
24 22 21 28 24 21 26 26 28 32 34 34 33 33 32 31 30 30 30 30 31 32 33 34 35 33 31 30 30 29 28 28 28 29 28 28 28 28 27 27 27 26 27 26
26 25 32 28 27 28 28 27 30 33 35 34 33 32 30 30 29 28 28 29 30 30 29 29 28 28 27 27 27 28 28 27 26 25 23 22 20 20 18 18 19 20 20 21
29 30 31 31 34 36 34 31 33 35 35 34 33 31 29 28 27 28 28 28 28 27 27 28 29 29 29 29 28 26 24 23 20 18 17 17 16 17 16 18 18 18 18 18
30 31 36 36 37 36 36 38 36 36 35 34 32 30 28 27 27 27 27 27 26 27 28 28 26 24 23 23 23 21 20 18 16 16 16 15 16 17 17 18 20 19 18 18
28 30 30 30 36 37 36 36 35 34 33 33 31 29 28 28 28 27 27 27 28 27 25 23 22 22 21 20 18 16 14 14 16 16 16 16 15 14 18 17 17 18 18 18
30 36 35 35 36 36 35 35 34 34 33 31 30 29 29 29 27 27 26 28 26 23 21 22 20 17 17 17 15 14 13 13 14 15 15 15 14 14 12 14 15 17 16 15
37 35 33 34 34 35 34 33 33 32 31 31 30 29 28 27 27 27 27 27 24 21 21 21 16 13 13 12 13 14 14 16 14 15 15 14 13 13 13 13 13 12 12 12
36 36 35 34 33 32 32 32 31 31 30 29 29 28 27 26 26 27 27 24 20 20 20 16 12 11 12 13 13 13 12 12 13 14 13 13 12 12 11 11 11 9 9 9
35 34 33 33 32 32 32 31 31 30 29 28 27 27 26 26 27 25 21 20 19 19 15 15 11 11 12 12 13 11 11 13 10 10 10 10 9 10 8 9 8 8 7 7
33 33 32 32 32 31 31 31 31 29 28 27 26 25 25 25 24 22 19 20 19 17 15 13 9 9 10 11 9 9 10 9 9 8 8 7 7 7 7 7 6 6 6 6
34 33 33 32 31 31 30 30 29 29 27 25 25 25 24 23 21 19 19 19 18 15 12 10 8 8 9 8 7 8 9 7 7 7 6 6 4 4 5 4 3 4 4 3
33 33 32 31 31 30 30 30 29 27 26 26 26 25 23 22 19 18 18 18 17 14 12 11 11 7 8 9 7 7 7 5 5 4 4 3 2 1 2 2 1 2 2 2
33 32 31 30 30 30 28 28 27 26 26 25 24 22 21 20 18 17 16 15 14 15 12 10 8 6 7 7 5 4 4 4 3 3 2 1 0 -0 0 -1 -2 -1 0 0
31 29 29 28 28 28 28 28 26 24 24 24 21 20 20 19 17 16 14 12 14 16 12 11 9 8 6 7 5 5 4 2 2 2 1 -0 -1 -2 -2 -2 -2 -2 -1 -1
29 28 27 27 26 26 27 26 24 23 21 21 21 20 18 17 16 17 17 14 14 15 13 12 10 8 6 7 6 6 4 1 1 1 0 -1 -2 -3 -4 -4 -4 -3 -3 -3
27 27 26 25 24 23 24 23 22 21 19 19 19 19 18 17 16 14 13 14 14 14 13 12 9 6 6 8 6 5 4 1 -0 0 -0 -1 -3 -4 -5 -5 -6 -5 -4 -4
26 25 24 24 24 22 20 21 21 20 19 19 18 18 17 16 16 16 16 14 13 13 12 10 9 7 5 6 5 4 4 2 0 -0 -1 -4 -3 -5 -6 -7 -7 -6 -6 -6
26 25 25 24 22 21 20 19 18 18 17 17 17 17 16 15 15 14 14 12 11 11 10 6 6 2 4 4 4 3 3 3 1 -0 -1 -2 -4 -5 -7 -8 -8 -8 -8 -7
21 21 21 22 22 21 21 20 18 17 16 16 15 16 15 14 13 12 11 11 10 8 8 6 5 4 3 2 2 1 1 2 1 -0 -2 -3 -4 -6 -8 -10 -10 -9 -8 -8
18 19 18 17 18 18 19 19 17 15 16 16 14 14 13 12 11 10 8 7 7 6 6 5 5 4 3 2 2 2 1 1 -1 -1 -2 -4 -6 -7 -9 -11 -11 -11 -10 -9

GFSNGP_sfc_30mbdewp_054.txt.gz
Dewpoint
17 16 14 15 15 20 21 21 18 20 18 21 21 24 25 27 29 31 33 41 46 47 50 52 53 54 54 54 52 50 49 48 47 46 44 44 44 44 42 41 40 40 40 40
21 20 19 16 17 17 20 19 22 22 21 25 27 27 27 29 33 36 40 42 44 46 49 50 51 50 50 50 49 47 45 43 41 41 40 40 40 39 38 37 37 36 37 38
19 23 22 23 24 21 21 25 24 20 22 24 26 27 27 32 36 39 40 42 43 45 46 47 47 47 46 45 45 43 40 39 38 37 36 37 37 37 38 37 39 40 40 40
21 25 22 20 26 23 22 23 24 25 24 24 25 29 32 36 38 38 39 40 41 42 43 43 43 43 42 41 40 38 36 36 36 37 37 39 40 40 41 41 40 40 39 38
27 23 21 23 24 25 24 22 24 24 24 24 30 32 33 35 37 38 38 38 39 40 40 41 40 40 39 38 37 37 36 37 38 39 39 39 39 39 39 37 35 33 31 30
27 23 22 21 24 27 26 21 23 23 23 25 30 27 26 34 35 35 35 37 37 38 38 39 38 38 37 37 37 37 38 38 38 38 37 35 34 33 31 29 26 26 25 25
29 27 26 27 26 26 21 21 26 25 26 30 30 29 34 34 35 34 35 36 36 36 36 36 37 37 37 37 37 37 35 33 31 30 29 29 28 27 26 26 27 29 29 28
30 29 26 28 26 22 25 32 30 31 31 33 34 35 34 34 33 33 34 34 35 36 36 36 37 37 35 33 32 31 30 29 27 27 25 26 26 25 22 20 19 18 21 20
29 27 32 30 27 29 33 29 32 32 33 34 35 34 33 32 32 32 33 33 34 34 34 32 32 31 29 29 28 28 26 25 24 22 19 17 15 14 12 14 15 17 16 18
32 29 31 33 30 33 32 31 32 33 35 37 34 33 33 32 31 31 31 31 31 31 30 29 28 28 27 27 26 25 23 20 17 13 12 11 11 10 11 16 15 15 16 16
32 33 34 35 35 33 34 35 35 34 36 35 34 33 32 31 30 30 30 30 30 29 29 27 26 25 25 24 22 19 15 12 12 13 11 10 11 13 14 16 17 17 17 16
30 31 34 31 35 37 35 36 35 35 35 35 33 32 31 30 30 29 29 29 29 28 25 23 22 20 19 17 15 12 9 11 14 14 14 11 9 10 17 17 17 18 17 16
33 37 37 37 36 38 37 36 36 35 35 34 33 31 31 30 29 29 28 29 27 24 23 21 18 16 14 13 11 10 9 10 12 13 12 11 11 10 10 14 15 16 14 13
38 37 35 35 35 37 37 37 36 35 35 33 31 31 31 30 28 28 28 26 24 23 20 16 12 10 10 11 12 12 12 14 11 12 11 12 12 12 12 12 13 13 12 11
38 37 37 36 35 35 35 34 33 33 32 31 31 31 30 28 28 28 26 23 22 21 17 12 8 9 11 11 9 9 10 10 13 14 13 12 12 12 11 12 12 11 10 9
38 36 35 35 34 34 34 33 33 32 32 31 30 29 29 29 28 26 22 22 20 17 12 14 11 10 11 10 8 8 11 11 11 10 11 10 10 11 9 10 10 10 9 10
36 36 35 35 34 34 34 34 34 32 31 30 30 29 28 28 25 22 21 22 20 17 16 13 8 9 10 8 5 7 8 8 10 8 9 8 9 9 8 9 9 8 8 9
37 36 36 36 34 34 34 33 32 31 30 30 28 28 26 24 23 22 21 19 18 13 10 9 8 8 6 6 5 8 8 7 8 8 8 9 6 6 8 8 7 6 7 6
35 35 35 34 34 33 33 32 31 29 28 27 27 26 25 24 23 22 20 19 16 12 10 10 11 8 7 9 6 8 8 8 7 6 7 6 7 6 6 7 5 5 5 5
33 33 33 33 33 32 30 28 28 28 28 26 25 24 22 22 22 21 20 18 16 13 11 10 6 6 6 7 6 6 7 8 5 6 7 5 6 6 6 3 3 4 5 5
31 30 29 29 28 28 28 28 27 25 26 26 24 23 21 21 21 20 17 15 15 13 11 10 8 7 6 6 5 8 8 7 6 6 6 5 5 5 4 4 4 4 4 4
28 27 27 27 26 26 27 27 26 25 25 24 23 22 21 20 20 19 18 15 15 14 12 11 9 9 7 8 6 8 6 5 5 5 5 4 4 3 3 3 2 2 2 3
27 27 27 26 25 24 25 25 24 24 23 22 22 22 21 20 18 15 13 14 15 14 12 13 11 9 8 9 9 8 7 5 5 4 4 4 3 2 1 1 0 0 1 1
26 26 26 27 26 24 22 22 22 22 22 22 21 20 18 17 17 16 15 15 14 14 13 12 11 9 8 9 8 7 6 6 5 5 4 2 2 1 1 0 -1 -2 -1 -1
26 25 25 24 22 21 21 21 20 20 20 19 18 17 16 18 18 16 16 14 13 13 12 10 9 7 8 8 7 5 5 5 5 4 3 2 1 1 0 -0 -2 -3 -4 -3
21 21 21 22 22 22 22 21 20 20 20 18 18 19 19 18 17 16 15 14 13 11 11 10 9 8 7 6 5 5 4 4 4 3 2 1 0 -1 -1 -2 -3 -4 -3 -3
18 19 18 17 18 18 18 19 17 17 18 18 16 17 16 16 15 14 13 12 11 10 9 8 7 6 6 5 4 4 3 3 3 1 0 0 -0 -1 -2 -3 -4 -4 -5 -5

GFSNGP_sfc_30mbdewp_057.txt.gz
Dewpoint
18 17 16 15 18 19 19 19 19 19 18 19 19 20 20 23 26 26 26 34 37 39 44 49 52 53 55 54 53 52 51 50 49 48 47 47 46 45 44 43 42 41 41 40
17 18 16 14 13 13 14 15 16 17 16 19 18 21 25 26 26 28 28 32 40 44 48 51 53 53 53 51 50 49 47 45 45 45 45 45 44 43 42 41 41 40 40 40
21 19 17 18 16 15 15 16 16 16 18 19 20 20 24 24 29 31 36 39 42 46 49 50 50 51 50 48 47 45 44 43 43 42 41 41 40 40 39 39 39 39 40 40
24 25 22 21 20 20 18 18 17 18 19 20 19 19 26 29 31 37 39 42 44 46 47 47 47 46 46 45 43 42 41 40 40 40 39 40 40 40 40 41 41 40 40 40
27 24 21 18 22 22 19 18 18 19 21 20 21 30 32 34 36 39 40 41 42 43 43 43 43 42 41 40 40 39 39 39 40 40 40 40 39 39 40 39 38 35 31 30
30 25 20 21 22 23 22 21 22 20 20 21 26 26 23 34 38 39 39 39 40 41 41 41 40 40 39 39 38 38 39 39 39 39 39 38 37 36 33 30 27 25 24 25
32 27 23 22 22 22 23 23 22 21 22 23 25 26 34 35 37 37 37 38 39 39 39 39 39 39 38 38 38 38 38 37 36 34 33 33 30 27 25 25 26 29 27 26
33 29 27 29 27 23 26 27 26 27 25 27 30 36 36 36 35 35 36 37 37 37 38 38 38 38 38 37 36 35 33 32 31 28 25 26 25 24 21 19 19 19 21 20
29 28 31 32 29 29 28 27 30 30 29 30 36 35 35 34 34 35 35 35 36 37 37 38 38 37 34 33 32 32 30 27 24 22 18 16 15 15 12 14 16 18 16 19
29 30 31 31 33 33 32 31 32 32 32 33 37 35 34 34 34 34 34 35 36 36 35 34 33 32 31 30 29 27 24 22 18 15 12 11 10 9 12 17 16 15 16 17
27 26 28 31 34 36 34 33 33 33 33 34 36 34 34 33 34 33 33 34 34 33 32 30 30 29 28 27 24 21 18 14 13 12 11 10 11 13 15 19 17 17 18 16
27 25 31 32 34 36 35 34 36 33 33 36 35 34 33 33 33 33 32 32 32 31 31 29 28 25 24 22 18 14 12 13 17 16 14 9 8 16 16 15 16 18 17 16
29 33 34 36 38 36 35 35 36 35 34 34 35 34 33 33 32 32 31 32 31 30 27 24 22 19 16 15 14 13 13 14 14 15 13 12 11 11 11 18 17 17 15 14
33 36 37 36 33 36 37 37 37 36 35 35 35 34 33 32 31 31 31 31 29 26 23 20 16 14 14 13 12 12 13 13 13 13 13 13 12 13 13 14 15 16 15 12
37 37 38 38 36 36 37 37 36 35 35 35 34 33 32 31 30 30 30 28 25 22 18 14 11 10 11 13 11 12 11 12 15 17 15 14 14 13 13 13 14 13 12 12
37 38 38 37 36 35 35 35 35 35 36 35 33 32 32 31 30 29 26 25 22 18 12 14 12 12 12 9 8 10 10 14 14 13 13 12 12 12 11 12 12 12 12 12
39 38 38 37 36 36 35 35 35 35 34 33 33 32 30 30 28 25 24 21 21 20 18 14 10 11 11 8 6 8 10 9 12 9 10 10 10 11 10 11 11 11 11 12
38 38 38 38 38 37 36 36 35 35 34 33 33 32 29 26 24 23 22 21 20 19 17 17 16 8 6 6 6 9 9 9 10 11 10 11 10 9 10 11 10 9 9 8
37 37 37 36 37 37 36 35 34 33 30 29 28 26 25 23 22 21 21 20 19 18 17 18 15 7 8 10 8 10 11 10 8 8 9 9 11 10 10 10 9 8 8 8
33 34 33 32 32 31 29 29 29 29 28 26 25 24 22 22 22 21 22 21 21 19 18 13 9 9 8 9 7 9 10 11 8 8 10 8 10 10 10 8 6 7 8 8
28 28 28 27 27 28 28 28 27 26 26 25 23 22 22 23 23 22 20 17 18 17 14 11 9 7 7 6 6 11 11 11 10 9 9 9 9 9 8 8 7 7 7 6
28 27 27 27 26 26 27 27 26 25 24 23 23 22 22 21 21 22 23 18 16 14 11 11 10 10 8 9 7 11 9 8 8 9 8 9 8 7 7 6 5 6 5 5
27 26 26 25 25 25 25 25 25 24 23 23 23 22 22 21 21 18 16 18 16 16 14 14 11 10 9 12 11 10 10 9 8 8 8 8 7 7 6 5 4 3 3 3
26 26 26 26 26 23 22 23 23 23 23 23 23 23 21 20 20 20 20 19 15 15 16 13 12 10 9 11 10 9 8 8 8 8 8 7 6 7 5 4 3 2 2 1
26 25 25 24 23 23 23 23 21 21 20 20 21 21 21 23 20 19 17 16 14 16 15 11 10 8 10 12 11 9 7 8 9 7 5 7 6 5 4 3 2 1 0 -0
21 21 21 22 23 23 23 22 21 22 21 20 20 20 19 18 18 17 17 16 15 14 15 13 13 11 11 10 8 7 7 6 7 8 7 4 4 4 3 2 1 0 -0 -0
19 19 18 18 19 19 19 19 17 17 19 20 17 18 18 17 16 15 15 15 14 12 11 10 10 10 7 7 6 7 8 7 7 5 3 2 2 2 1 1 0 -1 -2 -2

GFSNGP_sfc_30mbdewp_063.txt.gz
Dewpoint
23 22 25 25 24 22 22 27 27 29 30 29 30 27 25 26 26 29 30 39 42 44 45 54 54 53 53 53 53 53 52 51 49 48 48 47 46 46 45 44 44 44 43 43
21 24 24 23 24 24 23 21 30 29 29 29 28 24 23 26 26 25 27 34 41 46 51 54 53 52 51 51 50 51 50 49 48 47 46 45 44 44 43 43 42 42 42 42
22 24 23 22 23 22 24 25 22 28 29 26 24 21 23 24 27 28 26 27 39 47 54 54 53 51 50 49 49 49 49 48 47 46 45 44 43 42 42 42 41 40 40 40
24 24 19 23 24 24 24 23 20 19 19 20 19 20 24 25 28 28 30 33 47 50 55 53 51 50 49 47 47 47 47 47 46 45 44 43 42 42 41 40 39 39 38 39
25 25 24 24 23 24 22 22 21 19 19 19 19 28 29 32 32 35 36 43 52 53 53 51 49 48 47 47 46 45 44 44 44 43 41 41 41 40 41 40 40 40 40 34
33 27 22 26 28 30 27 20 24 24 23 23 25 23 26 34 38 41 44 49 50 50 50 49 49 47 46 45 43 42 42 42 41 41 41 41 41 40 40 40 39 34 32 29
32 31 32 32 28 29 24 23 26 26 27 26 26 27 31 39 41 42 44 46 47 47 47 47 46 45 43 41 41 41 41 41 41 41 40 40 39 38 37 32 29 26 27 27
33 32 30 35 32 25 29 31 31 29 31 30 32 34 36 40 41 42 43 44 44 44 44 43 42 42 41 40 41 41 41 41 40 39 38 36 31 30 30 28 25 24 24 25
26 29 35 38 37 36 40 37 35 35 33 37 38 36 38 40 40 41 42 42 42 42 41 41 41 41 40 40 40 40 38 37 35 32 30 28 24 24 24 25 23 22 23 23
32 33 33 34 39 40 41 41 39 36 35 38 38 38 38 39 39 39 39 40 40 40 40 40 40 39 39 38 37 36 33 29 27 25 24 20 21 23 22 22 19 20 21 21
34 34 34 35 33 38 35 39 39 36 35 35 39 38 38 38 38 37 38 39 39 39 39 39 39 38 36 35 34 30 27 22 18 18 17 19 22 20 19 21 21 21 20 21
29 35 34 31 33 39 39 38 37 38 37 35 38 38 38 37 37 37 38 37 39 39 39 36 35 34 34 32 29 26 20 18 19 19 17 17 20 16 17 18 21 20 20 18
22 24 24 25 34 38 37 37 37 38 38 38 38 39 37 36 37 37 37 38 38 37 33 31 30 29 29 26 24 23 21 21 19 19 19 18 16 15 16 20 20 19 17 16
34 35 31 27 33 38 38 38 38 39 39 38 37 38 37 36 36 36 37 36 32 28 23 19 19 19 22 22 22 21 20 21 20 19 18 19 20 21 19 18 18 20 20 17
40 41 41 39 38 38 37 37 36 37 38 38 38 37 36 36 35 33 30 27 23 19 17 16 16 16 18 19 20 21 22 22 21 20 20 19 19 18 19 20 19 19 20 19
39 40 39 39 40 39 36 36 36 37 37 38 37 33 30 29 27 26 24 23 20 19 18 18 18 17 17 16 18 20 21 22 21 21 22 22 22 22 19 17 16 16 16 17
37 37 37 38 38 38 37 38 37 37 34 32 28 25 23 21 20 19 19 18 17 15 16 17 19 21 22 21 21 21 21 22 23 23 22 21 20 19 17 16 16 14 14 12
35 35 34 34 35 35 33 33 32 30 28 26 24 23 22 20 19 19 19 19 18 17 19 20 22 23 23 23 23 23 22 22 21 20 20 19 17 15 15 15 14 14 13 11
31 31 32 32 31 30 29 27 26 25 24 23 22 21 20 19 20 20 21 21 19 17 18 20 20 20 21 22 21 21 20 19 19 18 17 15 14 15 14 13 12 10 10 10
27 27 27 26 26 25 24 24 24 23 23 22 21 21 21 21 21 19 18 17 18 18 19 18 18 18 18 20 20 20 18 17 16 16 15 11 10 13 10 11 12 11 12 12
25 25 24 23 23 23 23 24 23 22 22 22 20 19 19 19 19 18 16 14 18 19 19 19 18 17 17 18 19 18 17 15 13 13 13 13 13 13 13 11 12 11 10 10
23 23 23 22 22 22 23 23 22 22 21 21 21 20 18 17 17 17 18 16 19 19 17 16 15 15 16 18 18 17 16 15 14 13 11 11 10 10 10 10 10 10 7 6
23 23 22 21 21 21 22 22 22 21 20 20 20 20 19 19 19 16 14 20 18 16 15 14 14 14 15 17 16 14 13 12 12 12 12 11 11 11 8 7 9 8 6 7
23 23 22 23 22 20 19 21 21 21 21 22 21 21 19 17 17 19 18 17 16 15 14 11 8 9 14 14 13 11 10 9 10 8 7 5 6 8 8 7 7 7 6 3
19 20 21 21 20 21 21 21 20 19 18 19 19 19 19 19 16 17 17 17 14 12 10 9 10 12 12 10 9 9 9 10 9 8 8 7 5 4 4 5 6 5 4 2
18 17 17 17 17 18 17 18 18 18 17 16 17 17 18 18 17 16 15 15 15 15 13 11 10 8 6 5 6 7 7 7 7 7 6 5 3 3 3 4 3 2 1 -0
15 16 15 14 14 14 14 14 13 13 15 13 12 14 13 14 15 14 13 12 11 10 10 10 10 9 7 6 6 5 4 4 5 5 3 1 1 1 0 -0 -1 -1 -2 -3

GFSNGP_sfc_30mbdewp_066.txt.gz
Dewpoint
21 21 21 23 24 21 21 23 22 25 29 29 29 29 29 29 25 30 32 37 39 44 52 53 53 53 54 56 56 54 54 56 54 53 54 52 50 49 48 48 47 46 45 44
24 23 21 19 21 25 24 23 25 26 27 30 28 29 31 29 28 25 30 35 40 45 53 53 53 54 55 56 55 54 52 50 50 49 49 48 47 47 46 45 44 44 43 43
28 26 22 22 23 25 24 25 26 26 29 29 27 29 29 28 27 26 27 31 41 46 52 52 52 52 52 52 52 51 50 49 48 48 47 46 45 45 43 43 43 42 42 41
32 26 22 24 26 25 24 23 23 25 27 29 29 29 28 27 26 26 26 30 40 47 53 53 51 51 50 50 50 50 49 48 47 46 45 44 43 42 42 42 41 41 40 39
31 25 26 27 25 24 23 23 25 23 22 21 22 25 28 31 27 29 28 32 41 50 53 51 50 49 49 49 49 49 48 47 46 45 43 42 42 41 40 39 39 38 38 36
30 29 22 25 26 28 29 24 26 25 24 24 26 22 24 31 35 36 39 49 50 52 50 50 49 48 48 47 47 47 47 46 44 43 42 41 41 40 39 39 39 38 33 29
30 30 31 34 35 31 23 24 32 31 28 28 26 26 27 34 40 43 46 50 51 51 50 49 48 47 46 45 45 44 44 42 42 42 41 41 41 41 39 35 34 31 28 26
31 29 26 36 34 29 33 35 34 36 36 33 30 34 34 37 40 43 46 48 49 49 49 47 47 46 44 43 42 42 42 41 41 41 41 40 38 35 32 30 29 27 26 24
30 24 32 36 38 41 41 39 39 38 37 38 36 34 38 40 42 44 46 46 46 46 45 44 43 43 41 41 41 41 41 40 39 38 37 34 34 31 28 26 26 26 24 23
30 26 28 33 36 32 37 36 37 40 38 38 37 36 38 40 41 42 44 44 43 43 42 42 41 41 41 41 41 39 37 35 33 32 27 26 26 27 26 25 25 25 24 23
31 32 34 36 36 35 34 35 37 38 37 37 36 39 38 39 40 41 42 41 42 42 41 40 40 39 39 38 37 34 30 27 25 23 23 22 21 22 23 23 24 24 23 23
28 33 33 34 27 29 36 32 33 36 37 38 38 37 39 39 40 39 40 40 40 40 39 38 37 36 35 34 32 27 23 23 21 21 22 17 16 17 23 24 23 23 22 21
35 37 38 30 30 34 35 37 38 38 39 38 38 39 39 39 38 38 39 40 39 36 35 33 31 30 29 27 26 24 21 21 21 20 20 18 16 16 16 21 20 19 20 21
39 40 36 37 33 38 38 38 38 38 38 38 38 40 39 38 38 38 38 34 28 25 24 24 24 24 25 25 24 23 22 22 22 22 22 21 21 22 21 20 20 20 21 21
36 40 39 40 39 37 37 37 36 37 38 37 37 37 37 35 32 28 24 21 20 19 19 20 21 22 23 23 22 21 21 22 24 24 24 24 24 24 23 23 23 22 22 22
36 37 38 38 39 38 37 37 36 35 32 29 28 26 25 24 23 22 22 22 22 20 19 19 19 22 24 25 25 25 24 25 25 24 24 23 23 23 22 22 21 20 20 18
35 33 34 35 36 34 33 32 32 29 27 25 23 22 21 19 18 18 18 20 22 22 23 23 24 25 25 26 25 24 24 24 23 23 22 22 21 21 20 20 19 18 18 17
32 33 33 33 32 31 29 27 26 25 24 23 22 21 20 19 18 18 20 21 20 20 21 22 23 23 23 23 23 23 22 22 21 20 20 19 18 18 18 17 17 16 15 13
29 28 28 28 28 27 25 24 24 23 22 21 21 21 21 21 21 20 19 18 17 16 17 20 21 21 21 21 21 20 20 19 19 18 17 17 16 17 16 15 14 14 13 14
24 24 23 23 24 24 23 23 23 22 22 21 19 18 17 17 18 17 16 15 16 16 18 18 18 18 19 19 19 18 18 17 17 16 15 14 14 14 14 14 13 13 12 12
22 22 22 21 21 22 22 22 21 19 20 20 18 17 17 18 18 17 15 13 17 18 17 17 17 17 18 18 17 16 15 15 14 14 13 13 12 12 11 11 11 10 9 8
21 21 20 21 20 20 21 21 21 20 19 19 18 17 16 16 16 16 17 14 15 16 15 14 15 16 17 17 16 15 14 13 12 12 11 11 10 9 9 8 9 9 8 7
21 21 21 20 20 20 20 21 20 20 19 18 18 18 17 17 18 14 11 15 14 14 13 13 14 15 14 13 12 11 10 10 9 8 7 6 7 6 6 6 6 6 6 5
22 22 22 22 21 18 17 19 19 19 19 18 18 18 17 14 15 15 15 14 12 11 12 13 12 11 10 9 8 8 8 7 6 5 5 4 3 2 2 3 3 3 2 1
17 17 18 17 17 18 18 18 17 17 16 16 17 17 17 16 14 14 13 12 11 11 10 8 7 6 6 6 6 6 6 5 5 4 3 1 1 0 0 0 0 0 0 -0
15 14 14 14 15 15 16 15 13 14 13 11 11 13 14 15 14 13 12 11 11 10 9 8 6 5 5 5 3 2 2 2 2 2 -0 -0 -1 -2 -3 -3 -4 -4 -4 -4
13 13 11 11 12 12 12 11 10 9 9 7 6 8 10 10 10 8 7 6 5 4 3 3 2 1 -1 -1 1 0 -1 -2 -2 -3 -3 -3 -4 -4 -4 -5 -6 -6 -7 -7

GFSNGP_sfc_30mbdewp_069.txt.gz
Dewpoint
34 32 27 22 21 21 21 22 20 21 22 23 25 26 27 28 30 29 27 32 37 39 42 47 50 50 51 51 53 53 53 53 53 54 55 57 57 56 54 53 51 50 48 47
33 31 26 23 21 23 23 23 23 24 24 30 29 30 29 29 30 29 27 30 37 41 46 48 49 50 51 52 54 54 54 55 56 56 56 55 54 51 51 49 48 47 46 45
29 32 31 26 24 22 21 25 24 23 25 27 29 29 30 30 31 30 29 29 35 41 48 51 51 52 52 54 54 55 54 53 52 53 52 51 50 48 47 46 45 45 44 43
29 29 25 30 29 25 23 23 26 27 27 27 27 28 30 31 30 29 29 28 31 42 50 52 52 54 54 54 53 53 51 51 50 49 48 47 47 46 44 44 43 42 42 42
25 24 26 23 28 26 24 24 26 25 25 25 25 25 23 26 28 29 29 29 30 40 50 51 51 52 52 52 52 51 50 49 48 47 46 45 44 43 43 43 42 41 41 40
30 25 19 15 26 25 29 25 27 26 26 25 26 23 24 25 29 31 30 35 40 48 51 50 49 51 51 50 50 50 49 48 47 46 45 44 43 42 41 41 40 37 35 36
30 28 28 32 31 35 31 28 33 33 30 26 25 26 28 30 32 39 41 46 49 50 49 49 49 49 49 49 49 49 48 47 45 45 44 43 42 40 40 39 34 32 29 28
30 28 23 35 38 37 37 38 38 37 37 36 37 35 34 35 35 43 45 49 50 49 49 49 48 48 47 47 45 46 45 43 43 42 42 41 39 38 36 34 31 28 26 25
29 27 30 32 32 35 41 41 39 38 38 38 37 35 37 38 41 44 47 49 50 49 48 47 47 47 46 43 43 43 42 42 41 41 40 38 36 33 33 31 30 27 25 23
30 27 30 28 33 39 41 40 39 39 38 37 36 38 37 38 40 42 45 46 47 47 46 45 44 44 43 42 42 41 40 39 37 34 32 33 31 30 29 29 28 25 24 22
27 28 31 34 35 34 34 37 37 39 36 36 36 36 38 39 39 42 43 44 45 45 44 42 42 42 41 41 40 37 35 32 29 28 26 25 25 25 25 26 27 25 24 22
29 36 38 33 34 33 33 35 36 37 37 38 37 36 37 37 40 41 42 42 42 42 41 40 40 39 39 38 35 32 29 28 27 25 23 23 22 22 26 26 26 25 25 23
36 38 38 40 37 38 36 35 38 38 38 38 38 37 36 35 39 40 41 41 40 38 37 35 34 33 32 31 30 29 27 25 24 21 20 19 19 19 19 21 22 22 22 22
36 38 39 39 39 39 38 38 38 39 38 37 38 39 40 39 37 35 32 29 29 28 27 26 26 26 26 26 25 24 23 23 22 21 21 21 21 21 21 19 19 21 22 22
35 37 38 40 37 36 38 38 36 33 31 29 28 30 29 26 24 22 22 22 23 23 24 24 24 25 25 24 24 24 23 24 25 25 25 25 25 24 23 23 22 22 22 22
34 36 35 36 35 33 32 32 31 28 26 24 23 22 21 21 22 22 22 23 23 23 24 25 25 26 26 25 26 26 26 26 26 25 24 24 24 23 23 23 22 22 21 20
31 32 32 33 33 30 28 28 27 25 24 23 21 21 21 21 22 22 22 23 23 23 24 23 23 25 25 25 25 24 23 23 23 22 22 21 21 20 20 20 19 19 17 18
30 29 29 29 29 27 26 25 24 23 23 21 21 21 20 20 19 20 20 19 19 19 20 21 22 22 22 23 23 22 21 21 20 19 18 18 18 18 17 17 17 15 15 15
25 24 24 24 25 24 23 23 22 22 22 20 19 18 18 18 17 17 18 17 16 15 17 20 20 20 20 21 20 20 19 18 17 17 16 16 16 16 15 15 14 14 14 14
21 22 22 21 22 21 20 21 21 20 20 19 18 17 15 16 16 15 15 13 15 16 17 18 18 18 18 18 18 17 16 16 15 14 14 14 13 13 13 12 12 11 11 10
20 20 20 20 20 20 20 19 18 17 17 18 16 15 15 16 16 15 13 11 14 16 16 17 17 17 17 17 16 15 14 13 13 12 11 11 10 10 9 9 9 9 8 8
20 19 19 19 18 18 19 19 19 18 17 17 17 16 14 13 13 12 13 12 14 15 15 15 14 14 13 13 12 11 11 10 9 8 7 6 5 4 4 4 5 5 6 5
20 20 19 18 17 17 18 18 17 17 16 16 15 14 14 14 14 10 9 13 13 13 13 12 10 10 10 10 9 8 7 6 5 4 3 3 2 2 2 2 1 1 1 1
18 19 19 19 18 15 15 16 17 17 16 16 15 16 13 11 11 12 12 11 10 9 8 8 7 7 7 6 5 5 4 3 3 2 1 -0 -1 -1 -1 -1 -1 -2 -2 -1
15 16 16 16 15 15 15 15 14 13 12 13 14 14 13 12 10 11 11 10 9 7 6 5 5 4 3 3 2 2 1 1 -0 -1 -1 -2 -3 -4 -5 -5 -6 -6 -6 -5
13 13 13 13 13 13 13 11 10 10 9 8 9 10 10 10 9 8 7 6 5 4 3 2 1 1 0 -0 -0 -1 -1 -2 -4 -4 -4 -5 -5 -5 -6 -6 -7 -7 -8 -9
11 11 10 10 10 9 9 7 6 5 5 5 4 7 7 5 4 3 1 0 -0 -1 -3 -5 -5 -3 -2 -3 -3 -4 -3 -4 -4 -4 -7 -7 -8 -8 -9 -10 -10 -11 -11 -11

GFSNGP_sfc_30mbdewp_072.txt.gz
Dewpoint
35 35 33 32 31 27 22 21 20 21 21 23 24 24 24 25 28 29 29 29 31 41 44 48 50 49 49 49 49 50 49 49 48 49 49 49 51 54 55 56 56 56 54 53
30 33 32 30 31 28 25 23 22 23 22 25 25 26 26 26 27 28 29 29 29 35 41 46 49 50 50 50 50 50 50 50 50 50 51 52 54 55 56 56 55 53 51 50
24 33 29 23 28 25 26 25 24 22 24 25 26 28 28 29 30 30 30 30 30 32 38 41 46 50 50 51 52 51 51 51 51 52 52 54 55 54 52 52 50 49 47 47
27 29 19 22 32 24 28 28 27 24 26 26 26 28 30 31 30 30 31 31 31 32 37 44 49 50 51 51 52 53 52 52 53 54 54 52 51 50 49 48 48 47 45 44
26 25 22 22 16 22 26 26 22 27 28 27 26 25 24 26 29 28 29 31 31 31 37 46 50 52 53 53 53 53 53 53 53 53 50 49 48 47 45 45 44 43 43 42
29 25 17 18 24 30 29 17 33 36 33 28 26 24 26 27 28 29 31 31 31 34 45 49 51 53 53 53 53 52 52 51 50 49 48 48 46 44 44 43 41 40 39 39
29 26 26 30 36 36 28 19 38 39 38 37 30 29 30 34 34 36 41 42 45 46 46 49 51 52 51 51 51 51 50 49 48 48 47 46 44 42 41 38 36 34 33 33
29 26 23 32 38 33 36 34 35 37 40 38 37 37 37 37 39 40 43 48 49 48 48 49 50 51 50 50 49 49 48 47 46 45 44 42 41 39 37 34 32 31 29 27
28 26 31 33 30 35 36 30 30 34 36 42 37 36 37 38 40 43 46 48 49 48 47 48 48 49 48 46 47 45 44 43 42 42 40 39 38 35 34 33 31 29 28 25
29 22 24 26 32 35 37 36 36 37 41 41 38 37 37 38 39 40 44 46 47 47 46 46 46 46 44 44 44 43 42 40 39 38 36 35 35 34 33 31 29 27 26 23
25 27 31 29 32 37 38 38 41 43 42 39 37 36 37 38 39 40 42 44 46 46 45 44 44 43 43 43 42 40 37 34 33 32 30 28 28 30 31 30 30 28 26 23
25 37 36 37 39 40 40 39 37 38 39 39 39 38 38 36 39 41 42 43 44 43 42 41 41 41 41 40 38 36 33 31 31 30 28 27 27 27 28 28 27 26 25 23
35 36 36 38 40 38 39 40 39 37 34 35 36 38 40 38 38 37 37 37 36 34 33 33 33 33 33 34 34 32 31 29 27 27 25 24 24 24 23 25 27 27 27 26
36 36 36 37 38 36 35 37 34 31 29 27 27 28 27 26 25 25 26 28 28 27 26 26 25 26 27 28 28 27 27 27 27 26 25 24 24 23 23 22 21 21 24 24
32 34 37 36 36 32 32 31 29 27 26 24 23 23 23 23 23 24 25 25 26 26 26 26 25 26 27 27 27 26 26 26 25 25 25 25 25 24 23 22 21 21 22 23
31 33 34 34 33 30 28 27 26 24 24 22 22 23 23 23 23 23 23 24 24 23 24 25 25 27 27 27 26 26 25 25 25 25 24 24 24 23 23 23 22 21 20 20
28 29 29 29 30 27 26 25 24 23 22 22 22 21 21 20 20 19 20 20 20 21 21 21 22 24 25 25 24 23 22 22 22 21 20 20 20 19 19 19 18 16 16 17
27 27 26 26 26 25 23 23 22 22 21 20 19 19 18 17 17 17 18 18 17 17 19 20 20 21 21 21 21 20 19 18 18 17 18 17 17 17 16 16 15 14 14 15
24 23 24 23 23 22 21 20 20 20 19 18 16 15 16 15 15 15 16 15 15 14 16 18 18 18 18 19 18 18 17 16 16 15 15 14 14 14 14 13 13 12 12 12
21 21 21 20 20 19 18 19 19 18 18 17 16 14 13 14 14 14 13 12 14 15 17 17 16 16 16 16 16 15 14 14 13 12 12 11 11 10 11 10 10 9 9 8
19 19 18 18 18 18 18 18 16 15 15 15 13 12 12 13 13 13 11 10 14 15 14 14 14 13 14 13 13 12 11 10 10 9 8 7 6 5 5 5 5 5 5 5
18 17 17 17 16 16 17 17 17 16 15 14 14 13 12 11 11 11 12 11 12 13 12 11 10 10 10 9 9 8 7 6 6 5 4 3 1 0 0 -0 -0 0 -0 -0
18 18 17 16 16 16 16 15 15 15 13 13 12 11 11 11 11 9 7 10 10 8 8 8 8 7 6 6 5 4 3 3 2 1 -0 -1 -1 -2 -2 -3 -4 -3 -3 -2
17 18 17 17 16 13 12 14 15 15 14 13 13 13 11 9 9 9 8 6 6 6 6 5 4 4 4 3 2 1 0 -1 -1 -2 -3 -4 -5 -5 -5 -5 -6 -7 -7 -7
14 15 15 14 13 13 13 13 12 11 11 10 10 11 10 10 7 8 6 5 5 3 2 1 1 0 -0 -1 -1 -2 -3 -4 -4 -5 -6 -6 -7 -7 -8 -8 -8 -9 -9 -10
12 11 11 11 11 11 11 9 7 8 7 6 6 6 5 5 4 3 1 0 -1 -3 -4 -4 -3 -3 -3 -4 -5 -5 -5 -5 -5 -6 -7 -8 -8 -8 -9 -10 -11 -12 -13 -14
11 11 9 8 7 6 5 5 4 3 3 3 2 3 1 -0 -1 -2 -4 -5 -6 -6 -6 -6 -6 -4 -4 -5 -5 -6 -6 -7 -8 -8 -10 -10 -11 -12 -13 -14 -15 -15 -16 -15

GFSNGP_sfc_30mbdewp_075.txt.gz
Dewpoint
30 26 28 29 31 30 30 28 23 22 21 23 24 25 26 28 28 28 29 31 30 35 44 49 50 50 50 51 51 51 51 50 50 51 51 51 51 51 51 52 52 52 53 54
28 28 24 26 30 25 29 29 26 25 24 25 25 26 26 26 27 27 28 29 30 32 38 45 49 49 50 50 51 51 51 50 50 50 50 50 50 51 51 52 52 53 54 54
25 31 31 23 21 27 25 27 27 25 26 26 26 27 28 28 30 30 30 30 32 31 34 40 46 50 50 50 50 50 50 50 50 50 50 50 50 50 52 53 54 54 54 54
27 29 20 19 28 30 28 27 26 27 26 28 27 28 29 31 31 31 31 31 33 34 35 37 43 48 50 50 51 50 50 50 50 50 50 50 51 52 53 55 55 52 51 50
27 25 23 20 17 20 24 21 36 33 37 36 35 31 28 27 29 31 33 32 33 34 34 36 41 46 50 51 51 51 51 51 51 51 51 52 53 52 51 50 49 47 46 45
28 24 18 18 26 35 29 23 36 38 38 39 36 32 32 36 37 36 35 34 35 35 34 37 46 50 49 50 51 51 52 52 53 53 51 50 49 48 47 47 45 43 42 41
27 25 26 29 30 37 25 23 34 34 34 37 36 36 37 39 39 41 42 46 48 46 44 47 51 52 51 52 52 53 52 51 51 51 50 49 47 45 44 41 38 36 35 35
26 24 21 31 34 28 29 35 34 31 32 37 39 40 38 38 39 40 44 48 49 48 48 50 52 52 52 51 50 50 50 49 49 48 46 45 43 40 38 36 33 31 30 29
29 27 30 34 32 31 35 34 34 34 34 34 38 39 40 38 39 38 42 47 48 48 47 47 50 50 49 48 49 48 47 45 44 42 41 41 39 36 35 34 32 30 29 28
28 27 28 29 31 38 39 40 40 40 38 38 40 41 41 39 40 40 42 45 47 47 46 46 47 48 47 47 46 44 42 41 40 38 37 36 36 35 33 32 31 29 27 25
28 27 32 30 38 39 38 39 39 39 40 41 41 40 39 39 39 42 43 45 46 45 44 43 44 44 45 44 43 41 38 36 35 33 32 31 30 32 31 32 31 29 27 25
24 34 34 35 38 38 36 38 37 33 32 33 34 36 38 36 36 38 41 42 42 41 40 38 39 39 40 41 39 37 35 33 32 31 30 29 28 27 29 29 28 28 27 25
34 36 36 37 38 36 34 34 34 30 28 28 28 29 28 27 27 29 30 30 31 33 32 31 30 31 32 34 34 34 32 31 29 29 28 27 26 25 23 27 28 28 27 27
34 34 36 36 36 33 31 31 30 28 26 26 26 26 26 27 27 27 27 28 28 28 29 29 29 30 31 30 29 28 27 27 26 26 25 24 24 24 24 22 21 23 26 25
28 31 33 36 35 31 29 28 27 24 24 24 24 25 25 25 24 24 26 25 25 25 26 26 26 27 29 30 29 28 27 26 26 26 26 26 25 24 24 23 22 22 23 24
27 29 32 32 31 28 28 26 25 23 23 23 22 22 22 21 20 20 20 21 20 20 22 22 23 25 27 26 25 25 25 25 25 25 24 24 25 24 23 23 22 21 21 19
24 25 25 26 27 26 25 25 24 23 21 21 21 20 19 18 17 17 18 18 18 19 20 20 20 22 23 23 22 22 21 21 22 21 21 21 21 20 20 19 18 17 17 18
24 25 25 25 24 24 23 22 21 20 19 18 18 17 16 16 15 16 17 17 16 16 17 19 19 20 20 20 20 20 20 19 19 18 18 18 17 17 17 16 15 14 15 14
22 21 22 22 22 21 20 19 19 18 18 17 15 14 14 14 15 15 16 15 14 13 14 17 17 17 18 18 18 18 17 16 16 15 15 14 14 13 13 13 12 12 11 11
19 20 19 18 18 18 17 17 17 16 16 15 14 13 12 13 14 13 12 11 12 13 15 15 15 15 15 15 15 14 14 13 12 11 11 10 10 10 9 9 8 8 8 8
17 17 16 16 16 16 16 16 14 13 13 13 11 11 11 11 12 13 10 8 11 13 13 12 12 12 12 12 11 11 10 9 8 7 7 6 6 5 5 5 5 5 5 5
17 16 16 15 15 14 15 15 14 14 13 13 13 12 11 10 10 8 9 8 10 10 9 8 7 7 7 6 6 6 5 4 4 4 3 2 2 1 1 1 1 1 2 2
17 16 16 15 14 14 14 14 13 12 11 11 10 9 8 8 9 6 4 7 6 6 5 6 5 5 5 5 4 3 2 2 1 1 0 -0 -0 -1 -1 -1 -2 -2 -2 -3
16 16 15 15 15 13 11 13 13 13 12 11 11 11 9 7 7 6 5 4 4 4 4 3 3 2 2 2 1 1 0 -0 -1 -1 -2 -2 -2 -3 -3 -4 -4 -4 -5 -5
14 14 14 13 12 12 12 12 10 10 8 7 7 7 7 7 5 5 3 2 1 1 1 -1 -0 -0 1 -0 -1 -2 -2 -2 -2 -2 -3 -3 -4 -4 -5 -6 -6 -7 -7 -7
12 10 10 10 10 10 10 8 7 7 6 5 4 4 3 2 1 -1 -2 -3 -3 -3 -2 -1 -2 -1 -2 -2 -2 -3 -3 -3 -3 -4 -4 -5 -6 -6 -8 -9 -9 -9 -10 -10
10 10 9 7 6 5 5 5 5 4 4 3 2 1 0 -0 -2 -2 -3 -3 -3 -3 -3 -2 -2 -2 -2 -2 -2 -3 -3 -4 -5 -5 -6 -7 -8 -9 -10 -10 -10 -11 -11 -11

GFSNGP_sfc_30mbdewp_081.txt.gz
Dewpoint
28 29 25 26 26 26 25 25 24 25 25 24 24 23 23 24 25 26 26 26 26 27 33 42 45 46 48 50 52 52 51 50 51 54 54 53 53 53 54 54 54 54 53 53
22 22 23 20 21 23 23 23 23 22 21 24 25 26 26 26 25 26 26 27 27 28 28 31 42 46 47 49 50 52 53 52 51 52 53 53 53 53 53 53 53 53 52 52
20 21 23 22 21 20 19 20 20 20 23 23 23 24 27 27 27 25 27 29 30 32 32 31 31 42 47 48 49 51 52 52 52 52 53 53 53 53 53 53 53 52 52 52
21 23 17 19 20 20 20 20 24 26 24 25 26 28 29 34 36 36 36 35 36 35 34 34 35 35 40 46 49 50 51 51 52 53 53 53 53 52 53 53 53 53 53 53
20 15 14 13 15 16 17 18 27 26 27 28 29 31 32 36 36 37 37 37 38 39 41 41 40 36 37 41 45 48 50 51 51 51 52 53 53 53 53 53 53 53 54 53
22 18 11 13 20 23 23 17 28 28 27 27 26 26 29 33 35 37 38 38 39 42 44 45 45 45 39 36 39 45 48 50 50 51 52 52 53 53 54 53 53 53 53 51
21 19 17 27 24 27 21 22 29 29 29 31 31 31 33 32 32 36 37 37 39 43 46 48 48 48 48 45 42 42 45 48 49 50 51 52 52 53 53 52 48 44 40 37
24 24 20 22 22 24 32 32 32 32 33 33 35 35 34 32 33 37 37 37 39 43 47 49 49 49 49 48 52 53 52 48 49 50 50 51 53 53 48 45 42 37 34 32
20 19 28 33 34 35 36 34 35 35 33 34 35 37 38 37 37 38 38 40 42 44 46 46 46 46 48 48 51 52 52 49 48 47 46 46 46 43 41 39 37 33 32 29
32 29 30 35 36 36 35 35 35 35 35 35 35 36 36 38 38 37 37 39 41 41 41 39 39 40 40 43 45 44 42 41 40 39 38 38 37 38 37 36 34 32 29 27
22 26 24 29 34 36 35 35 35 35 35 34 34 33 33 35 34 35 35 35 36 35 34 34 35 35 36 39 40 38 36 35 34 32 31 30 30 32 32 33 33 30 28 26
26 34 33 32 34 36 34 34 34 34 33 33 33 32 32 32 32 32 33 32 32 31 30 30 31 31 32 35 35 34 32 31 31 30 29 29 28 27 29 29 29 29 28 26
32 31 33 35 36 35 34 34 33 32 32 31 31 31 31 30 29 29 28 28 28 28 28 28 28 28 30 33 33 32 31 30 29 29 28 27 26 25 23 27 28 28 28 28
30 30 31 32 33 32 31 31 31 28 28 27 27 27 28 26 25 24 24 23 23 24 24 24 24 25 28 29 29 31 31 30 29 28 27 26 25 25 24 23 22 23 27 27
26 26 29 31 31 30 29 28 28 26 26 26 25 24 24 23 20 20 21 21 20 20 21 21 22 23 26 26 26 26 26 27 27 26 26 26 25 24 24 23 22 22 24 24
24 25 27 26 27 27 27 27 26 25 24 23 21 21 20 20 20 18 18 19 17 18 19 20 21 24 25 25 25 25 25 26 26 26 27 26 26 25 24 23 23 22 21 22
22 22 23 23 24 25 24 24 23 23 21 20 20 20 19 19 18 18 17 18 18 18 19 19 20 23 24 25 24 24 24 24 24 24 24 24 24 22 21 20 19 19 20 21
20 21 21 22 22 23 22 21 20 19 18 18 19 18 17 17 17 18 19 20 18 17 18 19 20 21 23 23 23 23 22 22 22 21 21 21 21 21 20 19 18 17 17 18
19 19 20 21 23 22 20 19 18 17 18 18 16 15 16 15 15 15 17 16 15 13 16 19 20 19 20 21 21 20 20 19 18 18 17 17 18 18 18 17 16 16 15 14
18 18 18 18 20 19 18 19 19 18 18 18 16 15 14 16 16 15 14 12 12 13 15 16 16 16 16 17 17 17 18 17 15 14 15 15 15 14 12 11 11 11 10 9
16 16 16 16 16 17 17 17 17 15 15 15 13 12 11 11 11 16 13 9 10 9 7 7 9 7 7 8 10 12 11 10 10 10 9 9 9 8 8 8 8 8 8 7
17 16 16 16 15 15 16 16 15 15 14 14 15 16 15 13 12 9 8 6 5 5 5 5 6 7 7 7 7 7 7 7 7 7 7 7 7 6 6 6 6 6 6 5
17 16 16 15 14 14 14 14 14 13 12 12 12 11 10 8 6 5 3 4 4 4 4 5 5 6 6 8 7 7 6 5 6 6 5 5 5 5 4 4 4 4 3 3
17 17 16 17 16 14 12 13 13 13 12 12 10 10 8 7 5 4 3 3 3 3 3 3 4 4 5 6 6 5 6 5 5 4 4 3 4 3 3 2 2 3 2 1
17 17 17 17 15 14 14 14 13 12 8 7 6 5 3 3 4 4 4 3 3 4 4 3 3 3 4 4 4 4 3 2 3 3 3 3 2 2 2 1 0 -0 1 1
16 14 14 15 15 14 14 13 9 7 6 6 6 6 5 4 4 3 3 2 2 3 3 3 3 4 3 2 2 2 2 2 2 1 1 1 1 1 -0 -1 -0 -0 -0 -1
15 16 14 11 9 9 9 8 8 7 7 7 5 4 4 4 3 2 3 3 3 3 4 3 3 1 1 2 2 2 2 2 -1 -1 1 0 0 0 -1 -1 -1 -1 -1 -2

GFSNGP_sfc_30mbdewp_087.txt.gz
Dewpoint
25 24 34 33 34 35 35 34 33 31 34 36 39 40 38 33 34 36 36 36 37 37 37 38 44 49 52 53 53 51 51 54 54 54 54 54 53 55 55 55 54 52 50 49
22 21 22 31 31 33 33 37 36 36 35 41 36 36 34 37 36 37 37 38 40 41 43 43 44 44 48 53 53 53 50 50 54 55 55 55 54 54 54 55 56 55 53 52
21 22 21 23 25 31 32 33 30 31 35 31 34 37 36 36 37 37 37 38 41 43 47 48 49 49 49 49 51 54 52 51 50 53 55 55 55 55 55 54 54 56 56 55
19 19 17 24 25 25 22 29 30 35 34 34 38 35 34 35 33 35 37 38 41 47 47 48 48 48 50 50 49 52 54 53 52 51 53 54 54 55 55 55 55 54 55 55
20 20 18 16 17 18 19 30 36 35 37 34 35 34 34 35 33 32 37 40 48 48 46 45 45 46 50 49 49 50 52 52 53 54 53 52 54 54 54 54 54 55 55 55
23 20 15 17 21 25 25 28 35 36 36 35 36 34 35 39 40 41 44 47 45 43 42 41 41 43 45 44 45 46 49 48 48 47 54 55 53 53 54 54 53 54 54 55
24 24 24 23 26 27 21 29 34 34 34 34 34 37 37 38 37 36 37 38 41 39 38 37 37 39 40 40 40 43 44 43 42 42 44 47 52 54 54 54 54 53 49 41
26 22 19 31 28 28 36 36 34 34 35 36 36 35 36 36 35 34 34 35 36 36 35 34 34 35 36 36 38 40 39 38 37 36 36 38 41 44 45 50 48 44 40 35
25 24 38 39 38 39 36 35 35 35 35 35 35 34 35 33 33 32 32 32 32 33 32 31 32 32 32 34 36 36 35 34 33 31 31 32 33 34 36 38 39 37 36 33
26 37 37 38 39 34 35 34 34 34 34 34 33 33 33 31 30 29 29 29 29 30 29 28 29 29 30 33 35 34 33 31 30 29 28 28 29 30 29 30 33 32 29 27
35 36 37 38 38 38 34 33 33 33 33 32 32 32 31 29 28 27 26 26 26 26 26 26 26 27 28 30 33 32 31 31 29 28 27 27 27 28 28 28 30 28 27 27
29 33 35 34 34 34 33 32 31 30 30 28 28 28 29 26 26 25 23 23 23 23 23 24 25 26 27 29 30 31 29 29 29 28 27 26 25 26 29 29 29 29 29 27
31 36 34 32 32 30 30 31 29 28 27 26 25 25 24 22 22 23 21 21 21 22 22 23 24 25 27 29 28 27 27 26 26 25 25 25 25 23 22 25 28 28 29 29
27 33 29 28 28 28 28 29 28 27 25 23 22 21 19 19 18 19 20 20 20 21 21 23 23 24 27 28 28 27 26 25 25 25 24 24 23 23 23 22 21 22 26 28
27 25 26 26 26 26 26 26 25 25 24 22 20 19 18 17 17 18 19 18 18 19 20 21 22 23 25 26 26 26 26 26 25 25 24 24 23 23 22 22 21 20 20 20
22 23 23 23 24 25 24 23 23 23 23 22 20 19 19 18 17 17 18 18 16 16 18 19 20 22 24 23 24 23 24 24 22 22 21 21 20 19 18 18 18 18 17 17
21 20 21 21 24 23 22 21 21 20 19 19 19 21 21 17 16 15 15 15 15 16 17 18 19 21 21 22 21 20 20 21 21 21 20 19 18 18 17 16 16 15 15 16
21 22 22 24 22 20 19 18 17 17 16 16 15 14 12 12 11 12 13 13 13 12 14 17 19 19 21 20 20 20 19 18 18 18 17 17 16 16 15 14 14 13 13 14
18 18 18 20 20 19 18 18 17 16 16 15 14 13 12 11 11 11 11 10 10 9 11 15 17 18 18 20 19 18 17 17 17 16 16 16 15 15 14 13 12 12 11 10
16 16 16 16 17 15 15 15 15 14 15 13 12 11 9 12 11 10 9 8 10 11 13 14 16 15 16 17 18 16 16 15 14 13 12 12 12 12 12 11 11 10 9 9
16 15 15 14 14 14 15 15 13 13 14 13 10 9 8 9 8 11 8 6 8 9 10 11 12 11 10 11 12 12 12 12 11 11 11 10 9 9 9 8 8 8 8 7
15 14 13 13 13 13 14 14 13 13 12 12 12 11 11 9 6 6 7 7 7 7 9 10 10 11 12 10 10 9 9 9 9 8 8 6 6 6 5 4 3 5 5 2
15 15 14 12 12 12 12 12 12 11 10 10 11 9 7 7 6 4 3 5 6 7 7 8 9 9 7 7 8 9 8 7 7 7 6 5 3 3 4 5 2 2 3 2
17 16 15 15 15 13 11 12 12 11 8 8 7 8 9 8 8 9 9 7 6 6 7 9 7 6 8 7 4 3 4 6 5 4 4 2 4 3 -0 -1 1 2 2 1
16 15 15 14 13 12 13 13 13 12 10 9 8 7 6 7 6 8 7 7 8 4 4 4 7 6 5 5 6 5 4 2 3 3 2 3 -0 -1 1 1 1 1 -0 -2
17 16 17 18 18 18 17 16 13 11 10 8 8 6 6 9 9 7 6 6 7 7 3 2 2 3 5 4 5 1 -1 -1 1 2 1 2 2 -1 -1 0 0 0 -1 -2
18 18 16 14 13 14 13 13 11 10 10 7 8 9 7 6 6 6 6 5 4 7 7 4 2 2 1 2 2 3 3 2 2 1 1 0 1 -1 -2 -3 -2 -2 -1 -2

GFSNGP_sfc_30mbdewp_090.txt.gz
Dewpoint
27 26 33 33 32 33 33 35 32 34 34 36 40 42 45 45 39 38 40 42 44 45 47 47 49 51 54 53 53 54 54 53 53 53 53 54 55 54 54 53 51 50 49 49
22 24 26 20 32 33 34 36 37 37 36 39 41 45 43 44 41 38 40 45 46 47 47 47 48 49 50 53 54 54 54 54 54 53 53 53 53 55 55 54 54 52 51 50
19 22 18 18 24 33 29 36 33 32 35 40 40 41 42 40 36 37 41 46 47 46 46 46 47 49 50 50 52 55 53 53 54 55 54 54 54 54 54 55 55 55 53 52
21 19 9 18 22 26 34 35 33 35 38 38 39 40 40 43 44 44 46 46 44 43 43 43 44 46 46 47 47 49 51 52 52 53 55 55 54 54 54 54 54 54 55 54
18 17 18 15 17 25 30 33 37 37 38 38 41 39 38 39 41 43 43 42 40 40 39 39 39 42 43 43 43 44 45 45 46 47 50 53 55 55 55 54 54 54 54 55
22 19 14 18 25 28 31 31 36 36 37 36 37 35 37 36 36 36 37 38 37 37 36 35 36 39 39 39 40 41 41 41 41 42 45 45 47 51 56 55 55 56 55 55
22 21 23 28 33 33 23 30 35 36 36 37 36 38 36 35 33 34 33 34 35 34 33 33 33 35 36 36 36 38 38 37 36 36 38 39 42 43 44 48 55 55 54 43
24 22 19 37 34 31 35 35 36 36 36 35 35 34 33 32 31 30 30 31 32 32 31 30 31 32 33 33 35 36 35 33 32 31 32 34 36 37 38 39 40 38 36 33
25 23 37 37 36 36 36 36 36 35 35 34 34 32 31 30 29 27 28 28 29 29 29 28 29 29 30 31 34 34 32 30 29 28 29 29 30 31 34 36 35 32 30 28
31 36 35 39 37 36 37 36 33 32 32 33 32 31 29 28 27 26 26 26 26 26 26 26 27 28 29 30 33 32 31 29 28 27 27 28 28 28 28 31 31 31 30 28
33 35 35 36 37 37 34 32 31 30 28 28 28 28 27 25 25 24 24 24 24 24 24 24 25 26 28 29 30 30 29 29 27 27 26 26 27 28 28 28 29 27 27 27
27 31 33 32 34 35 33 31 29 28 26 25 24 24 23 22 23 22 22 22 21 22 23 24 24 25 27 28 28 28 27 27 27 26 25 24 24 25 28 29 29 29 28 27
30 33 33 33 31 30 30 28 26 25 23 22 21 21 20 19 20 20 19 20 20 21 22 23 23 24 26 28 27 26 26 25 25 25 24 24 23 22 22 23 25 28 29 29
30 34 27 27 26 27 28 26 25 23 22 21 19 18 18 18 18 18 18 19 19 20 20 22 22 23 25 26 27 26 25 25 25 24 24 23 22 21 20 18 17 18 22 23
26 28 27 26 25 24 25 25 24 23 22 20 18 18 17 16 16 16 17 17 16 16 18 19 20 21 23 23 24 23 23 23 23 23 22 22 21 20 19 18 17 17 17 17
22 22 23 24 24 23 22 22 21 21 22 19 17 17 16 15 14 14 14 14 13 14 16 16 18 20 21 21 21 21 21 21 20 20 19 18 18 17 16 15 14 13 13 14
20 19 19 22 21 20 19 19 19 19 18 17 19 17 15 14 13 12 12 14 13 13 15 16 16 20 20 20 19 18 19 19 19 18 17 17 16 15 15 13 12 12 12 13
19 19 21 21 20 18 17 16 16 16 15 15 14 12 11 10 10 10 11 11 11 11 12 15 17 17 19 19 18 18 18 17 17 16 16 15 15 14 13 12 12 10 10 10
16 17 18 18 18 16 15 15 15 14 13 13 11 10 10 10 9 9 10 8 8 8 10 14 16 15 16 18 17 17 16 15 15 14 14 14 13 12 11 10 9 9 8 7
15 15 15 15 16 15 14 14 14 13 12 10 9 9 8 9 9 8 8 7 8 10 12 13 13 13 13 14 15 14 14 13 12 11 11 10 10 9 9 9 8 7 7 6
13 13 12 12 12 12 12 12 11 11 11 10 8 7 7 7 8 9 6 5 8 10 11 11 12 11 10 10 11 11 10 10 9 8 8 7 7 6 6 6 5 5 4 4
12 11 11 11 11 11 12 11 11 11 10 10 10 9 7 5 5 6 7 7 8 9 10 10 9 8 9 9 9 8 8 7 7 6 5 5 4 3 2 3 2 2 1 -0
13 12 10 10 10 10 10 10 10 9 9 9 8 7 7 7 5 3 3 7 8 9 8 8 8 7 6 6 6 7 5 5 5 3 2 2 1 1 1 1 -0 -0 -1 -2
12 11 11 11 11 10 9 10 10 8 8 8 9 10 8 7 8 8 7 6 5 6 8 8 6 7 5 4 3 3 3 3 2 1 1 0 -2 -3 -2 -1 -1 -2 -2 -3
15 15 15 14 11 11 11 12 12 12 9 9 9 7 6 8 6 7 8 6 4 3 3 5 6 6 4 3 2 2 2 2 1 2 -0 -2 -1 -1 -1 -2 -2 -2 -4 -5
16 16 16 16 15 15 14 14 12 10 8 6 6 7 8 7 7 7 7 8 6 2 1 1 2 2 3 2 -1 -2 -1 1 0 0 1 -1 -2 -3 -2 -3 -2 -2 -3 -4
17 17 15 14 15 13 13 12 10 10 9 7 5 6 7 7 7 6 4 4 5 6 4 2 1 0 1 1 2 2 1 1 0 -1 -2 -1 -2 -3 -5 -4 -3 -3 -4 -4

GFSNGP_sfc_30mbdewp_093.txt.gz
Dewpoint
26 28 27 31 31 32 32 33 30 32 33 37 40 42 43 44 46 45 46 45 46 47 48 49 50 51 53 54 54 54 54 53 54 55 55 54 53 52 52 51 50 49 48 48
22 24 27 25 19 20 29 33 34 36 35 37 44 45 44 44 46 44 45 44 44 45 45 46 48 48 49 50 52 54 54 54 54 54 54 54 55 53 53 52 52 51 50 49
19 21 19 11 21 23 31 32 34 32 35 38 42 43 41 45 44 46 43 42 42 42 42 42 45 45 45 46 48 51 53 54 54 54 54 54 54 54 55 54 54 52 51 51
21 19 6 12 16 35 32 36 36 36 39 40 40 40 42 45 44 42 41 40 39 39 38 38 41 43 43 43 44 44 44 45 45 47 50 53 55 54 54 54 55 55 54 53
18 16 13 16 23 26 26 28 38 39 40 40 40 40 38 39 39 39 38 37 36 36 35 35 37 40 40 39 40 40 40 40 41 41 44 45 48 50 55 54 54 55 55 55
21 17 9 19 31 34 35 28 38 40 40 40 39 35 35 37 37 35 35 35 34 33 32 32 33 36 37 37 37 37 37 36 36 36 38 39 41 43 45 48 53 55 54 54
23 20 20 23 35 35 25 27 37 39 40 40 37 37 35 33 32 32 32 32 32 31 30 30 31 33 34 35 35 35 34 32 31 31 33 33 34 36 39 42 43 41 36 33
24 22 18 35 35 29 35 36 36 36 37 36 35 33 31 29 28 29 29 29 30 30 28 28 29 31 31 32 34 34 31 29 29 29 30 30 31 32 34 35 35 34 33 30
24 23 36 37 36 37 36 33 33 33 34 33 31 30 29 27 27 27 27 26 27 27 27 26 27 28 29 30 33 32 30 28 28 28 28 29 29 29 30 31 32 31 31 30
32 35 36 37 37 35 36 34 31 30 30 31 30 28 27 25 25 24 24 24 25 25 25 25 26 27 28 29 31 31 29 27 27 27 27 28 28 28 27 28 28 28 27 26
31 32 34 34 36 35 33 32 30 29 28 26 26 25 24 23 22 22 22 22 23 23 23 24 25 26 28 28 29 28 28 27 27 26 26 26 27 27 27 28 28 26 25 25
26 30 31 30 33 35 31 29 26 25 23 22 23 22 22 22 21 20 20 21 21 22 23 23 24 25 26 27 27 27 26 26 26 25 25 25 23 23 26 27 28 29 29 28
28 32 30 31 32 31 28 26 24 22 21 20 19 19 19 19 19 19 19 19 19 20 21 22 22 23 25 27 26 25 25 25 25 25 24 24 22 21 18 19 22 24 25 25
30 32 29 28 27 27 26 25 24 21 20 19 18 18 17 17 17 17 16 17 17 17 18 19 19 20 22 24 24 24 24 24 23 23 22 22 20 19 17 16 15 15 18 22
27 25 26 26 24 23 23 23 22 21 20 17 17 16 15 14 14 14 14 14 14 15 16 17 17 18 21 21 21 21 21 21 20 20 20 19 17 16 15 14 13 13 13 14
21 21 22 23 21 20 19 19 19 18 19 17 16 15 14 13 13 13 13 13 12 12 14 15 16 18 19 19 19 18 19 19 18 18 17 17 16 15 14 13 12 11 10 11
19 17 19 20 19 18 17 17 17 17 16 16 16 15 13 12 11 11 11 12 12 12 13 14 14 17 18 17 18 17 17 17 16 16 15 15 14 14 13 12 10 9 8 10
18 20 20 20 19 17 15 15 14 14 13 13 12 10 9 9 9 9 9 10 9 9 11 13 15 15 17 16 16 16 16 16 15 14 14 13 13 13 11 10 9 8 7 6
17 17 17 17 17 16 14 13 13 12 12 11 9 8 8 8 8 8 8 7 7 7 9 13 14 13 13 16 15 15 14 13 12 13 12 11 11 10 9 8 7 6 5 4
14 14 14 13 15 13 13 13 12 11 11 9 8 7 7 7 8 7 7 6 7 9 11 11 12 11 11 12 12 11 11 11 10 9 9 8 8 7 7 7 6 5 2 1
11 11 11 11 11 11 10 10 9 9 9 7 6 6 6 6 6 6 5 5 8 10 10 9 9 10 10 9 9 9 8 8 7 6 6 5 4 4 4 4 3 2 2 -0
10 10 9 9 9 9 10 10 9 9 8 8 7 5 4 4 4 6 7 7 9 8 9 8 8 7 7 8 7 7 6 5 4 4 3 3 2 1 1 1 0 -1 -2 -3
10 10 9 9 9 9 9 9 8 8 8 6 5 5 6 6 5 2 3 7 8 8 7 7 6 5 5 5 5 4 3 3 2 1 1 0 -0 -0 -1 -1 -2 -2 -4 -5
10 10 10 10 10 10 8 9 8 8 8 9 9 8 7 6 7 8 8 5 5 6 7 6 5 4 3 3 2 2 1 0 0 -0 -2 -3 -3 -2 -2 -2 -2 -4 -4 -5
10 10 11 12 11 9 10 11 11 11 9 9 8 7 8 8 5 7 4 3 3 3 3 4 4 1 0 -0 1 1 0 0 -1 -2 -2 -2 -2 -2 -3 -3 -3 -4 -5 -5
15 14 14 14 14 13 12 13 11 9 6 6 7 6 5 7 7 7 7 6 3 1 1 0 1 2 -0 -2 -2 -0 -0 -0 -0 -1 -2 -3 -4 -4 -4 -4 -4 -4 -5 -6
16 15 14 13 13 13 13 12 11 9 7 3 3 5 6 6 6 4 4 4 4 4 3 2 -0 0 0 0 0 -0 -1 -1 -2 -2 -3 -3 -4 -5 -6 -6 -6 -7 -7 -6

GFSNGP_sfc_30mbdewp_096.txt.gz
Dewpoint
24 24 28 27 28 30 29 32 29 29 32 34 37 41 42 43 46 45 42 42 43 44 46 47 49 51 55 54 54 54 55 54 53 53 54 53 52 51 50 49 48 48 49 49
22 21 27 23 22 20 21 22 25 33 32 36 39 44 44 45 45 42 41 40 40 40 42 44 44 45 46 47 49 55 54 53 54 54 54 54 53 52 52 51 50 49 48 48
16 21 20 9 17 30 31 32 33 31 34 36 39 42 43 44 43 41 40 39 38 38 38 39 42 42 42 43 45 46 47 47 48 52 54 54 55 54 53 52 52 51 50 49
20 21 8 7 16 30 28 32 35 34 35 40 39 39 39 41 40 38 38 37 36 36 36 35 38 39 40 40 40 40 40 40 41 43 45 46 50 53 54 55 54 53 52 51
17 17 15 16 26 30 29 29 39 40 40 40 40 39 36 38 37 37 36 36 35 34 33 33 33 37 38 37 37 36 36 35 36 38 39 40 41 42 44 45 52 55 55 54
21 17 11 12 32 34 33 27 37 40 40 41 39 34 32 35 35 34 35 34 32 31 31 31 31 35 35 35 35 34 32 32 32 33 34 34 36 37 39 42 42 43 38 34
23 20 22 28 33 34 19 27 37 39 41 39 34 33 33 32 31 31 30 30 31 29 29 29 30 32 32 33 33 31 30 30 30 31 31 32 33 34 35 36 36 33 31 30
22 21 18 35 34 28 34 33 35 36 36 35 34 32 31 31 29 28 27 27 27 28 27 27 28 30 30 30 33 31 29 29 29 29 30 30 30 31 31 33 32 31 30 29
26 24 35 36 35 35 32 31 32 33 34 33 31 30 29 26 25 25 25 25 25 26 26 26 27 28 28 29 31 30 28 27 27 28 28 28 28 28 29 29 29 28 27 26
29 33 34 35 35 35 33 31 30 31 31 29 27 26 24 23 23 22 22 23 24 24 24 24 25 26 28 28 30 29 28 26 26 26 26 27 28 27 26 26 26 25 24 24
30 30 32 31 32 31 31 31 28 27 27 27 26 25 24 22 21 21 21 22 22 23 23 23 24 25 27 27 28 27 27 26 26 26 24 23 24 25 26 27 27 26 26 26
24 28 29 28 30 31 28 27 26 25 21 20 21 21 20 20 20 19 19 19 20 20 21 21 21 22 24 27 27 26 26 25 26 25 25 23 21 20 23 25 26 26 26 25
26 30 30 30 30 30 27 25 21 19 19 18 18 19 19 18 18 17 17 17 17 18 19 19 19 20 21 23 25 24 24 24 24 23 22 21 19 18 16 17 19 22 23 24
28 30 28 26 24 25 25 23 21 19 18 18 17 17 16 15 14 14 15 16 16 16 16 17 17 18 20 21 21 21 20 21 20 20 20 18 16 15 14 13 13 13 16 19
24 24 27 23 20 20 20 21 20 19 17 16 15 14 13 13 12 13 13 14 13 13 14 15 16 17 19 20 19 19 19 19 18 18 17 16 15 14 14 13 12 11 12 12
20 19 23 20 18 17 17 17 17 16 18 15 14 13 13 12 12 12 12 12 11 10 12 13 14 16 18 18 17 17 17 17 17 16 15 14 14 13 11 10 9 8 8 8
17 17 18 19 17 16 15 15 15 15 14 13 14 13 12 11 10 10 10 11 11 11 12 13 13 15 16 16 16 15 16 16 16 15 14 14 13 12 10 9 7 6 5 8
18 18 18 17 16 15 14 13 13 12 12 11 10 9 8 8 7 8 8 9 9 9 10 11 14 13 14 15 15 14 14 14 14 13 12 12 11 10 8 7 6 5 5 4
16 16 16 16 14 13 12 12 12 11 11 9 7 7 6 6 6 6 6 6 6 6 8 10 13 11 11 14 13 13 12 12 11 11 10 9 9 8 7 5 4 3 2 2
13 13 13 12 13 12 12 12 10 9 8 7 5 5 5 5 6 5 5 5 6 7 9 9 9 10 10 10 10 10 9 9 8 7 7 6 5 5 5 3 2 0 -0 -0
11 11 10 10 9 9 9 8 7 7 6 5 5 4 4 4 4 4 4 4 7 8 8 8 7 8 8 8 8 7 6 6 5 4 4 3 2 2 1 1 -0 -1 -2 -2
9 8 8 8 8 8 8 8 7 6 6 5 3 3 2 3 4 5 5 5 8 6 7 7 6 5 5 6 5 5 4 3 3 2 2 1 1 0 -1 -1 -2 -3 -4 -5
9 8 8 8 8 8 7 7 7 6 5 4 4 4 5 5 4 1 1 6 7 7 6 4 4 3 3 3 2 2 1 1 1 -0 -1 -1 -1 -2 -2 -2 -3 -5 -6 -6
9 9 8 8 8 8 8 8 7 7 7 8 8 6 6 5 6 9 6 5 4 5 5 4 2 2 2 1 1 -0 -1 -1 -2 -3 -3 -3 -4 -3 -4 -4 -3 -5 -5 -6
9 9 9 9 9 8 8 9 9 9 9 8 6 7 8 8 4 4 1 1 3 3 2 2 -0 -2 -1 -0 -0 -0 -1 -2 -3 -2 -3 -3 -3 -4 -4 -4 -5 -5 -6 -6
10 11 11 12 12 12 11 11 10 10 7 5 5 4 4 5 6 6 6 4 1 0 0 -1 -0 -0 -2 -2 -1 -1 -1 -1 -2 -3 -4 -4 -5 -5 -5 -5 -6 -6 -7 -7
14 14 14 13 13 13 13 13 11 9 7 3 3 4 5 5 3 3 2 2 2 2 1 0 -1 -1 -1 -1 -1 -2 -2 -3 -3 -3 -5 -5 -6 -6 -7 -7 -7 -8 -8 -8

GFSNGP_sfc_30mbdewp_099.txt.gz
Dewpoint
24 24 28 26 25 25 22 25 25 23 25 24 31 36 43 45 42 41 40 40 40 39 42 43 44 46 49 53 55 55 54 54 53 54 54 53 53 52 51 51 51 51 51 51
19 22 25 21 21 17 20 24 25 24 23 28 35 37 44 44 41 40 39 38 38 38 37 40 42 42 43 44 51 55 55 54 54 54 54 54 53 53 52 51 51 50 50 50
13 22 20 11 16 16 27 31 31 28 31 34 37 38 41 40 39 38 37 36 36 36 35 36 40 41 40 40 41 42 42 43 45 48 49 51 54 53 53 53 52 51 50 50
18 19 3 11 18 24 23 27 34 36 38 39 37 36 36 36 36 35 35 35 34 34 34 34 37 38 39 38 38 37 37 37 39 41 42 43 44 45 46 49 53 52 52 51
17 16 15 18 30 27 27 21 36 39 39 38 39 38 32 32 32 33 34 33 33 33 33 33 34 36 36 35 34 33 33 33 34 36 36 38 39 40 41 44 43 39 38 40
22 16 10 20 30 34 34 22 35 38 40 36 37 32 29 30 31 32 32 31 30 30 30 30 33 34 34 33 32 31 31 31 32 33 33 35 36 37 38 39 36 35 33 32
23 18 20 31 33 34 12 23 35 36 37 37 32 31 30 31 30 31 30 28 29 28 28 28 30 32 32 32 31 30 30 31 31 31 31 32 33 34 35 34 33 31 30 29
22 20 17 34 32 28 32 33 34 33 33 30 30 30 29 29 28 28 28 26 26 27 26 27 28 29 30 31 30 29 29 29 29 29 29 30 31 31 31 32 30 29 28 27
27 27 34 35 33 34 33 31 31 31 31 31 29 27 27 25 23 23 23 24 24 25 25 25 26 28 28 29 30 28 28 27 27 27 28 28 28 29 28 28 28 28 27 27
27 29 28 31 31 31 30 28 28 29 30 29 27 26 25 24 22 21 22 22 23 23 23 23 24 25 27 28 29 28 27 26 25 24 25 25 26 26 27 27 26 26 26 26
28 28 30 29 29 30 28 29 27 25 25 26 25 23 22 21 21 20 19 20 20 20 20 20 21 22 24 27 27 26 26 26 25 24 22 22 24 25 25 27 26 25 25 25
23 27 27 26 29 29 26 24 24 22 20 20 20 20 19 18 18 17 17 18 18 18 19 19 19 20 22 24 25 26 25 25 25 24 23 21 20 21 23 24 24 24 24 24
26 30 28 27 28 28 25 22 19 18 18 17 17 17 17 16 16 16 16 16 16 17 17 18 18 18 20 22 22 22 23 24 23 22 21 20 20 19 18 18 20 22 22 23
27 29 26 24 22 23 23 20 18 17 16 15 15 14 14 13 13 13 14 14 14 15 15 16 17 18 20 21 21 21 21 20 21 20 20 19 18 17 17 17 16 16 17 20
25 27 24 23 19 18 19 18 18 16 15 14 13 13 12 12 12 12 12 12 12 13 13 14 15 16 19 19 19 19 20 19 19 19 18 18 17 16 16 15 14 14 15 14
20 23 20 18 16 16 15 15 15 15 15 14 13 13 12 12 11 11 12 11 11 11 12 13 13 15 17 17 18 18 18 17 18 18 17 16 16 14 13 12 11 11 10 11
19 16 18 17 16 15 14 14 14 13 13 12 12 12 11 10 10 10 10 11 11 11 11 12 13 14 16 16 17 17 17 16 16 16 15 14 14 12 11 10 9 8 7 8
17 17 17 16 15 13 12 12 12 11 11 10 9 8 8 8 8 8 8 9 8 8 9 11 13 13 13 15 16 16 16 15 15 14 14 13 12 11 10 9 8 7 7 4
16 15 15 14 13 12 11 11 11 10 9 8 6 6 6 6 7 6 6 6 6 6 7 9 11 11 11 13 14 14 14 13 13 12 11 11 10 9 7 6 5 4 4 3
13 13 12 12 12 11 11 10 9 8 8 6 5 5 5 5 5 5 5 5 6 7 9 8 9 9 10 9 9 10 11 11 9 9 9 8 7 6 4 3 3 3 3 3
11 11 10 9 9 8 7 7 6 5 4 3 3 3 3 4 4 4 5 4 6 7 7 7 6 7 7 7 7 9 9 8 7 7 6 6 5 4 4 3 2 2 2 2
9 8 8 8 8 8 7 7 6 5 5 4 3 2 2 3 3 5 5 5 6 6 5 5 5 5 4 5 6 6 5 5 5 5 5 5 4 4 3 2 1 1 0 -0
9 9 8 8 8 8 7 7 6 5 4 3 4 5 5 5 5 2 2 6 6 6 4 4 4 3 4 5 4 4 3 3 3 3 3 3 3 2 2 1 1 -0 -1 -1
9 9 8 8 8 9 8 8 8 8 7 7 7 6 7 5 6 5 5 5 4 5 5 3 2 2 3 4 3 3 2 2 1 1 1 0 1 1 1 0 -0 -1 -2 -2
9 9 9 9 9 9 8 8 8 8 8 7 6 7 8 7 5 4 4 4 4 4 4 1 -0 -0 3 3 2 2 2 2 1 1 1 0 0 -0 -0 -1 -1 -1 -2 -2
10 11 11 11 12 13 11 10 10 10 8 6 6 6 6 7 7 7 7 4 3 2 3 3 2 3 3 2 2 1 1 1 1 0 -0 -1 -1 -2 -2 -2 -2 -2 -2 -2
14 13 13 13 13 13 12 12 11 10 9 7 5 6 6 6 6 5 4 5 4 4 4 4 3 2 2 2 2 2 1 1 -1 0 -0 -0 -1 -1 -2 -3 -3 -3 -3 -3

GFSNGP_sfc_30mbdewp_105.txt.gz
Dewpoint
27 25 25 25 26 25 25 22 19 21 25 35 36 37 36 36 35 35 36 35 36 35 34 34 38 40 42 46 54 55 55 56 56 56 56 54 52 53 54 54 54 53 53 54
17 19 21 20 17 12 11 15 20 20 32 34 33 33 31 32 33 32 33 34 33 35 34 33 36 37 39 40 42 45 46 46 54 55 54 53 53 53 53 53 53 53 53 54
15 12 11 10 14 16 16 30 31 31 36 35 32 30 29 30 30 29 30 31 31 31 33 33 36 37 37 37 38 39 39 40 43 45 47 48 53 53 52 53 53 53 53 53
11 13 6 19 21 20 27 29 31 34 36 34 30 30 30 30 29 29 30 30 31 30 31 33 35 36 36 36 36 35 36 37 38 40 41 42 44 45 45 44 44 44 43 42
10 8 15 24 24 24 23 30 30 32 35 37 34 34 31 31 30 29 30 31 31 32 31 32 33 35 35 35 34 34 33 34 37 37 38 38 38 38 39 36 35 34 35 35
15 8 16 28 28 27 26 26 32 32 32 33 33 32 29 30 30 30 31 32 31 31 30 31 32 34 33 32 33 33 32 33 35 36 36 36 36 35 34 33 32 31 30 31
17 14 25 30 31 30 26 24 33 32 31 30 27 28 30 30 29 30 31 27 27 27 26 27 30 32 32 32 31 32 33 33 33 34 35 35 36 34 33 32 32 31 30 30
20 17 22 30 29 27 29 31 32 32 31 31 30 30 29 28 28 28 29 30 25 25 25 25 27 29 30 30 31 32 32 31 31 31 32 33 33 34 34 33 32 31 31 30
26 24 29 31 29 31 31 30 31 32 31 31 30 29 28 27 25 23 22 23 24 24 24 24 25 26 26 29 30 30 29 28 29 30 29 28 30 31 31 31 31 31 30 30
28 28 28 29 29 30 29 29 29 29 29 28 27 26 25 23 22 20 20 20 21 22 22 22 23 24 25 27 28 28 27 27 26 25 25 26 27 26 26 29 28 29 29 28
28 28 28 27 28 29 28 27 26 25 24 23 24 22 22 20 20 19 19 19 20 20 20 20 21 22 23 25 27 27 27 27 27 25 23 22 23 24 25 26 27 26 26 26
26 29 28 27 27 27 26 25 23 21 20 19 19 19 19 18 18 18 18 18 18 19 19 20 20 21 22 24 24 26 26 26 27 26 26 23 22 21 23 25 24 24 25 24
28 29 29 29 27 27 25 22 19 18 18 17 17 17 17 17 17 16 16 16 17 18 18 19 20 20 22 23 24 24 24 25 25 25 25 24 23 22 20 21 20 21 21 21
29 29 27 28 24 25 23 20 18 17 16 16 16 16 16 16 15 15 15 15 15 16 17 18 18 19 21 24 23 25 26 25 25 25 24 24 24 24 23 22 20 19 19 20
27 27 26 26 23 20 18 18 17 16 16 16 15 15 15 14 14 14 14 14 15 15 15 16 16 17 20 23 25 22 22 24 25 24 23 24 23 22 22 21 20 21 22 20
24 24 23 20 17 16 16 16 16 16 15 15 14 14 14 14 14 14 14 14 14 14 14 15 15 16 18 19 23 22 21 23 24 23 23 22 22 21 21 20 19 17 16 17
20 19 19 17 16 15 15 15 15 15 14 13 13 14 13 13 13 13 13 13 13 12 13 13 14 16 16 18 23 21 22 21 22 21 21 21 21 20 20 19 17 15 14 14
18 18 17 18 16 15 14 14 13 13 13 13 13 12 12 12 12 11 11 11 11 11 10 11 12 14 15 16 20 20 20 20 20 19 19 19 19 19 19 18 18 16 13 10
16 16 15 15 14 14 14 14 13 13 12 12 11 11 10 10 10 9 9 9 9 10 10 10 11 12 12 13 16 18 18 18 18 18 18 18 18 17 17 16 14 12 10 10
15 14 14 13 13 13 13 13 12 12 12 11 10 8 8 7 8 9 10 10 8 8 9 8 8 9 8 9 11 12 15 16 15 15 14 16 15 13 10 8 10 11 10 9
15 15 14 14 13 13 12 12 11 9 8 7 7 6 7 7 7 8 9 10 9 7 7 6 6 6 5 8 7 12 12 12 12 11 12 12 11 10 10 10 10 10 9 8
15 13 12 12 12 12 12 12 10 9 8 7 6 7 8 10 9 10 8 7 7 6 6 5 4 5 6 9 8 9 8 9 9 10 10 10 10 9 9 8 8 7 7 7
14 13 13 12 13 13 12 11 10 9 9 9 8 8 8 7 7 6 8 6 4 5 5 6 4 4 7 9 9 8 7 7 7 7 8 8 8 7 7 7 6 6 6 5
15 14 14 14 13 13 14 12 13 11 10 11 9 8 9 7 11 5 6 7 4 7 6 3 4 4 8 7 7 7 7 7 7 6 5 5 6 5 5 4 4 4 3 2
15 14 14 14 14 16 13 14 12 12 11 9 8 7 7 6 7 7 7 8 6 5 9 5 6 6 7 6 6 5 6 6 3 5 5 4 4 4 4 4 3 4 3 2
15 14 14 14 14 12 10 9 8 8 8 8 9 10 9 8 6 7 7 7 5 5 6 6 6 4 7 6 5 4 4 4 5 4 3 4 3 2 2 1 2 2 2 2
15 15 12 11 9 9 9 8 8 9 13 11 9 9 6 7 7 6 6 8 7 7 7 8 7 7 4 4 4 4 4 4 5 2 2 3 3 3 2 2 2 2 1 1

GFSNGP_sfc_30mbdewp_111.txt.gz
Dewpoint
32 32 33 32 32 33 31 30 28 28 26 29 30 30 30 30 31 31 31 31 32 32 32 33 35 36 36 36 37 38 39 41 42 46 58 58 57 56 56 56 55 55 56 56
29 31 31 31 28 29 31 34 32 31 27 31 31 29 28 28 28 29 29 30 30 31 31 32 33 34 35 35 35 36 37 38 39 40 43 52 56 56 55 55 55 55 55 55
24 27 26 26 28 28 30 31 31 26 31 32 28 27 26 27 28 28 29 29 29 30 31 32 32 34 34 35 35 34 35 36 37 37 38 38 41 49 52 54 53 52 49 46
19 21 20 27 30 29 29 30 31 32 31 29 27 28 28 29 28 28 29 31 30 30 30 32 33 33 34 33 34 33 33 34 35 36 36 36 35 35 36 37 39 39 38 37
20 24 28 26 25 27 28 26 31 30 31 31 31 32 26 28 29 29 31 33 29 28 29 30 31 33 33 31 32 31 31 32 33 34 34 34 33 33 33 32 32 32 32 33
21 20 19 24 26 28 31 21 31 30 29 29 32 24 24 28 30 30 32 31 26 26 26 27 28 32 31 30 29 29 30 31 32 32 32 33 33 32 32 32 31 31 30 31
26 23 23 27 27 28 21 22 31 32 30 28 25 26 28 30 29 28 28 25 25 24 23 24 25 28 30 30 29 29 30 29 28 30 31 31 32 32 32 32 32 31 29 29
23 20 17 29 27 23 29 31 32 32 32 30 29 29 29 27 23 22 22 22 22 22 22 23 24 25 26 29 31 30 28 27 26 27 28 29 29 31 31 31 31 30 28 28
24 23 29 31 30 32 32 30 30 29 29 28 28 25 24 22 21 20 20 21 21 21 21 22 23 24 25 27 30 31 28 26 25 25 26 27 26 26 27 28 29 27 26 26
27 28 29 30 29 29 28 28 25 23 22 24 22 23 21 20 19 19 19 20 21 20 20 21 22 24 25 27 28 28 29 26 24 23 23 24 24 25 24 25 24 25 24 24
27 28 27 28 28 29 26 23 22 21 20 20 20 19 19 18 17 18 18 19 19 20 19 19 20 21 24 25 25 26 27 28 26 22 21 21 23 23 23 26 26 24 24 25
24 31 27 27 28 27 23 20 19 19 18 18 18 18 17 17 17 17 17 18 18 18 18 18 18 19 21 25 25 24 25 26 27 27 22 21 20 21 24 25 26 27 27 27
28 30 29 28 26 25 20 19 18 17 17 17 17 17 17 16 16 16 18 16 16 17 17 16 16 17 19 22 23 25 25 25 26 26 26 26 21 19 18 21 22 24 25 26
29 28 28 29 25 24 21 19 18 17 17 17 16 17 16 16 16 15 14 15 15 15 15 15 15 16 18 19 24 21 23 26 24 25 25 25 24 23 20 19 18 20 23 23
27 27 26 25 21 18 18 18 17 17 17 16 16 16 16 15 15 15 14 11 12 12 12 14 14 16 16 18 19 24 22 24 25 25 25 25 23 22 20 18 17 17 17 21
24 24 24 18 17 17 18 17 16 16 15 15 14 14 15 14 14 14 15 13 11 11 11 12 13 15 16 15 17 23 24 23 23 23 22 22 22 20 17 16 15 15 15 17
23 22 19 17 17 16 16 16 16 15 14 14 13 13 13 13 12 11 11 15 12 11 11 10 11 14 12 13 14 21 23 21 20 19 20 20 20 20 15 14 14 14 15 15
20 20 21 18 16 16 15 15 14 14 13 13 12 10 9 9 10 10 11 9 11 9 11 8 11 10 10 11 14 17 20 20 18 20 18 17 18 19 17 16 13 14 14 14
18 17 17 17 16 15 15 14 14 13 12 11 10 8 7 6 6 7 10 6 4 6 8 9 8 6 9 10 13 16 16 17 15 15 18 15 11 13 16 14 13 13 11 10
17 17 16 16 16 16 15 14 12 10 9 9 6 6 7 6 6 5 8 6 5 5 8 5 5 4 8 10 11 14 14 15 16 16 15 14 15 14 13 14 13 11 10 11
16 15 14 13 12 11 11 9 7 4 3 2 2 5 6 7 8 8 7 10 6 7 10 5 3 4 7 9 12 10 10 11 13 13 13 14 14 12 12 10 10 11 11 10
13 11 12 12 12 12 11 9 9 8 6 6 7 8 8 10 10 9 5 6 7 7 7 3 3 4 6 10 11 10 10 9 9 7 9 10 10 11 10 10 10 10 10 8
12 12 13 12 12 13 11 9 8 7 8 8 7 4 5 8 11 9 9 6 4 4 8 3 2 3 6 11 7 8 10 7 8 9 6 8 6 8 5 7 8 4 3 6
14 13 12 15 13 12 11 10 10 11 9 10 8 5 8 7 12 13 11 6 4 4 7 4 2 2 6 10 6 5 9 3 2 6 6 6 6 6 7 3 6 7 4 4
15 15 16 13 12 13 15 14 13 14 14 12 13 12 9 10 6 8 7 9 7 6 8 7 7 5 6 8 3 6 4 8 5 4 2 4 7 3 4 5 1 0 -1 4
16 16 15 14 17 18 16 17 14 15 17 17 18 16 14 9 8 9 13 11 8 10 9 8 10 8 6 5 1 3 9 5 9 7 4 2 6 4 7 2 2 5 5 2
17 21 19 16 15 14 11 10 11 13 12 11 14 17 11 9 10 8 9 9 11 8 8 8 7 10 10 5 3 5 5 6 8 6 3 2 2 5 7 6 3 2 1 1

GFSNGP_sfc_30mbdewp_114.txt.gz
Dewpoint
32 33 33 31 32 33 32 31 25 25 23 25 27 27 28 28 29 29 29 30 30 30 31 32 33 34 34 34 36 36 36 37 38 40 41 45 57 57 57 57 56 56 56 56
29 32 31 28 30 31 31 30 28 26 23 28 28 27 26 27 28 28 29 29 29 29 30 31 32 32 33 33 33 35 34 35 37 38 38 39 41 52 56 56 56 56 56 56
24 30 28 21 27 28 28 30 30 25 27 28 24 24 25 26 28 28 29 28 28 29 29 30 32 33 32 32 33 32 34 33 35 35 37 37 36 37 39 41 49 48 47 46
25 26 15 26 32 29 27 29 30 29 28 26 25 26 27 27 27 28 30 27 27 28 28 29 30 32 32 31 31 30 30 32 33 34 34 35 35 34 33 34 34 34 35 36
24 23 25 23 26 26 26 25 30 28 30 28 28 28 25 28 29 29 30 26 25 25 27 27 28 30 30 29 29 28 28 29 31 32 32 33 32 33 33 32 32 31 31 31
26 19 16 23 26 28 29 20 30 29 27 26 30 21 22 28 28 26 27 25 24 23 23 25 26 28 30 30 28 27 27 28 29 30 31 31 32 32 32 32 32 31 30 30
24 21 23 26 28 30 20 21 30 30 27 26 23 24 26 28 23 24 23 23 23 22 22 22 24 26 27 29 29 28 27 27 27 28 28 29 31 31 32 32 32 31 30 30
21 16 15 29 26 24 27 30 31 31 29 27 28 27 23 22 21 21 21 21 21 21 21 22 23 24 25 26 31 30 26 25 25 26 26 27 27 28 29 29 28 28 29 28
24 22 29 30 29 32 31 28 24 25 28 29 25 22 21 20 19 20 20 20 20 19 19 20 21 22 23 26 27 29 25 23 23 23 24 25 25 25 25 26 26 26 26 26
24 28 28 29 30 27 25 25 22 22 23 23 21 19 19 18 18 18 19 19 19 18 17 18 19 20 22 25 26 27 27 23 21 21 22 23 23 24 24 24 24 24 25 25
26 27 28 30 30 25 22 21 19 19 20 20 19 18 18 17 17 18 18 18 18 17 16 17 17 18 20 22 25 24 25 26 25 21 20 20 23 24 24 27 27 25 26 27
23 28 27 28 28 23 20 19 19 18 18 18 18 17 17 16 17 17 16 16 16 15 15 15 16 17 18 20 24 24 23 24 25 26 21 20 19 20 24 25 26 28 28 27
28 30 29 28 26 21 19 18 18 17 17 17 17 17 16 15 15 15 15 15 14 13 14 14 15 16 17 19 22 23 23 24 24 24 24 23 20 19 18 20 24 25 25 26
29 28 27 28 25 22 19 18 18 17 17 17 17 16 16 15 14 12 12 12 11 11 12 13 14 14 17 18 20 22 22 23 23 23 23 22 21 20 19 17 17 18 22 23
27 27 25 20 19 19 18 17 17 16 16 15 16 16 15 14 14 14 12 11 9 8 11 12 13 12 15 16 18 22 22 22 22 21 22 22 19 18 17 16 15 16 17 17
26 24 19 18 18 17 17 16 15 15 14 14 14 15 14 13 12 12 14 11 10 10 10 9 10 12 12 13 15 20 21 19 19 20 20 20 17 14 15 14 14 15 15 15
23 21 17 17 17 17 16 16 15 14 13 13 12 13 12 11 11 11 10 14 11 10 11 8 9 8 10 11 14 16 19 17 18 17 18 18 17 13 13 13 13 13 13 14
23 21 18 17 17 16 15 15 14 13 12 12 9 7 6 7 8 9 10 5 6 8 8 5 7 6 8 10 13 15 16 15 16 17 13 15 16 16 13 13 13 12 12 11
19 19 18 17 16 15 15 14 13 13 12 9 6 3 5 4 5 6 7 2 3 6 7 3 6 6 9 10 12 13 14 14 15 14 14 11 13 14 13 12 11 9 9 9
17 17 17 16 16 15 14 13 12 10 8 7 6 5 5 6 6 6 6 5 6 8 5 1 2 6 9 10 11 11 11 12 12 12 13 12 12 12 12 12 10 9 7 6
16 15 15 14 13 12 11 7 5 5 4 2 4 6 8 7 6 5 9 7 6 8 3 2 3 5 9 9 10 9 8 8 8 9 9 10 10 9 8 8 9 9 9 9
12 12 11 10 9 9 7 5 4 3 3 5 5 5 5 7 9 5 4 4 5 7 4 2 2 3 8 8 8 9 8 7 7 6 7 7 8 8 8 8 7 7 7 6
11 10 10 10 10 9 8 8 7 5 5 5 5 3 5 9 10 8 7 6 5 4 7 2 1 2 8 7 4 6 3 1 6 7 6 6 6 5 6 6 3 3 5 5
11 12 11 11 11 11 9 8 8 8 7 8 8 6 6 11 10 10 8 6 4 4 6 6 4 4 7 4 3 5 6 3 3 1 1 6 5 5 4 3 4 3 1 3
12 12 13 13 12 11 11 11 10 10 12 12 11 11 8 9 7 7 9 9 8 6 6 6 6 6 4 5 1 3 6 5 6 3 2 3 6 3 4 2 -1 1 2 3
14 14 15 14 12 13 15 16 15 15 16 15 16 15 14 11 9 6 8 8 10 9 9 8 8 8 8 5 3 0 5 5 7 7 4 1 0 4 5 2 2 3 2 2
16 16 15 15 15 16 16 16 13 13 12 12 13 15 15 13 8 8 7 7 9 9 7 8 5 7 8 8 6 3 4 4 6 6 3 2 1 5 5 4 3 2 1 -0

GFSNGP_sfc_30mbdewp_120.txt.gz
Dewpoint
29 28 28 27 29 29 27 27 20 21 19 21 23 25 26 28 27 24 24 26 27 27 27 29 30 29 29 30 30 31 31 32 32 34 35 36 37 38 39 38 40 43 57 58
27 30 26 23 25 28 27 26 23 22 19 25 26 26 25 26 26 23 22 23 24 25 26 27 28 30 27 28 28 29 29 30 31 32 33 34 34 35 36 36 37 36 38 43
21 26 19 16 23 24 25 25 26 19 22 25 23 23 23 24 26 23 22 22 23 23 24 26 27 29 29 26 27 27 28 28 29 30 31 32 32 33 34 34 35 35 35 35
24 27 14 24 29 29 24 26 26 24 24 24 23 24 25 25 24 23 22 21 22 23 23 25 26 27 28 26 24 26 26 26 27 28 28 30 31 31 32 33 32 33 33 33
21 20 23 25 25 25 25 23 27 26 25 25 27 27 21 23 24 23 22 21 21 22 22 23 23 25 26 28 23 23 24 24 25 27 27 27 28 29 30 30 30 31 30 31
23 19 16 22 24 28 30 20 27 26 24 23 27 19 19 22 22 21 20 19 19 20 20 20 21 23 24 26 26 22 22 23 24 25 26 26 27 28 29 30 29 29 28 29
22 19 21 24 28 31 21 21 27 24 23 22 21 21 21 20 19 19 19 18 18 18 18 19 20 21 22 23 25 27 23 22 23 24 25 25 26 27 27 28 28 28 28 29
23 17 16 27 28 23 27 29 28 26 26 21 21 21 20 19 18 18 17 17 17 17 17 18 19 19 20 21 24 25 26 22 22 22 24 24 25 26 26 26 26 26 26 27
22 20 27 27 28 26 25 25 27 26 23 22 20 20 19 18 17 16 16 16 15 15 16 17 17 18 19 20 22 23 23 24 21 21 22 23 23 24 24 24 24 24 24 24
23 25 26 24 24 22 23 25 27 23 21 20 18 18 18 17 16 15 14 14 14 14 14 15 16 17 19 20 21 21 21 22 23 20 20 21 22 23 22 23 22 22 23 23
24 27 27 23 22 21 21 22 21 20 20 19 18 18 17 16 15 14 12 13 12 13 13 13 14 15 17 19 20 19 20 21 21 22 20 19 20 22 22 23 24 23 22 23
20 25 25 24 22 21 20 20 19 18 17 17 17 16 16 15 15 13 10 10 11 11 11 12 12 13 15 18 19 19 19 20 20 20 20 19 18 17 19 21 21 22 23 23
28 29 27 25 21 20 19 19 19 18 17 16 15 15 13 12 11 11 8 8 10 10 9 10 10 12 14 16 19 18 18 19 19 19 18 17 16 15 14 15 17 18 18 19
28 26 22 20 19 19 19 19 18 17 16 16 15 14 14 13 12 10 8 7 7 8 7 7 7 10 12 15 17 17 17 16 16 17 15 13 12 12 12 12 12 12 14 16
28 27 26 21 19 18 17 17 16 16 16 15 14 13 12 12 13 11 10 8 8 7 6 3 6 9 11 13 14 15 16 16 15 15 15 12 12 12 11 11 11 11 11 11
22 21 20 19 18 17 17 16 15 15 15 15 14 12 11 11 11 11 12 10 8 6 6 0 5 8 10 10 12 13 13 14 13 11 14 13 11 11 10 10 9 9 9 9
20 19 19 18 17 17 16 16 16 15 15 14 14 12 11 11 10 6 6 6 7 6 4 -1 3 7 8 9 9 10 11 12 12 11 11 13 12 12 11 9 9 8 7 7
22 20 19 19 18 17 16 15 14 13 12 11 9 7 7 8 8 7 2 4 5 4 1 -0 3 7 7 9 9 9 9 10 11 11 10 10 12 12 10 8 7 7 6 6
20 19 19 18 18 16 15 14 13 12 8 4 -0 0 3 4 5 5 1 3 3 3 2 1 6 7 7 9 9 7 7 7 8 9 9 8 8 9 9 7 6 5 4 4
19 19 18 17 16 15 14 13 11 8 6 2 1 3 5 6 4 5 2 6 3 6 3 1 3 6 7 8 8 7 5 5 6 6 7 7 6 6 6 7 7 5 4 3
18 17 16 15 14 13 11 10 8 6 4 3 2 5 8 5 3 3 7 7 4 4 6 3 2 3 8 6 7 4 2 4 5 5 4 5 6 5 5 4 5 4 4 4
15 14 13 12 11 9 7 6 5 4 1 -1 3 4 6 7 6 4 3 6 4 4 5 6 3 2 4 5 4 4 4 2 4 4 4 4 4 4 4 4 4 4 3 2
13 12 11 10 9 8 4 1 -0 -1 -1 2 4 3 1 7 8 8 6 6 5 4 4 5 6 3 3 3 2 0 3 3 3 2 -0 1 2 3 3 3 3 1 2 2
11 11 9 8 7 6 3 3 3 3 2 3 4 3 3 5 8 9 10 9 6 4 3 3 4 5 4 3 3 3 0 1 2 1 1 0 -0 -0 1 1 2 1 -1 -1
11 9 8 8 8 6 5 6 7 7 8 8 9 10 8 8 7 7 7 7 7 7 7 7 5 4 4 5 4 4 4 1 1 1 2 1 1 1 -0 1 2 -0 -1 -1
11 10 9 10 10 9 9 10 9 10 11 12 12 11 11 11 11 10 10 8 6 6 6 7 5 5 5 5 4 4 4 3 3 2 2 3 1 1 -0 1 2 1 0 -0
12 12 11 12 13 12 12 12 14 14 14 13 13 11 10 11 11 11 10 6 5 6 6 5 5 4 4 6 5 4 4 3 3 3 4 3 3 2 0 1 1 1 1 -0

GFSNGP_sfc_30mbdewp_123.txt.gz
Dewpoint
29 28 26 25 26 28 25 27 22 20 18 20 22 23 25 26 25 21 21 22 23 23 25 26 28 28 26 28 29 30 30 30 31 32 33 34 34 35 35 36 37 39 39 39
27 30 27 23 25 26 25 23 22 21 18 25 25 25 24 23 23 21 20 21 22 22 23 24 26 28 24 25 27 28 28 28 29 30 31 32 33 33 33 33 34 34 35 36
23 28 26 18 23 24 24 25 26 19 22 24 22 21 21 22 22 21 20 21 21 22 23 24 25 27 26 23 24 25 26 26 27 29 29 30 30 31 32 32 31 31 31 33
24 27 15 24 29 28 24 26 25 23 24 23 22 22 22 22 21 20 20 20 21 21 21 23 23 25 27 26 23 23 24 25 26 27 27 28 29 30 31 31 30 30 30 30
23 20 23 26 25 25 25 22 26 26 25 24 25 25 20 21 21 20 20 20 20 21 21 21 22 23 24 25 25 23 23 24 25 26 26 27 28 28 30 30 30 30 29 29
23 19 16 22 25 28 29 19 25 23 24 25 27 21 19 19 19 19 19 18 18 18 19 20 21 22 23 23 24 24 23 23 24 25 25 26 27 28 29 29 29 29 29 29
23 20 21 24 27 30 21 21 24 23 21 22 20 21 20 19 18 18 17 17 17 17 17 18 19 20 21 22 23 24 24 23 23 24 25 25 26 27 27 27 27 27 27 28
23 20 17 26 29 24 27 29 26 24 21 21 21 20 18 18 16 16 16 15 15 16 16 17 18 18 19 20 21 22 23 23 22 23 24 24 24 25 25 24 24 24 24 25
22 21 26 27 26 26 28 27 27 23 22 21 20 19 18 16 14 14 13 13 14 15 15 15 16 17 18 19 20 20 21 21 21 21 22 23 22 22 22 22 22 22 22 22
23 25 25 24 23 24 27 28 25 22 21 19 18 18 16 15 13 11 12 12 13 13 13 13 15 16 17 19 18 18 19 19 19 19 19 19 21 21 21 21 21 20 20 21
24 26 24 23 22 23 23 22 20 20 19 19 18 17 16 14 11 9 9 10 10 10 11 11 13 14 16 18 17 16 17 18 19 18 17 16 18 20 20 21 21 20 20 20
21 26 25 23 22 22 21 20 19 18 17 16 16 15 14 12 9 7 7 8 8 6 6 8 12 13 14 16 17 16 15 16 18 17 16 15 15 16 17 18 18 18 18 19
27 28 27 25 22 21 20 19 18 17 16 14 14 13 11 11 9 8 6 5 5 4 3 5 10 12 13 15 15 16 16 16 16 16 14 14 15 15 15 16 15 15 15 17
27 24 21 21 19 19 19 19 18 16 15 14 14 13 12 11 10 8 6 5 5 4 0 2 9 11 12 14 15 15 17 16 16 17 16 15 15 15 14 13 12 12 12 12
27 27 23 21 19 19 18 17 16 15 15 14 13 12 12 11 10 9 8 7 5 4 1 1 8 10 11 12 14 15 15 15 15 15 16 15 15 14 13 12 11 10 9 9
24 22 21 19 18 17 16 16 16 16 15 14 12 11 10 10 10 9 10 8 6 5 2 2 8 9 10 10 11 12 13 13 13 14 14 15 14 13 12 11 10 9 8 8
22 20 19 18 17 17 16 16 16 16 15 14 13 11 10 9 7 6 6 7 7 5 3 4 7 9 9 10 11 10 11 12 12 13 13 13 13 12 12 10 9 8 8 7
23 22 21 20 18 17 17 16 16 15 15 14 13 11 10 9 9 6 5 5 5 4 4 2 6 8 8 11 10 9 9 9 10 11 11 11 11 12 11 10 9 8 8 7
22 21 20 20 19 18 16 15 14 13 11 8 6 5 6 7 7 7 4 4 3 5 5 3 7 8 8 10 9 8 8 7 7 7 9 9 10 9 10 9 9 9 8 7
20 20 20 19 18 17 15 14 12 10 6 1 0 3 5 6 5 5 4 8 6 7 6 5 5 7 9 7 7 4 6 6 6 6 7 7 8 8 8 8 8 8 7 7
19 19 18 17 15 15 13 11 9 5 2 0 2 5 7 8 5 4 7 8 7 5 8 7 4 4 6 7 4 6 7 6 6 6 6 5 6 6 6 7 6 6 6 6
18 16 15 13 12 10 9 9 7 5 4 2 2 5 6 8 6 6 6 8 8 5 6 6 7 4 4 6 6 6 5 6 6 6 5 5 5 4 4 5 5 5 6 6
15 14 12 11 10 9 6 6 4 3 0 1 5 5 4 8 10 10 8 8 8 8 6 7 6 5 5 7 8 8 7 5 6 6 6 6 5 5 5 4 4 5 5 4
13 13 12 9 8 8 7 4 3 2 1 3 4 4 5 7 9 10 11 10 9 8 8 9 8 6 4 8 9 8 8 8 7 6 6 3 6 5 5 5 4 4 5 4
13 11 9 8 8 7 7 5 5 6 7 8 9 9 7 8 10 12 12 11 9 9 10 9 6 6 8 9 9 8 8 8 8 7 6 6 6 6 6 5 5 5 5 4
12 12 11 10 11 9 8 7 8 9 9 11 13 14 14 13 13 13 13 13 12 9 10 11 9 8 9 8 8 8 8 8 8 7 6 7 7 6 6 5 5 5 5 5
13 12 11 11 12 10 10 11 12 13 14 15 16 15 12 12 13 12 12 13 12 10 10 10 9 8 9 9 8 8 8 8 7 7 7 7 7 6 6 6 5 5 5 5

GFSNGP_sfc_30mbdewp_126.txt.gz
Dewpoint
26 28 26 27 26 28 27 28 25 22 20 22 23 24 24 25 25 24 23 22 22 23 24 26 27 29 29 29 29 30 30 32 33 33 33 33 34 35 35 34 34 34 34 34
28 30 28 24 26 28 26 23 22 21 20 25 25 26 24 23 23 22 22 21 22 22 23 24 25 27 26 25 27 28 29 29 31 32 33 33 33 33 33 33 33 33 33 32
26 29 28 23 24 26 25 26 25 20 23 25 23 22 21 22 21 20 20 21 22 22 23 23 25 26 26 25 25 26 27 28 28 30 31 32 32 32 32 32 32 31 31 32
25 28 19 25 30 28 25 25 24 24 25 25 23 23 22 21 21 21 21 21 21 22 22 23 24 25 25 25 25 25 25 26 27 28 28 30 30 31 31 31 31 30 30 30
24 22 24 26 26 28 27 23 25 25 25 24 25 23 21 20 21 21 21 20 20 21 22 22 23 23 24 24 24 24 25 25 26 27 27 28 28 29 29 30 29 30 29 29
24 20 18 23 26 29 28 22 24 24 26 27 26 23 21 20 21 21 20 18 18 18 18 20 21 22 22 23 23 25 25 26 25 26 26 27 28 28 28 29 29 28 29 29
23 22 21 23 27 30 23 23 24 22 24 24 23 23 21 21 20 20 18 16 16 16 15 16 17 20 20 21 23 24 24 25 25 26 26 26 26 27 27 28 28 27 28 28
24 22 19 26 30 26 27 27 24 22 22 22 22 20 19 19 17 16 16 14 14 14 14 15 15 16 17 18 18 20 22 22 23 24 24 25 24 25 26 26 26 26 26 26
24 24 27 28 29 29 28 26 24 23 22 22 21 20 19 16 14 13 12 12 12 12 12 13 14 14 15 15 16 17 18 19 19 19 21 24 23 23 21 23 22 22 22 23
24 25 25 26 26 28 28 27 24 22 21 20 18 17 16 13 10 10 9 8 9 9 9 11 12 13 14 15 14 13 14 16 16 16 16 17 19 19 20 20 20 19 20 21
25 25 25 24 25 27 26 24 22 21 20 19 18 16 15 10 8 7 6 6 5 5 6 9 10 11 13 13 13 11 12 13 15 15 14 14 17 19 17 19 19 18 19 20
26 27 26 25 24 25 23 21 20 19 18 17 16 14 11 8 6 5 5 5 2 1 2 5 8 10 11 13 12 12 11 12 14 14 14 14 14 15 18 17 16 15 15 18
29 28 28 26 24 23 21 20 19 17 16 15 14 12 10 8 7 7 4 3 2 -1 -2 3 7 9 11 13 12 13 13 13 13 13 13 14 14 14 15 16 16 15 13 12
29 26 24 23 22 21 19 18 18 16 15 13 12 11 10 9 7 5 4 4 3 0 -1 2 6 11 13 13 13 14 15 14 15 15 15 15 15 15 14 14 13 13 13 11
27 27 25 23 20 19 19 17 15 14 13 12 12 11 10 8 7 6 6 5 3 -0 -2 2 7 10 12 11 11 12 12 12 13 14 14 14 13 13 12 12 11 11 10 9
26 24 22 21 19 18 17 17 15 15 14 13 11 10 9 9 8 8 7 7 4 3 3 7 8 11 11 10 10 9 10 11 11 12 12 12 12 11 10 10 10 9 9 8
24 23 22 20 19 18 18 18 17 15 14 13 12 10 8 6 6 7 8 8 8 7 5 7 9 10 11 11 11 10 10 10 10 10 11 10 10 10 10 9 9 8 9 10
25 24 23 21 20 19 18 18 17 16 16 15 13 12 12 11 10 10 10 9 8 7 7 7 10 10 10 10 9 9 9 9 8 8 8 9 9 9 9 9 8 7 7 7
25 24 23 22 21 20 19 18 17 16 17 16 14 13 12 12 12 11 10 9 8 9 9 8 8 9 9 8 7 7 8 8 7 6 7 6 8 7 7 7 7 7 7 7
24 23 22 22 21 19 18 18 17 15 14 12 9 8 10 9 10 9 9 10 11 10 10 9 7 7 8 6 6 4 7 7 6 5 6 5 6 6 6 5 5 6 6 7
23 23 22 21 20 20 19 17 15 11 9 7 9 9 11 12 10 9 10 10 12 9 9 9 8 5 4 5 4 7 7 6 6 6 6 6 6 5 5 5 5 5 6 5
24 22 21 19 18 17 16 15 13 9 6 5 6 10 10 11 10 10 11 11 10 9 7 7 6 7 5 7 5 8 7 6 6 6 5 5 5 5 4 4 4 4 5 6
23 20 18 17 16 16 14 14 11 9 8 6 6 9 10 11 13 12 12 13 10 10 9 9 9 8 9 10 10 9 8 7 7 6 6 6 6 5 5 4 4 4 4 4
21 19 18 17 15 12 12 11 10 9 8 9 10 11 10 11 13 13 12 12 11 11 11 11 11 10 9 10 10 10 9 9 8 9 8 7 7 6 6 5 4 4 4 4
19 18 16 14 14 13 14 11 9 9 8 7 9 9 10 11 14 15 15 15 15 13 13 13 11 10 11 11 10 10 9 9 10 9 7 7 7 7 6 6 6 5 4 3
18 17 16 16 15 13 12 8 8 9 9 12 15 17 18 18 16 15 14 14 14 15 14 13 13 13 13 12 12 11 9 8 8 8 9 8 7 8 7 7 6 5 6 6
19 17 16 14 13 12 11 10 11 12 12 16 16 19 18 17 14 13 14 14 14 14 14 14 14 14 14 13 12 10 8 7 8 8 7 7 7 7 8 8 7 6 6 5

GFSNGP_sfc_30mbdewp_129.txt.gz
Dewpoint
24 25 25 27 26 28 29 29 27 24 22 23 24 24 24 25 25 25 24 24 22 22 23 26 27 29 30 30 31 31 31 32 33 34 35 35 35 35 34 34 34 34 34 33
28 29 25 25 27 29 26 25 24 22 22 24 25 24 24 24 24 23 21 21 22 22 23 24 25 26 27 28 28 29 29 29 31 32 32 33 33 34 34 33 32 32 33 33
26 29 27 23 26 26 25 25 24 23 24 25 23 23 23 23 22 21 21 21 23 23 23 24 25 25 25 26 26 27 27 28 28 29 30 30 31 32 32 32 31 31 30 31
27 26 20 26 27 26 25 25 25 25 25 24 24 23 22 22 22 22 21 21 22 23 23 24 23 24 24 25 26 25 26 27 27 27 27 28 29 30 30 30 30 29 29 29
22 23 24 26 27 26 26 24 26 26 26 25 24 24 22 22 22 22 21 20 20 21 24 22 22 22 23 24 24 25 26 26 26 26 26 27 26 28 28 28 29 28 28 27
23 19 18 25 25 26 25 23 24 26 26 25 25 24 23 22 23 22 20 17 16 15 15 19 20 20 20 22 23 25 27 26 26 26 26 27 27 28 29 28 29 29 29 30
22 20 23 24 27 29 23 25 25 26 27 27 26 25 23 22 22 22 17 15 14 13 13 13 14 17 18 17 22 22 22 25 24 25 27 26 25 27 27 28 27 28 28 29
22 20 21 26 29 26 28 26 24 24 25 24 23 22 21 21 21 18 14 11 11 11 11 12 11 13 13 14 13 16 18 19 20 23 22 26 25 24 24 25 24 24 25 25
24 25 28 29 31 29 28 25 24 24 23 23 22 21 20 18 14 11 8 8 7 8 9 10 10 10 11 12 11 12 14 15 15 15 18 22 21 22 20 21 21 20 21 21
25 26 26 27 30 29 27 26 24 23 23 22 19 18 15 12 10 6 4 4 4 4 6 7 8 10 11 11 10 9 10 12 13 14 13 14 18 17 18 17 17 17 18 19
25 25 25 27 30 30 27 24 22 21 21 19 18 16 11 9 6 5 4 3 2 2 3 5 7 7 10 10 9 9 9 11 13 14 13 12 16 19 17 19 16 15 15 16
27 27 27 26 28 28 25 22 21 20 18 17 16 13 8 6 5 4 3 1 -2 -2 1 3 5 6 9 10 10 11 11 10 13 14 14 14 14 14 19 19 18 16 13 13
29 29 29 28 27 25 23 21 20 18 17 15 13 10 8 6 6 5 2 1 -1 -2 -1 2 5 8 10 11 11 12 14 12 14 15 14 14 14 15 14 16 16 16 15 12
29 29 27 26 25 24 21 20 19 16 15 13 11 10 9 6 5 4 3 2 -0 -2 -2 2 5 11 12 11 12 13 15 14 15 16 16 15 15 15 14 13 13 13 14 12
28 27 27 25 24 21 20 18 16 15 13 12 11 10 8 6 5 5 4 3 0 -2 -1 3 7 11 11 10 12 12 13 13 13 15 15 13 14 13 12 12 11 11 11 11
27 26 25 23 21 20 19 17 15 14 13 12 11 9 8 7 7 6 6 6 4 6 6 9 8 10 10 10 12 11 12 12 11 13 13 12 12 12 11 10 10 10 10 13
26 24 23 22 21 20 19 18 16 15 13 11 10 9 8 6 7 7 8 9 10 10 8 9 10 11 11 11 12 12 12 12 11 11 11 11 11 10 10 9 9 9 9 14
26 26 24 23 22 20 20 19 18 15 14 13 12 12 12 9 9 11 12 11 11 10 10 9 10 10 11 10 10 11 11 10 10 9 9 10 9 9 9 9 8 7 8 8
26 25 24 23 22 21 20 19 18 17 17 18 17 15 15 15 14 13 13 12 10 12 15 10 9 10 11 10 7 9 10 9 9 7 9 8 8 8 8 8 7 7 8 9
25 25 24 23 23 22 20 20 20 20 20 18 17 15 13 14 14 13 12 12 14 14 12 11 10 10 9 8 6 6 9 9 8 7 8 7 8 7 7 6 6 7 8 10
26 25 25 25 25 24 23 22 21 19 17 16 13 12 13 13 13 12 12 12 18 14 11 11 9 7 5 6 4 7 10 9 7 7 8 8 8 7 7 8 7 7 9 9
28 26 25 24 23 23 22 21 19 16 13 12 14 14 15 14 13 12 13 15 15 13 10 10 9 9 6 8 5 10 10 8 8 9 9 9 8 8 7 8 7 7 6 8
28 26 24 22 22 21 20 19 16 13 12 11 11 12 12 13 15 14 14 16 14 14 12 11 12 11 9 10 11 13 12 11 10 11 11 9 10 10 8 7 7 8 8 8
26 24 23 22 21 18 17 16 15 14 13 12 12 14 13 14 16 15 14 15 14 14 14 14 17 13 11 10 10 12 13 13 13 13 12 11 12 12 11 10 8 8 9 8
25 23 22 20 18 17 18 16 14 12 12 9 10 11 12 13 15 17 18 16 15 16 14 15 17 13 12 11 11 14 13 13 14 12 10 11 9 10 10 9 9 7 7 6
23 22 21 20 20 18 17 13 11 12 10 13 14 17 18 19 18 17 15 14 14 12 14 15 16 19 17 15 15 15 14 13 13 12 12 9 10 10 10 9 9 8 7 8
23 22 20 19 19 17 15 12 13 14 13 16 16 20 20 21 19 15 14 15 15 16 16 17 17 17 15 15 14 11 13 13 13 12 10 10 9 9 10 9 8 8 7 8

GFSNGP_sfc_30mbdewp_132.txt.gz
Dewpoint
26 24 26 27 24 26 27 30 28 25 23 23 24 25 25 24 24 22 21 22 22 22 24 26 28 28 29 29 30 31 31 32 33 33 34 33 33 33 33 32 32 32 33 31
26 27 26 25 27 27 25 26 26 23 22 25 25 25 25 23 22 21 21 21 22 22 23 24 25 27 28 29 28 29 28 29 29 30 30 31 31 31 31 30 30 30 30 30
23 28 27 25 26 26 25 25 24 22 25 25 23 23 23 23 22 21 21 21 23 22 24 24 24 25 25 26 27 27 27 27 27 27 28 28 29 29 29 29 29 28 28 28
24 27 20 27 28 26 24 25 25 25 25 24 24 23 23 23 22 22 21 20 22 24 24 23 23 24 24 25 26 25 26 26 25 26 26 27 28 28 28 28 28 28 27 27
21 24 24 25 25 24 24 24 26 25 25 24 23 23 23 23 22 23 20 18 18 23 22 21 21 21 22 24 25 26 25 26 26 25 25 26 26 27 28 28 28 28 28 26
23 21 19 26 25 26 26 22 26 26 26 25 24 23 24 23 23 23 18 15 13 13 12 17 19 18 18 22 22 22 27 24 26 27 25 25 25 25 27 26 26 26 26 27
21 18 25 25 26 27 22 25 25 27 27 26 24 28 24 23 23 23 21 12 12 11 10 10 12 15 15 16 19 19 21 23 23 25 26 25 24 24 24 24 23 23 23 24
20 18 22 26 27 26 29 27 26 27 28 27 26 24 22 22 23 19 11 8 8 9 9 9 10 11 11 12 12 15 17 19 18 22 23 24 23 21 20 20 20 19 20 20
26 26 29 31 33 30 27 25 25 26 27 25 23 21 20 20 12 8 6 5 5 7 7 8 9 9 9 10 10 11 14 15 17 16 19 21 21 21 19 18 17 17 17 17
26 26 27 30 29 28 26 25 25 24 23 23 21 20 17 12 8 4 2 2 3 4 5 6 7 8 9 10 10 9 11 14 15 16 15 17 19 20 20 18 17 16 15 15
26 26 27 28 30 28 26 25 24 23 22 21 19 15 11 8 5 3 2 1 1 2 3 4 5 7 10 10 10 12 10 14 16 17 16 15 19 20 20 19 18 16 16 15
26 27 27 28 30 29 27 24 22 21 20 19 16 11 8 6 5 3 1 -1 -2 0 2 3 5 7 9 11 11 13 13 12 17 17 17 17 16 17 21 20 20 18 15 14
31 29 30 30 30 29 27 24 21 20 18 16 13 8 6 5 4 4 2 -0 -2 -1 2 4 8 10 11 12 13 14 15 13 17 18 17 17 17 17 17 18 18 18 16 14
30 30 28 28 26 25 23 21 20 17 16 14 10 8 8 6 5 3 3 1 -1 -1 2 5 8 12 13 12 14 15 17 16 17 19 19 18 18 17 17 16 15 15 16 15
29 29 28 27 25 23 21 19 17 16 14 12 11 10 8 6 5 5 4 2 -1 1 3 6 10 12 12 12 13 15 15 15 15 17 17 16 16 16 15 15 14 15 14 16
27 27 27 25 23 21 20 18 16 15 14 13 11 10 8 7 6 6 6 8 4 8 9 10 11 12 11 12 13 14 15 15 13 15 15 15 15 14 13 13 13 13 13 15
26 26 25 24 22 21 19 18 17 16 14 13 12 10 9 8 8 8 9 10 11 11 9 11 11 12 12 12 12 15 15 15 13 14 13 14 13 12 13 13 13 12 12 13
27 26 26 24 23 22 21 20 18 16 14 13 12 12 10 9 10 12 13 13 12 11 12 11 10 11 13 12 11 14 14 13 13 12 12 13 11 12 12 12 11 11 11 11
26 26 26 24 24 23 22 21 19 17 18 17 15 14 13 16 16 15 14 13 10 12 16 11 11 10 14 11 10 10 13 12 12 11 12 11 11 12 11 11 10 10 11 11
26 26 26 25 25 24 23 22 21 22 20 18 18 16 15 16 16 15 14 12 15 19 15 14 12 12 12 11 7 6 11 12 12 11 11 11 12 11 11 10 10 10 10 11
27 27 26 26 26 25 25 23 23 21 20 19 17 16 15 15 15 14 13 13 17 15 13 12 11 10 8 6 4 8 13 13 12 12 11 11 12 12 11 11 10 10 10 10
28 27 26 24 24 24 24 24 22 20 19 16 16 15 16 15 14 13 14 16 20 13 13 12 12 11 9 5 5 12 13 13 13 13 13 13 13 11 11 11 10 10 10 10
28 27 25 24 24 24 23 22 20 18 15 14 16 16 17 16 15 14 16 18 14 14 14 14 15 10 9 11 12 14 15 14 14 14 14 14 13 13 12 12 11 12 10 10
28 27 25 25 24 22 21 20 18 16 15 15 14 16 15 17 17 17 16 18 15 16 17 16 18 14 11 14 13 13 14 17 16 14 14 14 12 11 11 10 10 11 12 11
27 26 25 24 22 21 21 19 17 15 14 12 13 14 15 16 18 22 21 19 17 17 17 17 17 18 15 15 15 14 15 16 16 17 14 14 13 12 11 10 11 13 13 12
26 25 24 23 22 21 20 17 15 14 13 15 15 16 17 18 18 18 18 17 16 14 14 16 17 18 19 19 19 18 17 14 14 15 14 12 11 11 11 12 12 12 12 12
25 24 23 22 22 21 20 16 16 17 15 18 18 21 22 24 22 17 15 16 18 18 18 19 18 18 18 16 16 15 15 13 12 11 11 9 7 7 9 7 5 4 5 6

GFSNGP_sfc_30mbdewp_135.txt.gz
Dewpoint
29 28 28 26 25 26 25 28 26 23 23 25 25 24 26 25 23 22 22 21 21 23 24 25 25 27 27 27 28 29 29 29 30 30 31 30 30 30 29 29 29 28 28 28
25 28 26 24 24 26 28 28 28 25 23 25 25 27 25 24 22 22 21 22 20 23 24 23 24 24 26 28 28 28 26 27 29 29 30 29 29 29 28 27 27 27 26 26
22 27 26 24 25 25 26 26 27 23 24 25 25 24 24 23 22 21 21 22 20 21 23 22 24 24 24 26 25 27 27 25 26 26 27 29 27 28 28 28 26 25 24 24
25 28 20 25 29 27 25 25 26 25 25 25 24 24 23 23 22 22 20 21 21 19 21 21 21 23 24 24 25 24 26 25 23 25 25 25 26 25 25 26 26 24 23 22
23 25 24 25 26 25 23 24 25 25 25 24 24 23 23 23 23 23 20 18 21 19 20 21 18 19 23 21 24 22 24 26 24 22 22 22 23 25 24 24 24 24 22 21
24 22 20 25 26 26 26 23 26 26 24 23 23 23 23 23 23 22 22 15 13 12 12 15 17 16 18 21 19 23 21 24 26 24 22 20 20 21 22 20 21 21 22 20
23 22 26 26 26 27 22 21 27 27 26 24 24 26 24 24 22 22 22 12 12 11 10 10 12 13 14 17 18 18 21 20 24 25 23 21 20 19 20 19 18 18 17 19
24 22 21 27 27 25 27 28 28 28 27 26 25 24 23 23 20 19 12 10 10 9 9 10 10 10 11 12 14 17 17 19 19 23 21 23 20 19 18 17 16 15 14 14
26 25 29 32 32 31 27 27 29 28 28 26 24 23 22 21 21 14 5 6 8 8 8 9 10 10 10 11 13 14 16 18 18 18 21 22 21 18 17 17 16 15 14 13
25 27 29 30 30 28 27 26 27 26 25 24 22 20 20 19 8 3 2 4 6 6 7 7 9 11 11 12 14 12 15 16 18 18 18 20 21 19 18 17 16 15 13 12
26 27 27 29 30 27 26 26 25 24 23 22 21 20 14 10 4 3 2 3 4 5 5 7 9 10 13 13 15 14 13 16 19 18 18 18 19 20 19 18 17 15 13 12
21 27 26 28 30 27 25 24 24 23 21 20 17 14 9 6 4 2 1 1 3 4 6 8 10 11 12 14 15 17 14 15 19 19 17 18 18 18 20 19 22 19 16 15
31 29 30 32 30 27 25 24 22 21 20 16 13 11 8 6 5 5 2 1 2 5 9 11 12 13 13 14 16 16 14 14 17 19 17 17 17 16 15 15 17 17 17 15
32 31 30 30 29 29 27 25 24 21 19 14 10 9 7 5 6 4 2 1 2 5 8 11 12 12 13 13 14 16 15 12 13 14 16 15 15 13 14 13 12 13 16 14
30 30 30 30 29 25 22 21 18 17 14 12 11 9 7 7 6 4 2 1 3 5 7 11 12 10 12 14 14 16 16 13 12 13 15 14 14 12 12 13 12 11 14 13
30 28 28 26 24 22 20 19 17 15 13 12 11 9 9 8 7 7 9 11 6 8 9 10 12 11 12 12 12 15 16 14 12 13 13 12 9 9 13 11 11 11 10 12
28 27 27 25 23 21 20 18 17 15 14 13 12 11 9 8 9 9 9 10 10 10 11 10 11 10 12 11 8 11 13 12 12 12 12 11 9 10 12 10 10 9 9 10
28 28 27 25 23 21 20 19 18 16 15 15 13 12 10 10 11 12 12 12 10 10 11 8 9 10 11 11 9 9 10 12 11 11 11 11 9 11 10 9 10 9 9 10
27 27 26 25 24 22 21 20 18 17 16 14 12 11 11 12 13 12 12 9 8 8 11 9 9 10 10 11 10 7 7 11 11 11 11 10 10 11 9 10 9 9 9 9
28 27 27 25 24 23 22 21 19 18 16 14 13 13 13 14 14 13 12 9 8 16 13 11 10 10 11 11 11 5 6 12 11 11 10 10 10 10 10 10 9 9 8 9
26 26 26 25 24 23 22 21 19 17 16 15 13 12 12 14 14 12 11 8 11 14 13 12 10 11 11 7 4 5 9 10 12 11 11 11 10 11 10 9 9 9 8 8
25 24 23 23 22 22 22 20 19 18 17 16 15 14 13 13 12 11 11 15 17 13 12 12 12 12 11 5 6 8 10 12 13 12 12 11 11 11 11 11 11 11 9 9
24 23 23 22 22 22 20 19 19 18 16 15 14 13 13 13 13 9 8 16 15 14 14 13 13 9 8 8 9 9 11 12 12 13 13 12 12 11 10 11 11 10 11 11
25 23 23 23 22 21 19 18 17 15 14 14 14 15 15 16 16 16 19 15 15 15 13 15 13 12 10 9 11 11 10 11 13 14 14 14 12 11 12 11 10 10 10 11
25 24 23 22 21 21 20 18 16 15 14 14 14 15 15 17 20 21 20 19 17 16 16 16 17 15 14 12 12 12 13 15 14 13 12 11 10 9 9 9 7 6 6 6
26 24 24 23 22 22 20 18 16 16 15 14 14 13 13 15 16 17 16 16 14 14 13 15 17 18 17 16 15 14 13 11 10 9 7 5 4 5 4 2 1 1 2 3
25 26 24 23 23 22 20 17 17 15 14 16 15 16 15 16 19 19 16 15 18 18 17 16 15 14 12 10 9 7 7 7 4 1 1 1 0 -1 -2 -3 -3 -3 -2 0

GFSNGP_sfc_30mbdewp_138.txt.gz
Dewpoint
30 31 32 31 27 26 22 24 20 20 24 25 26 25 26 26 22 22 21 19 21 23 24 24 23 25 26 25 27 26 26 27 28 29 30 29 28 26 25 25 25 25 26 26
27 30 28 26 28 27 26 27 29 26 24 27 27 27 26 25 22 22 22 19 21 22 22 23 22 23 25 24 26 25 23 25 26 27 27 27 27 26 23 22 22 23 23 24
23 27 27 24 25 24 24 27 28 24 25 26 26 25 25 23 22 22 22 18 19 20 21 21 23 23 23 24 25 24 22 21 22 24 25 24 24 24 23 20 20 20 21 21
24 27 19 22 29 27 26 26 26 26 25 25 26 25 25 24 22 21 21 20 16 18 19 19 20 22 22 24 22 25 23 21 18 18 20 21 21 21 22 21 18 18 19 19
23 24 24 25 27 26 25 24 26 26 25 25 24 23 23 24 23 23 21 21 18 20 21 16 17 20 21 21 23 23 25 22 21 18 17 19 19 18 19 18 19 17 17 18
27 22 19 25 27 27 26 21 26 26 25 24 23 18 21 24 23 23 23 19 15 11 13 14 15 17 19 19 20 21 23 26 22 20 19 19 19 18 17 17 16 16 16 17
25 24 25 27 26 27 20 20 26 26 25 23 22 26 25 24 23 23 19 12 11 10 10 11 11 14 15 18 18 20 21 23 24 22 20 20 19 19 18 17 15 14 14 16
24 22 18 28 26 24 26 29 27 26 25 24 25 25 24 23 21 21 19 11 10 10 10 11 11 12 13 14 18 19 20 20 21 23 21 20 18 18 18 16 15 14 12 13
25 23 29 31 30 30 28 29 28 27 26 26 24 23 21 20 20 15 10 9 9 9 10 11 12 12 13 15 15 18 19 18 19 20 21 21 19 18 17 16 14 13 12 11
25 27 29 29 30 28 28 28 28 28 27 25 22 20 18 19 20 6 7 7 8 8 9 10 12 13 14 16 15 16 18 19 17 18 18 20 20 19 17 16 14 13 12 12
26 27 29 29 29 27 27 27 26 26 25 24 20 19 19 17 4 4 5 6 7 8 9 10 12 13 14 16 16 14 17 19 19 17 18 18 19 20 20 20 17 16 14 11
20 26 25 27 28 27 25 25 24 23 22 21 19 18 12 5 4 3 4 6 7 8 10 11 12 12 13 16 17 13 15 16 18 19 18 18 17 16 17 17 17 21 15 13
30 28 29 30 27 26 25 25 24 23 22 20 18 11 8 6 4 5 4 5 7 10 11 11 11 11 13 15 16 16 13 14 15 16 17 16 14 14 13 13 15 15 14 12
31 31 30 27 26 25 24 23 23 21 19 15 12 10 8 7 6 3 3 6 9 11 12 11 9 11 13 15 16 16 12 12 12 14 13 10 9 12 11 11 10 11 14 12
30 30 31 30 28 26 25 23 21 19 14 13 10 8 8 6 4 3 4 5 7 10 11 11 8 8 13 14 15 16 15 12 12 13 11 8 9 11 10 10 10 9 9 11
30 30 30 29 28 26 23 20 18 14 12 11 9 9 10 7 6 6 6 6 5 6 8 10 8 9 12 10 12 13 13 12 12 13 10 8 9 11 9 9 9 8 8 9
28 27 27 25 23 22 20 19 17 14 13 11 9 11 9 8 8 9 10 11 10 9 9 8 8 10 11 11 8 8 8 12 11 11 11 9 8 11 8 8 9 8 8 8
29 28 27 25 22 21 20 19 17 15 13 13 13 11 10 9 9 10 9 10 11 12 12 8 10 10 11 11 9 7 7 11 11 10 11 9 9 11 8 8 8 8 8 9
29 28 27 25 23 22 20 19 17 16 16 14 12 10 10 10 11 11 11 7 6 4 8 9 7 9 10 11 10 8 5 8 10 11 10 10 9 9 9 9 9 8 8 8
28 28 27 25 23 22 21 20 19 17 16 14 11 10 10 11 10 10 10 6 5 5 11 11 9 10 9 11 12 10 6 8 11 11 10 10 9 9 9 10 9 9 8 8
27 27 25 24 23 22 21 19 17 15 14 12 11 10 10 11 11 11 10 7 8 10 13 11 11 10 11 12 11 5 6 8 10 12 12 11 10 10 10 9 9 8 9 8
25 24 23 22 22 21 19 18 17 15 14 12 11 11 12 12 12 11 10 7 14 13 13 13 12 11 12 7 6 6 7 9 10 11 10 11 10 10 10 9 9 9 8 8
23 23 22 21 21 20 18 17 16 15 14 13 12 12 12 12 13 11 7 10 16 13 13 13 13 13 11 8 7 8 8 8 9 9 11 10 10 9 8 7 7 6 6 6
22 22 20 20 20 20 19 17 17 16 15 14 13 13 13 12 12 14 16 16 13 17 14 14 13 11 9 9 8 8 9 10 11 11 9 8 7 7 7 4 3 3 3 3
22 21 21 21 20 20 19 17 17 16 15 15 14 14 16 17 15 18 17 15 15 14 14 14 14 14 12 11 10 12 11 9 8 6 4 4 3 2 0 -1 -2 -2 -2 -1
24 23 22 22 21 21 19 18 16 16 15 14 14 15 15 17 19 18 18 17 17 15 15 16 14 12 11 9 8 7 5 3 1 0 -2 -3 -4 -5 -6 -7 -7 -7 -6 -5
26 25 23 23 23 21 19 18 16 15 14 13 11 12 12 13 16 17 16 16 17 15 13 11 9 7 4 4 3 2 1 -1 -2 -5 -7 -8 -9 -10 -11 -11 -11 -11 -10 -10

GFSNGP_sfc_30mbdewp_141.txt.gz
Dewpoint
30 31 31 31 29 27 27 26 24 22 23 25 27 27 25 26 23 22 19 20 21 21 22 22 22 24 24 25 23 22 22 24 25 26 27 26 24 24 23 22 24 26 25 25
29 31 31 30 31 32 28 26 27 27 26 26 28 27 26 25 22 22 19 18 20 21 20 21 22 23 24 24 24 21 18 18 21 21 22 24 23 22 20 19 19 21 22 23
23 28 30 25 27 27 27 27 27 23 24 26 26 25 25 24 22 22 19 17 19 20 20 20 21 22 23 23 24 21 19 17 17 19 18 18 19 18 18 17 18 18 19 21
24 26 18 22 28 27 26 26 28 26 25 26 26 26 25 24 22 22 19 17 17 18 17 19 20 21 22 24 24 22 20 18 17 17 17 16 16 15 15 16 16 18 18 19
21 23 22 25 26 26 26 24 27 26 26 26 25 24 24 24 23 22 22 17 18 20 18 17 18 20 20 21 23 24 21 19 19 18 17 17 16 16 15 15 16 16 18 18
27 21 19 23 27 27 25 20 27 26 25 24 23 21 21 24 23 23 22 20 14 14 13 15 17 18 19 20 21 22 25 21 19 19 18 18 18 17 16 14 14 15 16 17
26 24 24 28 27 26 20 19 27 26 25 23 22 23 25 25 24 24 19 11 11 11 10 11 14 16 17 18 19 21 22 23 23 20 19 19 18 18 17 15 13 13 14 16
27 24 18 27 27 23 25 28 27 26 25 24 25 25 24 24 23 19 12 11 10 10 11 12 13 14 15 17 18 20 20 20 21 22 19 19 17 17 16 15 13 12 12 14
24 23 29 31 29 29 29 28 27 26 25 25 25 23 22 22 21 17 11 10 10 11 11 13 13 14 14 16 18 19 18 19 19 20 21 21 19 17 15 15 13 12 12 12
25 27 29 29 29 28 29 29 28 27 26 25 23 22 20 20 18 13 9 8 9 10 11 12 13 15 16 16 16 19 18 16 18 18 18 20 20 20 16 15 14 13 11 11
25 27 29 29 29 28 28 28 28 27 26 24 22 19 18 18 10 9 8 8 9 9 10 12 13 14 16 17 15 17 18 17 18 17 17 17 17 18 19 19 18 15 12 9
19 24 24 25 28 28 27 26 27 26 24 21 19 17 19 10 8 8 8 8 9 9 10 11 12 14 15 17 14 15 15 16 17 18 17 15 15 13 16 15 15 14 12 12
28 28 28 29 28 26 25 25 25 24 22 23 27 21 13 7 7 8 8 8 9 10 10 11 11 13 14 16 16 13 14 14 15 16 13 12 13 13 10 11 14 12 12 10
31 29 27 26 25 26 25 25 24 22 21 19 15 12 9 7 9 7 7 9 11 11 10 9 10 12 14 17 17 13 12 13 13 9 7 9 10 9 9 9 8 7 11 10
30 30 29 27 25 24 24 23 20 17 14 12 11 9 8 7 5 6 9 10 11 11 11 8 8 10 13 16 17 16 15 13 13 10 8 9 11 8 8 9 8 7 8 9
30 30 28 26 25 24 22 21 18 15 14 12 11 10 10 6 6 6 7 9 7 8 11 9 5 11 11 12 14 13 13 12 12 11 9 8 10 9 6 8 8 7 7 8
28 29 29 27 26 24 22 21 19 16 15 14 13 12 8 7 7 7 7 9 8 7 9 8 6 11 11 9 9 9 11 11 11 10 11 8 8 10 8 8 8 7 7 6
28 29 29 28 26 24 22 20 17 14 13 12 13 10 9 8 7 8 10 10 9 10 10 7 10 10 11 11 8 7 6 10 11 10 10 9 8 9 9 8 8 8 8 7
29 28 28 26 25 23 21 19 17 15 15 13 11 9 9 8 9 8 10 8 8 7 10 8 10 9 11 11 10 9 5 10 11 11 10 10 8 8 8 8 9 9 8 8
29 29 27 25 24 22 21 20 18 16 15 13 11 9 8 8 9 7 6 3 3 4 8 10 8 10 10 10 13 12 7 6 8 11 10 10 9 9 9 9 9 9 7 8
28 28 26 25 23 21 21 20 18 15 14 12 10 9 8 9 8 8 8 7 7 7 12 11 10 9 10 11 11 11 5 5 8 10 10 10 9 9 8 7 6 5 5 5
26 25 24 22 22 20 18 18 17 15 13 11 10 9 8 9 8 9 10 10 11 9 14 12 12 11 10 11 9 6 6 8 8 9 9 9 8 7 7 6 5 4 3 3
24 23 21 21 21 19 17 16 15 14 12 11 10 10 10 11 11 11 11 11 16 13 14 13 13 12 11 11 8 6 8 9 9 8 8 6 6 5 4 3 1 0 -0 0
22 21 20 19 19 19 18 15 15 13 12 12 11 11 12 12 12 13 16 15 16 15 14 13 12 12 10 8 8 9 9 8 6 5 5 4 2 1 -2 -4 -5 -6 -6 -5
21 20 19 20 20 19 18 17 16 16 16 15 15 13 14 13 10 11 13 15 14 16 14 13 14 13 12 10 10 8 6 4 3 1 -1 -3 -5 -7 -8 -10 -10 -10 -10 -10
23 22 21 21 21 19 19 18 18 17 17 16 16 15 16 18 18 16 15 16 15 15 13 11 10 9 8 7 5 3 1 -1 -3 -6 -7 -9 -11 -12 -13 -14 -14 -13 -13 -13
25 24 23 22 22 20 19 18 17 16 16 15 14 14 16 17 16 16 15 14 12 10 8 7 6 5 3 1 0 -2 -3 -6 -8 -9 -12 -13 -15 -16 -16 -16 -16 -16 -16 -16

GFSNGP_sfc_30mbdewp_144.txt.gz
Dewpoint
27 29 31 30 30 30 29 29 27 28 27 26 27 26 26 27 23 21 19 20 20 20 20 21 22 23 24 24 21 20 19 20 20 19 21 20 21 20 20 21 24 26 24 25
27 29 31 29 31 30 30 30 30 30 25 27 28 28 26 26 23 22 17 20 20 19 20 21 22 22 23 24 21 19 17 17 18 16 17 19 17 19 19 18 18 22 23 21
24 28 29 26 28 29 28 30 28 25 26 27 26 27 26 24 23 22 17 19 20 19 19 20 21 22 23 24 21 19 18 17 17 16 15 15 15 15 17 17 18 17 19 20
26 27 18 20 28 28 27 28 28 26 26 26 26 26 26 24 23 22 17 18 19 18 18 20 20 22 23 24 22 19 18 18 17 16 15 15 14 14 15 16 16 17 16 18
24 23 21 22 26 26 25 23 27 27 26 26 25 25 24 24 23 21 18 18 18 17 18 19 19 21 21 22 24 21 19 18 18 17 17 16 15 15 14 16 17 17 17 16
26 20 17 23 27 28 26 20 27 27 26 25 24 23 23 24 24 22 19 19 17 15 17 18 18 19 20 20 22 22 23 21 19 18 18 17 17 16 15 14 15 16 16 16
26 24 27 27 27 26 19 16 27 27 26 25 24 24 23 24 23 23 20 14 13 11 12 14 18 19 18 20 20 21 21 22 21 20 18 18 17 17 16 14 14 14 16 17
26 24 21 28 27 23 24 28 27 26 25 25 25 25 25 24 23 19 12 13 11 11 12 13 15 17 17 18 20 20 21 20 21 21 19 18 16 16 16 14 12 13 13 14
26 23 28 30 29 29 29 27 27 26 25 25 25 24 24 22 18 13 11 10 11 12 13 14 14 16 16 17 19 18 18 19 19 20 21 21 18 16 15 14 12 11 12 12
25 27 28 30 29 28 29 28 27 26 26 25 23 23 22 20 14 11 10 10 11 11 12 13 15 16 16 17 19 17 16 16 17 17 17 18 19 19 16 15 13 11 10 11
25 26 28 29 29 28 28 29 27 26 26 24 23 21 21 19 17 10 9 10 10 11 13 13 15 16 16 16 18 17 16 17 16 15 15 15 16 17 19 18 14 12 10 9
21 25 24 24 29 28 28 28 27 26 25 23 21 20 19 16 14 10 9 9 10 10 11 12 14 15 16 15 16 15 14 16 17 15 14 14 14 12 16 14 13 12 11 11
26 28 28 29 28 27 27 27 26 24 23 20 19 19 13 12 11 11 10 10 9 9 10 12 13 14 16 17 14 15 15 15 15 12 11 13 12 10 8 9 11 10 10 10
29 28 27 27 26 26 26 26 25 22 24 21 20 17 15 11 12 10 9 10 10 10 9 10 12 13 15 17 14 14 14 14 10 7 10 10 8 9 8 8 6 6 9 9
30 30 28 27 26 25 24 22 21 20 22 23 16 14 12 10 9 9 10 11 11 10 9 9 9 11 13 17 15 13 14 13 9 8 9 10 9 7 8 8 7 6 7 7
30 27 26 25 24 24 22 20 18 16 15 13 13 12 10 8 8 10 10 11 10 9 9 7 7 11 12 15 15 14 13 13 13 10 8 9 10 8 6 8 7 6 6 6
28 27 26 24 23 23 22 20 18 16 14 12 12 12 9 7 8 8 9 11 9 10 11 7 4 11 9 11 11 10 11 11 11 11 10 8 8 10 9 7 8 7 7 5
28 29 28 26 24 23 22 20 18 16 14 14 13 11 9 8 6 7 8 8 7 9 9 7 8 10 10 8 8 8 10 11 11 10 10 9 8 8 8 8 8 8 8 7
28 29 29 28 27 25 23 21 19 17 16 15 13 11 9 7 7 7 8 6 5 4 7 7 11 10 10 10 8 7 6 10 11 11 11 10 9 8 8 8 8 8 7 6
29 28 28 26 25 24 22 21 18 16 14 12 10 9 7 7 7 7 7 5 6 6 8 6 10 9 10 11 13 12 7 5 7 10 11 11 10 9 8 8 7 5 4 3
28 28 26 25 24 22 21 20 18 15 13 11 9 8 7 7 7 6 6 4 4 6 9 8 7 9 10 11 11 11 9 4 6 9 9 9 8 6 5 4 3 3 2 1
26 26 25 23 22 20 18 18 17 15 13 11 9 9 7 7 7 6 6 6 9 7 12 12 11 9 9 11 11 11 7 8 8 8 8 6 5 4 2 1 -0 -1 -3 -4
24 23 22 21 21 19 16 16 15 14 13 11 10 9 8 9 9 9 9 11 13 11 14 13 12 11 11 10 9 6 8 9 8 6 5 3 2 0 -2 -3 -6 -8 -9 -9
21 21 19 18 18 18 18 15 14 13 12 12 11 10 11 11 12 14 15 13 15 13 14 13 12 11 10 8 8 9 7 5 4 3 2 -2 -4 -6 -9 -11 -12 -13 -12 -12
20 19 19 19 19 18 17 16 15 15 14 14 13 12 14 14 12 13 14 14 15 13 12 12 12 11 10 9 7 5 3 1 -1 -3 -6 -8 -10 -12 -14 -15 -16 -16 -16 -16
22 21 21 21 20 19 18 18 18 18 18 16 16 16 15 15 14 14 15 14 13 12 10 9 9 8 6 5 3 1 -1 -4 -6 -8 -10 -11 -13 -15 -17 -17 -17 -18 -18 -19
23 23 22 22 21 20 20 20 19 18 18 17 15 16 17 16 15 14 12 10 9 8 6 6 5 3 1 -1 -2 -4 -6 -8 -10 -12 -14 -16 -17 -18 -18 -19 -20 -20 -20 -20

GFSNGP_sfc_30mbdewp_147.txt.gz
Dewpoint
26 26 29 28 27 29 27 27 24 24 26 29 30 28 27 27 24 20 21 20 18 18 19 21 22 21 20 18 17 17 18 18 15 16 18 16 17 19 19 19 24 23 23 24
25 28 30 29 30 30 30 29 29 29 28 32 29 30 27 27 23 21 19 19 18 18 18 19 17 18 18 17 16 14 13 13 15 13 14 15 15 16 16 16 16 19 19 20
21 27 28 24 27 29 29 30 29 26 29 28 28 28 27 27 24 22 18 19 18 19 20 20 19 18 18 16 16 15 14 13 13 12 12 12 13 14 14 14 14 15 16 17
24 28 18 21 27 30 29 29 31 29 27 28 27 28 28 27 25 22 18 19 20 21 21 21 21 20 20 16 16 15 15 14 13 12 11 12 12 13 14 13 13 14 14 14
22 21 24 22 26 26 25 24 27 29 27 26 27 26 26 26 26 22 19 20 19 20 22 19 21 20 21 20 19 17 17 15 15 13 13 12 13 14 13 14 13 13 14 15
26 22 16 22 27 28 26 19 26 28 27 26 26 25 26 26 25 21 19 17 17 18 19 19 20 19 19 20 19 20 20 18 16 16 15 16 15 14 14 14 14 14 13 14
25 24 25 29 28 27 19 17 27 28 27 26 25 27 26 26 23 21 18 14 15 16 15 17 18 19 18 19 20 19 19 20 18 17 17 16 16 14 15 14 14 15 15 15
27 24 19 28 27 23 25 28 28 28 27 26 26 25 25 24 22 19 16 13 12 13 15 16 17 17 18 18 19 19 19 18 19 18 16 17 17 15 15 13 14 14 14 15
25 24 29 30 29 29 29 28 28 27 27 26 26 25 24 22 19 14 13 11 11 12 13 15 16 16 16 17 17 17 17 17 17 17 18 18 16 16 13 13 11 11 11 12
26 27 28 30 29 29 29 29 28 27 27 26 25 24 23 20 15 12 10 10 11 12 13 13 15 16 17 17 17 15 14 15 15 15 14 15 16 16 14 13 12 11 11 12
27 27 28 30 30 29 29 28 27 27 26 25 25 23 21 17 14 11 10 10 10 10 12 14 15 15 16 17 15 14 14 13 12 12 12 13 15 14 13 14 12 12 12 13
26 26 25 25 31 29 29 28 27 26 25 24 24 23 20 16 13 11 10 10 10 10 11 13 15 14 15 16 16 14 14 14 13 12 12 11 10 13 14 13 12 11 11 12
25 28 28 30 29 28 28 28 27 26 25 23 23 21 20 18 13 12 11 10 9 9 10 11 14 14 14 14 15 14 14 14 13 10 11 11 11 9 9 10 10 11 10 9
29 28 27 27 27 27 27 27 26 24 23 22 21 19 18 15 14 12 11 10 9 9 9 10 12 15 17 15 13 16 17 15 14 14 14 12 11 11 11 9 7 8 10 9
30 30 28 27 26 26 25 24 24 23 21 20 18 16 14 14 13 12 11 10 9 8 7 8 12 15 17 19 15 16 16 13 13 14 14 13 12 11 10 10 9 8 9 9
27 26 26 26 25 24 23 22 22 22 23 18 17 15 15 14 11 11 11 10 9 8 8 9 10 14 16 17 15 16 16 15 13 13 12 13 12 11 9 10 9 10 9 10
26 25 25 25 24 23 21 21 21 20 21 19 16 14 12 11 11 11 12 13 12 12 11 9 8 13 14 16 17 16 15 15 14 13 12 11 11 11 11 11 10 10 11 12
29 29 27 26 25 24 22 21 19 17 16 16 15 13 11 10 9 11 12 12 11 11 13 10 10 9 10 13 14 15 14 14 13 13 13 13 12 11 12 12 11 11 12 11
29 29 28 26 25 24 23 21 19 18 17 15 13 13 12 11 11 10 10 8 6 7 10 8 11 10 11 10 11 12 13 13 13 13 13 12 13 13 13 13 12 12 10 8
29 29 28 27 26 25 24 22 20 18 17 15 12 11 11 9 9 8 8 7 10 11 10 10 13 12 12 12 11 9 9 10 9 11 13 13 13 12 12 9 8 8 7 6
28 28 27 26 25 23 23 21 19 17 15 14 14 13 11 9 8 7 7 8 10 7 10 8 10 11 11 11 12 13 12 10 11 11 12 11 11 9 8 7 6 5 4 3
27 26 25 23 23 21 19 19 18 15 13 12 10 9 8 8 7 8 8 11 10 10 11 9 9 9 11 13 12 14 12 10 12 12 11 9 8 7 5 3 2 0 -1 -2
25 24 22 22 21 20 17 17 16 16 14 12 11 10 11 11 11 10 10 12 12 11 15 14 13 11 12 14 14 13 11 12 11 9 7 6 4 2 1 -2 -3 -5 -6 -7
22 21 20 19 18 18 19 16 16 15 14 13 12 12 12 13 13 14 15 14 12 16 16 15 14 12 13 13 12 12 10 8 7 5 2 -1 -2 -4 -5 -7 -8 -9 -10 -11
20 20 19 20 20 19 17 16 15 15 14 13 13 13 14 15 16 16 17 16 14 15 14 11 11 11 13 12 10 7 6 4 2 -0 -3 -4 -6 -7 -8 -10 -12 -12 -13 -13
22 21 21 20 20 19 17 17 17 17 17 18 17 18 18 17 16 16 16 15 14 13 13 12 11 10 8 7 5 3 1 -2 -3 -5 -7 -8 -9 -10 -12 -13 -13 -14 -14 -14
23 23 22 21 21 20 20 21 21 20 19 18 17 17 17 16 15 14 14 13 11 10 9 8 7 6 4 2 -0 -2 -4 -6 -8 -8 -10 -11 -13 -13 -15 -15 -15 -15 -15 -15

GFSNGP_sfc_30mbdewp_150.txt.gz
Dewpoint
22 23 19 19 22 22 19 22 23 26 26 28 28 30 32 31 30 27 25 21 17 16 18 22 23 20 17 16 17 17 20 17 16 16 18 16 17 17 17 16 19 20 21 23
27 25 21 24 31 32 29 27 26 26 26 28 30 33 32 30 29 25 22 20 16 14 14 13 14 14 15 15 14 12 12 12 14 13 13 15 14 14 14 13 13 13 11 13
17 19 22 21 27 29 25 26 27 24 23 27 30 30 31 30 28 25 22 20 16 16 17 16 14 14 13 13 14 13 12 11 11 11 11 12 12 11 11 12 12 12 11 9
19 20 18 25 26 25 25 25 26 26 27 30 30 31 31 31 28 26 22 19 19 22 20 20 17 16 14 14 14 14 13 11 10 10 10 12 11 11 11 11 11 12 12 11
19 16 16 17 19 25 25 20 26 26 28 30 29 29 29 30 29 26 22 21 21 24 24 19 18 17 15 16 16 16 15 14 13 12 12 12 13 13 13 12 12 13 13 14
21 22 11 19 26 28 27 21 26 27 30 29 29 27 31 29 29 25 22 20 18 18 20 19 18 17 17 18 19 20 19 17 15 16 16 17 17 15 14 15 14 14 14 15
22 20 18 24 27 28 21 22 28 28 29 29 28 31 32 30 28 24 19 16 16 15 15 17 18 17 17 17 20 19 19 19 17 18 18 17 16 16 18 17 17 17 17 16
24 22 20 29 28 24 28 30 29 29 30 29 29 28 29 28 25 20 14 13 14 13 13 14 15 15 15 17 17 17 18 18 18 17 16 18 18 17 16 16 16 16 16 17
24 22 31 30 31 31 30 30 30 29 29 29 28 27 27 25 21 17 12 11 12 12 14 14 14 14 13 15 15 16 16 16 15 16 17 17 16 17 14 14 13 12 13 14
28 27 30 31 31 30 30 30 29 29 29 29 27 26 26 23 19 15 12 9 9 11 12 13 14 13 14 15 14 14 13 13 12 12 12 13 13 14 14 14 13 13 13 14
27 28 29 30 31 30 31 30 29 29 29 28 27 25 24 22 18 14 11 9 10 10 10 12 13 14 15 15 13 11 10 9 10 10 10 11 13 13 13 14 13 14 15 14
27 30 30 30 32 31 31 29 28 28 27 27 26 25 23 20 17 13 11 10 9 9 10 11 12 13 15 15 12 11 10 10 11 10 10 8 9 11 13 12 12 11 11 12
29 30 31 32 31 31 30 29 28 28 27 26 26 24 22 20 17 14 12 11 9 8 8 11 12 12 13 15 14 12 11 11 11 9 10 10 10 9 11 11 10 11 10 10
30 30 29 29 29 29 29 29 28 27 27 26 25 24 22 19 16 14 12 11 9 9 8 8 10 11 12 13 13 14 17 16 16 16 16 14 13 12 12 11 11 11 10 10
29 30 28 29 28 28 28 27 26 25 25 24 24 22 21 17 16 15 13 11 9 8 8 7 9 17 20 17 18 19 19 17 17 17 16 14 13 12 11 11 10 10 10 11
28 28 28 27 27 26 26 26 25 25 24 23 21 20 19 19 20 15 12 10 9 8 7 9 12 17 17 16 14 16 16 15 15 15 14 14 13 12 11 10 10 10 10 11
27 27 27 27 26 25 25 25 25 25 23 21 20 19 18 18 16 13 12 12 15 16 14 14 15 17 19 19 18 18 18 17 15 14 14 13 12 12 11 11 11 10 10 15
28 28 27 27 26 25 24 24 24 25 25 24 21 20 19 19 18 16 16 17 17 17 15 16 16 16 18 19 19 18 17 16 15 14 13 13 13 12 12 12 11 10 10 11
28 28 28 27 27 26 25 24 23 21 21 22 20 20 20 20 20 20 19 16 15 15 16 14 13 13 14 16 17 16 16 15 13 12 12 13 13 12 12 13 11 12 12 10
29 29 28 28 27 27 25 24 23 23 23 21 21 20 19 18 18 17 16 14 15 17 16 14 13 12 13 14 14 13 14 13 11 11 12 11 12 13 13 12 11 10 10 9
30 30 30 29 28 27 27 25 24 22 21 20 19 19 19 19 16 16 15 14 15 13 15 13 11 11 9 10 10 12 14 14 13 12 12 13 13 13 11 10 9 8 7 6
31 29 28 27 26 25 25 25 24 22 20 19 19 18 16 15 14 14 16 17 16 13 12 9 9 11 9 12 9 14 14 13 14 14 13 12 11 10 9 8 6 5 3 1
29 28 27 26 26 25 24 24 22 21 19 17 16 16 17 17 15 14 12 14 13 14 12 12 12 12 14 15 16 16 15 14 14 13 11 10 8 7 5 3 0 -0 -1 -2
28 28 26 25 23 23 23 21 22 21 21 20 19 19 17 17 17 15 17 16 13 16 18 18 14 13 15 18 17 16 15 13 12 10 7 5 5 2 -0 -2 -4 -4 -4 -5
25 24 24 24 25 24 23 21 20 19 17 16 15 16 16 18 21 19 19 17 17 17 17 15 15 16 18 17 15 13 11 9 8 6 4 2 -1 -2 -3 -4 -6 -6 -7 -6
25 25 25 25 24 22 21 19 20 19 19 20 20 21 21 21 21 20 19 17 16 17 17 17 16 16 14 12 10 8 7 4 3 -0 -1 -3 -4 -5 -6 -7 -7 -7 -7 -8
25 24 23 23 22 21 22 23 24 23 24 23 21 21 21 21 20 18 18 17 17 15 14 13 13 11 10 8 5 3 2 -1 -3 -3 -4 -5 -6 -6 -8 -8 -8 -9 -9 -10